[[{"header":{"parameterUnit":"m.s-1","parameterCategory":1,"la1":30.6,"la2":29.2853,"lo1":-89.7004,"lo2":-87.6739,"dy":0.0162,"dx":0.0183,"nx":112,"ny":82,"refTime":"2026-05-07T00:00:00:Z","depth":0,"parameterNumber":2,"parameterNumberName":"U-component_of_WINDS"},"data":[0.0,0.0,0.0,0.0,0.0,0.0,0.0,0.0,0.0,0.0,0.0,0.0,0.0,0.0,0.0,0.0,0.0,0.0,0.0,0.0,0.0,0.0,0.0,0.0,0.0,0.0,0.0,0.0,0.0,0.0,0.0,0.0,0.0,0.0,0.0,0.0,0.0,0.0,0.0,0.0,0.0,0.0,0.0,0.0,0.0,0.0,0.0,0.0,0.0,0.0,0.0,0.0,0.0,0.0,0.0,0.0,0.0,0.0,0.0,0.0,0.0,0.0,0.0,0.0,0.0,0.0,0.0,0.0,0.0,0.0,0.0,0.0,0.0,0.0,0.0,0.0,0.0,0.0,0.0,0.0,0.0,0.0,0.0,0.0,0.0,0.0,0.0,0.0,0.0,0.0,0.0,-1.223,-1.3699,-1.4206,-1.325,-1.2657,-1.1413,-0.9194,0.0,0.0,0.0,0.0,0.0,0.0,0.0,0.0,0.0,0.0,0.0,0.0,0.0,0.0,0.0,0.0,0.0,0.0,0.0,0.0,0.0,0.0,0.0,0.0,0.0,0.0,0.0,0.0,0.0,0.0,0.0,0.0,0.0,0.0,0.0,0.0,0.0,0.0,0.0,0.0,0.0,0.0,0.0,0.0,0.0,0.0,0.0,0.0,0.0,0.0,0.0,0.0,0.0,0.0,0.0,0.0,0.0,0.0,0.0,0.0,0.0,0.0,0.0,0.0,0.0,0.0,0.0,0.0,0.0,0.0,0.0,0.0,0.0,0.0,0.0,0.0,0.0,0.0,0.0,0.0,0.0,0.0,0.0,0.0,0.0,0.0,0.0,0.0,0.0,0.0,0.0,0.0,0.0,0.0,0.0,0.0,0.0,0.0,0.0,0.0,0.0,0.0,0.0,0.0,-1.1308,-1.371,-1.4046,-1.3684,-1.2718,-1.2039,-1.0719,-0.8575,0.0,0.0,0.0,0.0,0.0,0.0,0.0,0.0,0.0,0.0,0.0,0.0,0.0,0.0,0.0,0.0,0.0,0.0,0.0,0.0,0.0,0.0,0.0,0.0,0.0,0.0,0.0,0.0,0.0,0.0,0.0,0.0,0.0,0.0,0.0,0.0,0.0,0.0,0.0,0.0,0.0,0.0,0.0,0.0,0.0,0.0,0.0,0.0,0.0,0.0,0.0,0.0,0.0,0.0,0.0,0.0,0.0,0.0,0.0,0.0,0.0,0.0,0.0,0.0,0.0,0.0,0.0,0.0,0.0,0.0,0.0,0.0,0.0,0.0,0.0,0.0,0.0,0.0,0.0,0.0,0.0,0.0,0.0,0.0,0.0,0.0,0.0,0.0,0.0,0.0,0.0,0.0,0.0,0.0,0.0,0.0,0.0,0.0,0.0,0.0,0.0,0.0,0.0,-1.0914,-1.2018,-1.4081,-1.4017,-1.3459,-1.2579,-1.1628,-1.0207,-0.8208,-0.7256,0.0,0.0,0.0,0.0,0.0,0.0,0.0,0.0,0.0,0.0,0.0,0.0,0.0,0.0,0.0,0.0,0.0,0.0,0.0,0.0,0.0,0.0,0.0,0.0,0.0,0.0,0.0,0.0,0.0,0.0,0.0,0.0,0.0,0.0,0.0,0.0,0.0,0.0,0.0,0.0,0.0,0.0,0.0,0.0,0.0,0.0,0.0,0.0,0.0,0.0,0.0,0.0,0.0,0.0,0.0,0.0,0.0,0.0,0.0,0.0,0.0,0.0,0.0,0.0,0.0,0.0,0.0,0.0,0.0,0.0,0.0,0.0,0.0,0.0,0.0,0.0,0.0,0.0,0.0,0.0,0.0,0.0,0.0,0.0,0.0,0.0,0.0,0.0,0.0,0.0,0.0,0.0,0.0,0.0,0.0,0.0,0.0,0.0,0.0,0.0,0.0,0.0,-1.2267,-1.295,-1.4242,-1.3785,-1.307,-1.234,-1.0988,-0.9456,-0.7793,-0.6619,0.0,0.0,0.0,0.0,0.0,0.0,0.0,0.0,0.0,0.0,0.0,0.0,0.0,0.0,0.0,0.0,0.0,0.0,0.0,0.0,0.0,0.0,0.0,0.0,0.0,0.0,0.0,0.0,0.0,0.0,0.0,0.0,0.0,0.0,0.0,0.0,0.0,0.0,0.0,0.0,0.0,0.0,0.0,0.0,0.0,0.0,0.0,0.0,0.0,0.0,0.0,0.0,0.0,0.0,0.0,0.0,0.0,0.0,0.0,0.0,0.0,0.0,0.0,0.0,0.0,0.0,0.0,0.0,0.0,0.0,0.0,0.0,0.0,0.0,0.0,0.0,0.0,0.0,0.0,0.0,0.0,0.0,0.0,0.0,0.0,0.0,0.0,0.0,0.0,0.0,0.0,0.0,0.0,0.0,0.0,0.0,0.0,0.0,0.0,0.0,0.0,0.0,-1.2761,-1.3992,-1.4605,-1.3315,-1.2196,-1.17,-0.9768,-0.8129,-0.713,-0.6001,0.0,0.0,0.0,0.0,0.0,0.0,0.0,0.0,0.0,0.0,0.0,0.0,0.0,0.0,0.0,0.0,0.0,0.0,0.0,0.0,0.0,0.0,0.0,0.0,0.0,0.0,0.0,0.0,0.0,0.0,0.0,0.0,0.0,0.0,0.0,0.0,0.0,0.0,0.0,0.0,0.0,0.0,0.0,0.0,0.0,0.0,0.0,0.0,0.0,0.0,0.0,0.0,0.0,0.0,0.0,0.0,0.0,0.0,0.0,0.0,0.0,0.0,0.0,0.0,0.0,0.0,0.0,0.0,0.0,0.0,0.0,0.0,0.0,0.0,0.0,0.0,0.0,0.0,0.0,0.0,0.0,0.0,0.0,0.0,0.0,0.0,0.0,0.0,0.0,0.0,0.0,0.0,0.0,0.0,0.0,0.0,0.0,0.0,0.0,0.0,0.0,0.0,-1.2263,-1.3251,0.0,-1.3004,-1.1948,-1.1094,-0.9571,-0.8183,-0.7073,0.0,0.0,0.0,0.0,0.0,0.0,0.0,0.0,0.0,0.0,0.0,0.0,0.0,0.0,0.0,0.0,0.0,0.0,0.0,0.0,0.0,0.0,0.0,0.0,0.0,0.0,0.0,0.0,0.0,0.0,0.0,0.0,0.0,0.0,0.0,0.0,0.0,0.0,0.0,0.0,0.0,0.0,0.0,0.0,0.0,0.0,0.0,0.0,0.0,0.0,0.0,0.0,0.0,0.0,0.0,0.0,0.0,0.0,0.0,0.0,0.0,0.0,0.0,0.0,0.0,0.0,0.0,0.0,0.0,0.0,0.0,0.0,0.0,0.0,0.0,0.0,0.0,0.0,0.0,0.0,0.0,0.0,0.0,0.0,0.0,0.0,0.0,0.0,0.0,0.0,0.0,0.0,0.0,0.0,0.0,0.0,0.0,0.0,0.0,0.0,0.0,0.0,-1.1006,-1.1927,-1.2743,0.0,-1.2529,-1.149,-1.0752,-0.9276,-0.7989,-0.706,0.0,0.0,0.0,0.0,0.0,0.0,0.0,0.0,0.0,0.0,0.0,0.0,0.0,0.0,0.0,0.0,0.0,0.0,0.0,0.0,0.0,0.0,0.0,0.0,0.0,0.0,0.0,0.0,0.0,0.0,0.0,0.0,0.0,0.0,0.0,0.0,0.0,0.0,0.0,0.0,0.0,0.0,0.0,0.0,0.0,0.0,0.0,0.0,0.0,0.0,0.0,0.0,0.0,0.0,0.0,0.0,0.0,0.0,0.0,0.0,0.0,0.0,0.0,0.0,0.0,0.0,0.0,0.0,0.0,0.0,0.0,0.0,0.0,0.0,0.0,0.0,0.0,0.0,0.0,0.0,0.0,0.0,0.0,0.0,0.0,0.0,0.0,0.0,0.0,0.0,0.0,0.0,0.0,0.0,0.0,0.0,0.0,0.0,0.0,0.0,0.0,0.0,-1.0941,-1.1931,-1.2748,-1.3425,-1.1828,-1.0709,-1.0686,-0.8732,-0.7363,0.0,0.0,0.0,0.0,0.0,0.0,0.0,0.0,0.0,0.0,0.0,0.0,0.0,0.0,0.0,0.0,0.0,0.0,0.0,0.0,0.0,0.0,0.0,0.0,0.0,0.0,0.0,0.0,0.0,0.0,0.0,0.0,0.0,0.0,0.0,0.0,0.0,0.0,0.0,0.0,0.0,0.0,0.0,0.0,0.0,0.0,0.0,0.0,0.0,0.0,0.0,0.0,0.0,0.0,0.0,0.0,0.0,0.0,0.0,0.0,0.0,0.0,0.0,0.0,0.0,0.0,0.0,0.0,0.0,0.0,0.0,0.0,0.0,0.0,0.0,0.0,0.0,0.0,0.0,0.0,0.0,0.0,0.0,0.0,0.0,0.0,0.0,0.0,0.0,0.0,0.0,0.0,0.0,0.0,0.0,0.0,0.0,0.0,0.0,0.0,0.0,0.0,0.0,-1.0835,-1.1804,-1.2456,-1.2775,-1.1528,-1.0516,-1.0049,-0.8645,-0.7552,-0.7033,0.0,0.0,0.0,0.0,0.0,0.0,0.0,0.0,0.0,0.0,0.0,0.0,0.0,0.0,0.0,0.0,0.0,0.0,0.0,0.0,0.0,0.0,0.0,0.0,0.0,0.0,0.0,0.0,0.0,0.0,0.0,0.0,0.0,0.0,0.0,0.0,0.0,0.0,0.0,0.0,0.0,0.0,0.0,0.0,0.0,0.0,0.0,0.0,0.0,0.0,0.0,0.0,0.0,0.0,0.0,0.0,0.0,0.0,0.0,0.0,0.0,0.0,0.0,0.0,0.0,0.0,0.0,0.0,0.0,0.0,0.0,0.0,0.0,0.0,0.0,0.0,0.0,0.0,0.0,0.0,0.0,0.0,0.0,0.0,0.0,0.0,0.0,0.0,0.0,0.0,0.0,0.0,0.0,0.0,0.0,0.0,0.0,0.0,0.0,0.0,0.0,0.0,-1.0228,-1.1105,-1.1713,-1.2074,-1.1034,-1.0142,-0.9744,-0.8604,-0.7646,-0.704,0.0,0.0,0.0,0.0,0.0,0.0,0.0,0.0,0.0,0.0,0.0,0.0,0.0,0.0,0.0,0.0,0.0,0.0,0.0,0.0,0.0,0.0,0.0,0.0,0.0,0.0,0.0,0.0,0.0,0.0,0.0,0.0,0.0,0.0,0.0,0.0,0.0,0.0,0.0,0.0,0.0,0.0,0.0,0.0,0.0,0.0,0.0,0.0,0.0,0.0,0.0,0.0,0.0,0.0,0.0,0.0,0.0,0.0,0.0,0.0,0.0,0.0,0.0,0.0,0.0,0.0,0.0,0.0,0.0,0.0,0.0,0.0,0.0,0.0,0.0,0.0,0.0,0.0,0.0,0.0,0.0,0.0,0.0,0.0,0.0,0.0,0.0,0.0,0.0,0.0,0.0,0.0,0.0,0.0,0.0,0.0,0.0,0.0,0.0,0.0,0.0,0.0,-0.9334,-1.0083,-1.077,-1.1418,-1.0416,-0.9715,-0.9715,-0.8631,-0.7692,-0.708,0.0,0.0,0.0,0.0,0.0,0.0,0.0,0.0,0.0,0.0,0.0,0.0,0.0,0.0,0.0,0.0,0.0,0.0,0.0,0.0,0.0,0.0,0.0,0.0,0.0,0.0,0.0,0.0,0.0,0.0,0.0,0.0,0.0,0.0,0.0,0.0,0.0,0.0,0.0,0.0,0.0,0.0,0.0,0.0,0.0,0.0,0.0,0.0,0.0,0.0,0.0,0.0,0.0,0.0,0.0,0.0,0.0,0.0,0.0,0.0,-1.3926,0.0,0.0,0.0,0.0,0.0,0.0,0.0,0.0,0.0,0.0,0.0,0.0,0.0,0.0,0.0,0.0,0.0,0.0,0.0,0.0,0.0,0.0,0.0,0.0,0.0,0.0,0.0,0.0,0.0,0.0,0.0,0.0,0.0,0.0,0.0,0.0,0.0,0.0,0.0,0.0,0.0,-0.9292,-1.0038,-1.077,-1.1418,-1.0416,-0.9715,-0.9715,-0.8844,-0.8047,-0.743,-0.6532,0.0,0.0,0.0,0.0,0.0,0.0,0.0,0.0,0.0,0.0,0.0,0.0,0.0,0.0,0.0,0.0,0.0,0.0,0.0,0.0,0.0,0.0,0.0,0.0,0.0,0.0,0.0,0.0,0.0,0.0,0.0,0.0,0.0,0.0,0.0,0.0,0.0,0.0,0.0,0.0,0.0,0.0,0.0,0.0,0.0,0.0,0.0,0.0,0.0,0.0,0.0,0.0,0.0,0.0,0.0,0.0,0.0,0.0,0.0,0.0,-1.4736,0.0,0.0,0.0,0.0,0.0,0.0,0.0,0.0,0.0,0.0,0.0,0.0,0.0,0.0,0.0,0.0,0.0,0.0,0.0,0.0,0.0,0.0,0.0,0.0,0.0,0.0,0.0,0.0,0.0,0.0,0.0,0.0,0.0,0.0,0.0,0.0,0.0,0.0,0.0,0.0,-0.8774,-0.9617,-1.0366,-1.0989,-1.0366,-0.9833,-0.9722,-0.9005,-0.833,-0.7729,-0.6874,0.0,0.0,0.0,0.0,0.0,0.0,0.0,0.0,0.0,0.0,0.0,0.0,0.0,0.0,0.0,0.0,0.0,0.0,0.0,0.0,0.0,0.0,0.0,0.0,0.0,0.0,0.0,0.0,0.0,0.0,0.0,0.0,0.0,0.0,0.0,0.0,0.0,0.0,0.0,0.0,0.0,0.0,0.0,0.0,0.0,0.0,0.0,0.0,0.0,0.0,0.0,0.0,0.0,-1.9209,-1.9461,-1.9848,-1.9611,-1.9726,-1.9975,-1.7833,-1.6904,-1.6793,0.0,0.0,0.0,0.0,0.0,0.0,0.0,0.0,0.0,0.0,0.0,0.0,0.0,0.0,0.0,0.0,0.0,0.0,0.0,0.0,0.0,0.0,0.0,0.0,0.0,-1.2199,-1.1668,0.0,0.0,0.0,0.0,0.0,0.0,0.0,0.0,0.0,0.0,0.0,0.0,-0.836,-0.9218,-0.9997,-1.0533,-1.0294,-1.0,-0.9706,-0.9192,-0.8605,-0.8019,-0.7261,-0.6687,0.0,0.0,0.0,0.0,0.0,0.0,0.0,0.0,0.0,0.0,0.0,0.0,0.0,0.0,0.0,0.0,0.0,0.0,0.0,0.0,0.0,0.0,0.0,0.0,0.0,0.0,0.0,0.0,0.0,0.0,0.0,0.0,-1.2125,-1.3057,0.0,0.0,0.0,0.0,0.0,0.0,0.0,0.0,0.0,0.0,0.0,0.0,0.0,0.0,-1.8901,-2.0035,-2.068,-2.0794,-2.1523,-2.1935,-2.1983,-2.1939,-2.1968,-2.1962,-2.0659,0.0,-1.7767,-1.7205,0.0,0.0,0.0,0.0,0.0,0.0,0.0,0.0,0.0,0.0,0.0,0.0,0.0,0.0,0.0,0.0,0.0,0.0,0.0,0.0,0.0,0.0,-1.3449,-1.2572,-1.238,-1.2061,0.0,-1.0229,-0.9602,-0.8967,0.0,0.0,0.0,0.0,0.0,0.0,0.0,0.0,-0.8664,-0.9519,-1.0187,-1.0553,-1.0294,-1.0,-0.9706,-0.9351,-0.8911,-0.8375,-0.7963,-0.7479,-0.6913,-0.6372,0.0,0.0,0.0,0.0,0.0,0.0,0.0,0.0,0.0,0.0,0.0,0.0,0.0,0.0,0.0,0.0,0.0,0.0,0.0,0.0,0.0,0.0,0.0,0.0,0.0,0.0,0.0,0.0,0.0,-1.214,-1.3468,-1.4445,-1.4445,-1.419,0.0,0.0,0.0,0.0,0.0,0.0,0.0,0.0,0.0,-1.9053,-1.955,-2.0236,-2.1156,-2.1829,-2.2322,-2.2577,-2.2936,-2.3115,-2.3115,-2.2969,-2.2923,-2.2878,-2.2217,-2.1345,-2.0241,-1.7878,-1.6319,-1.5352,0.0,0.0,0.0,0.0,0.0,-1.4577,-1.5023,0.0,0.0,0.0,0.0,0.0,0.0,0.0,0.0,0.0,0.0,0.0,0.0,0.0,0.0,-1.3484,-1.3047,-1.2446,-1.1861,-1.1354,-1.0711,0.0,-0.8908,-0.816,-0.7258,0.0,0.0,0.0,0.0,-0.8637,-0.9225,-0.978,-1.0234,-1.0559,-1.0472,-1.0247,-0.9953,-0.9659,-0.9312,-0.8884,-0.843,-0.8063,-0.7796,-0.7047,-0.6386,0.0,0.0,0.0,0.0,0.0,0.0,0.0,0.0,0.0,0.0,0.0,0.0,0.0,0.0,0.0,0.0,0.0,0.0,0.0,0.0,0.0,0.0,0.0,0.0,0.0,0.0,0.0,0.0,-1.376,-1.4975,-1.569,-1.6119,-1.6091,0.0,0.0,0.0,0.0,0.0,0.0,-1.8378,-1.8885,-1.9721,-2.0943,-2.1311,-2.1991,-2.3066,-2.3205,-2.3523,-2.3955,-2.389,-2.37,-2.3396,-2.3206,-2.2958,-2.2661,-2.2276,-2.1887,-2.1308,-1.8832,-1.7502,-1.6874,-1.5604,-1.5188,-1.5351,-1.6,-1.6246,-1.6333,-1.6919,-1.7153,-1.707,-1.6451,0.0,-1.4164,-1.3593,0.0,0.0,0.0,0.0,-1.2802,-1.3774,0.0,-1.328,-1.3885,-1.3441,-1.2844,-1.2585,-1.2245,-1.1625,0.0,-0.984,-0.9311,-0.8248,0.0,0.0,0.0,0.0,-0.9218,-0.9733,-1.0047,-1.0314,-1.0566,-1.0593,-1.0472,-1.014,-0.9846,-0.9559,-0.9231,-0.8764,-0.8476,-0.8402,-0.7729,-0.7161,-0.6707,0.0,0.0,0.0,0.0,0.0,0.0,0.0,0.0,0.0,0.0,0.0,0.0,0.0,0.0,0.0,0.0,0.0,0.0,0.0,0.0,0.0,0.0,0.0,0.0,0.0,0.0,0.0,0.0,0.0,-1.6774,-1.7907,0.0,0.0,0.0,0.0,-1.7917,-1.8897,-1.9721,-2.0319,-2.1083,-2.1723,-2.2217,-2.294,-2.3602,-2.411,-2.411,-2.4321,-2.4735,-2.438,-2.3583,-2.2576,-2.2576,-2.1954,-2.0982,-2.0274,-1.9715,-1.9483,-2.0867,-2.0181,-1.8358,-1.8825,-1.7997,-1.6686,-1.8042,-1.8786,-1.9115,-1.9152,-1.9396,-1.9724,-1.9679,-1.8271,-1.6405,-1.5168,-1.4213,0.0,0.0,-1.333,-1.357,-1.3301,-1.3245,-1.3213,-1.3239,-1.3239,-1.318,-1.3166,-1.2699,-1.2011,0.0,-1.0915,-1.0621,-0.9755,0.0,-0.9492,-0.9171,-0.9432,-0.9746,-1.0053,-1.0385,-1.0579,-1.0593,-1.0593,-1.0472,-1.014,-0.9846,-0.9559,-0.9231,-0.8931,-0.8664,-0.8409,-0.8355,-0.7896,-0.7,-0.6432,0.0,0.0,0.0,0.0,0.0,0.0,0.0,0.0,0.0,0.0,0.0,0.0,0.0,0.0,0.0,0.0,0.0,0.0,0.0,0.0,0.0,0.0,0.0,0.0,0.0,0.0,0.0,0.0,-1.908,-1.9865,0.0,-1.9226,-1.9629,-1.9859,-1.9677,-2.0692,-2.1546,-2.2007,-2.2556,-2.316,-2.3886,-2.4189,-2.4528,-2.4983,-2.4992,-2.5065,-2.5161,-2.5065,-2.4778,-2.4349,-2.4098,-2.3354,-2.2296,-2.1757,-2.1044,-2.0362,-2.0917,-2.0272,-1.8801,-1.7827,-1.7206,-1.6972,-1.7489,-1.7746,-1.7861,-1.7684,-1.7735,-1.768,-1.6733,-1.6308,-1.5909,-1.4741,-1.417,-1.3938,-1.3974,-1.3995,-1.3961,-1.4017,-1.3915,-1.3774,-1.3774,-1.3627,-1.3447,-1.3447,-1.3134,-1.2739,-1.2254,-1.1657,-1.1056,-1.0399,-1.0555,-1.0641,-1.016,-1.0494,-1.0775,-1.0688,-1.0768,-1.0801,-1.0613,-1.0593,-1.0546,-1.0445,-0.999,-0.9639,-0.9532,-0.9072,-0.8758,-0.8657,-0.829,-0.7912,-0.7592,-0.6834,-0.6164,0.0,0.0,0.0,0.0,0.0,0.0,0.0,0.0,0.0,0.0,0.0,0.0,0.0,0.0,0.0,0.0,0.0,0.0,0.0,0.0,0.0,0.0,0.0,0.0,0.0,0.0,-1.9552,-2.0413,-2.1296,-2.1551,-2.0772,-2.1298,-2.1632,-2.1504,-2.2236,-2.2931,-2.3489,-2.3773,-2.428,-2.4959,-2.4977,-2.5221,-2.5617,-2.5488,-2.5488,-2.5617,-2.5052,-2.4613,-2.4167,-2.3419,-2.2453,-2.1377,-2.0976,-2.0416,-1.9797,-1.9797,-1.9324,-1.8578,-1.7981,-1.7442,-1.7152,-1.775,-1.8006,-1.7976,-1.7759,-1.7656,-1.7292,-1.5922,-1.5765,-1.5959,-1.4765,-1.4382,-1.4422,-1.4616,-1.4529,-1.4402,-1.4496,-1.4376,-1.4208,-1.4108,-1.3935,-1.3753,-1.3753,-1.352,-1.3267,-1.2998,-1.2345,-1.1683,-1.1136,-1.1323,-1.141,-1.0922,-1.1182,-1.1289,-1.1029,-1.0995,-1.0914,-1.0626,-1.0593,-1.0593,-1.0593,-1.0057,-0.9715,-0.9715,-0.9132,-0.8804,-0.8804,-0.8343,-0.8012,-0.7912,-0.7047,-0.6299,-0.5694,0.0,0.0,0.0,0.0,0.0,0.0,0.0,0.0,0.0,0.0,0.0,0.0,0.0,0.0,0.0,0.0,0.0,0.0,0.0,0.0,0.0,0.0,0.0,-1.7193,-1.9472,-2.1016,-2.0655,-2.2215,-2.2936,-2.1906,-2.251,-2.3142,-2.3526,-2.3553,-2.395,-2.4757,-2.4803,-2.4986,-2.5329,-2.5338,-2.5521,-2.5914,-2.5539,-2.5539,-2.5861,-2.4341,-2.3028,-2.1872,-2.0407,-1.9159,-1.8043,-1.7775,-1.7635,-1.7582,-1.7582,-1.7582,-1.7759,-1.953,-1.8895,-1.7242,-1.8965,-1.9617,-1.9601,-1.9601,-1.9421,-1.8933,-1.7678,-1.7074,-1.6663,-1.5386,-1.5035,-1.5035,-1.5035,-1.5028,-1.4955,-1.4609,-1.4529,-1.4449,-1.4155,-1.4088,-1.4088,-1.4088,-1.382,-1.3527,-1.3267,-1.3005,-1.261,-1.202,-1.1919,-1.1784,-1.1496,-1.1415,0.0,-1.1056,-1.1009,-1.0895,-1.0633,-1.0593,-1.0593,-1.0593,-1.0057,-0.9715,-0.9715,-0.9132,-0.8804,-0.8804,-0.853,-0.823,-0.7899,-0.7061,-0.6326,-0.5721,0.0,0.0,0.0,0.0,0.0,0.0,0.0,0.0,0.0,0.0,0.0,0.0,0.0,0.0,0.0,0.0,0.0,0.0,0.0,0.0,0.0,-1.7669,-1.924,-1.9525,-2.0937,-2.2143,-2.2639,-2.3687,-2.4288,-2.3969,-2.4409,-2.4757,-2.4858,-2.4867,-2.4968,-2.5197,-2.5267,-2.5006,-2.4525,-2.4533,-2.4284,-2.3834,-2.3742,-2.3742,-2.3834,-2.3402,-2.3021,-2.2664,-2.172,-2.0703,-1.9621,-1.901,-1.8304,-1.7582,-1.7582,-1.7582,-1.7621,-1.8154,-1.7956,-1.7519,-1.7971,-1.8061,-1.7878,-1.7878,-1.7674,-1.7309,-1.6773,-1.6519,-1.6348,-1.5772,-1.5591,-1.5591,-1.5591,-1.5438,-1.5211,-1.4917,-1.4683,-1.4449,-1.4155,-1.4088,-1.4088,-1.4088,-1.4021,-1.3814,-1.3307,-1.314,-1.2893,-1.2285,-1.2184,-1.2158,-1.2071,-1.2058,0.0,-1.1698,-1.1436,-1.1196,-1.0909,-1.072,-1.0593,-1.0593,-1.0057,-0.9715,-0.9715,-0.9132,-0.8804,-0.8804,-0.853,-0.8154,-0.7631,-0.7377,-0.6913,0.0,0.0,0.0,0.0,0.0,0.0,0.0,0.0,0.0,0.0,0.0,0.0,0.0,0.0,0.0,0.0,0.0,0.0,0.0,0.0,0.0,0.0,-1.9399,-2.09,-2.1632,-2.2346,-2.3023,-2.3721,-2.4225,-2.4583,-2.4766,-2.4986,-2.5197,-2.5414,-2.4936,-2.4737,-2.4898,-2.4421,-2.3997,-2.3706,-2.3714,-2.3491,-2.2974,-2.2974,-2.2974,-2.2974,-2.2474,-2.2248,-2.2225,-2.1125,-2.0223,0.0,-1.9069,-1.8395,-1.7595,-1.7722,-1.7702,0.0,0.0,0.0,0.0,0.0,-1.7475,-1.738,-1.738,-1.7192,-1.6867,-1.6744,-1.6522,-1.6239,-1.6066,-1.5925,-1.5784,-1.5784,-1.5705,-1.5511,-1.5217,-1.493,-1.4629,-1.4335,-1.4175,-1.4088,-1.4088,-1.4088,-1.3948,-1.344,0.0,0.0,-1.2592,-1.2385,-1.2305,-1.2305,-1.2305,-1.2198,-1.194,-1.1717,-1.1456,-1.1035,-1.0874,-1.0727,-1.06,-1.0164,0.0,0.0,0.0,-0.8878,-0.8637,-0.8489,0.0,0.0,0.0,0.0,0.0,0.0,0.0,0.0,-0.6133,-0.5949,0.0,0.0,0.0,0.0,0.0,0.0,0.0,0.0,0.0,0.0,0.0,0.0,0.0,0.0,0.0,0.0,-2.1046,-2.2272,-2.3343,-2.3535,-2.3749,-2.4156,-2.4248,-2.4422,-2.4748,-2.4756,-2.4896,-2.5252,-2.4184,-2.3699,-2.4076,0.0,0.0,0.0,0.0,-2.2757,-2.2587,-2.258,-2.258,-2.2587,-2.1509,-2.101,-2.0938,-1.9558,-1.8784,-1.8537,-1.847,-1.8136,-1.7655,-1.7896,-1.7829,-1.7582,-1.7582,-1.7582,-1.7582,-1.7582,-1.7582,0.0,0.0,0.0,0.0,-1.7213,-1.6844,-1.6415,-1.6382,-1.6112,-1.5879,-1.5879,-1.5804,-1.5758,-1.5471,-1.5204,-1.493,-1.4596,-1.4322,-1.4128,-1.4095,-1.4088,-1.4001,-1.366,-1.36,-1.3427,-1.2938,-1.2589,-1.2338,-1.2305,-1.2305,-1.2204,-1.1986,-1.1926,-1.1705,-1.1149,0.0,0.0,-1.0667,-1.0307,-1.0083,-1.0083,-0.957,-0.9031,-0.8569,-0.8549,-0.8383,-0.8059,-0.8085,-0.8006,-0.7814,-0.7974,-0.796,-0.7794,-0.6713,-0.6434,0.0,0.0,0.0,0.0,0.0,0.0,0.0,0.0,0.0,0.0,0.0,0.0,0.0,0.0,0.0,-2.0292,-2.1925,-2.3224,-2.3462,-2.3831,-2.411,-2.4192,-2.4505,-2.4693,-2.4776,-2.4499,-2.4338,-2.4407,-2.3601,-2.3134,-2.3207,-2.2983,0.0,-2.1566,-2.1574,-2.106,-2.0104,-2.0104,-2.0104,-2.0104,0.0,0.0,-1.9751,-1.9172,-1.8891,-1.8818,-1.8282,-1.8015,-1.7889,-1.7749,-1.7635,-1.7582,-1.7582,-1.7582,-1.7582,-1.7582,-1.7582,-1.7582,-1.7582,-1.7549,-1.7514,-1.728,-1.7125,-1.6985,-1.6693,-1.642,0.0,-1.6186,-1.6012,-1.5758,-1.5471,-1.5351,-1.5177,-1.4649,-1.4476,-1.4369,-1.4135,-1.4088,-1.4001,-1.366,-1.36,-1.3493,-1.318,-1.2904,-1.2616,-1.2338,-1.2305,-1.2278,-1.2225,-1.2011,-1.1859,-1.1745,-1.1276,-1.0969,-1.0915,-1.0421,-1.0083,-1.0083,-0.9793,-0.9546,-0.9467,-0.9461,-0.9292,-0.8964,-0.9225,-0.9108,-0.8594,-0.882,-0.8789,-0.8492,-0.7839,-0.715,0.0,0.0,0.0,0.0,0.0,0.0,0.0,0.0,0.0,0.0,0.0,-1.7513,-1.8531,0.0,-2.1055,-2.1861,-2.2831,-2.3563,-2.3822,-2.4073,-2.4003,-2.3438,-2.3524,-2.3507,-2.3169,-2.3469,-2.3847,-2.4224,-2.3272,-2.2784,-2.2966,-2.1851,-2.0888,-2.0328,-2.027,-1.9989,-1.9424,-1.9424,-1.9424,-1.9424,-1.9424,-1.9424,-1.9366,-1.9212,-1.8985,-1.8698,-1.8495,-1.8175,-1.7802,-1.7649,-1.7582,-1.7582,-1.7582,-1.7582,-1.7582,-1.7582,-1.7582,-1.7582,-1.7582,-1.7582,-1.7555,-1.7467,-1.732,-1.7172,-1.7025,-1.672,-1.646,-1.6362,-1.6166,-1.5985,-1.5691,-1.5504,-1.5324,-1.503,-1.4736,-1.4482,-1.4335,-1.4188,-1.4041,-1.3895,-1.3868,-1.3733,-1.344,-1.33,-1.3039,-1.263,-1.2563,-1.2472,-1.2318,-1.2178,-1.2067,-1.1919,-1.1476,-1.1149,-1.1002,-1.0588,-1.0274,-1.0097,-0.998,-0.9833,-0.9722,-0.9715,-0.9613,-0.9466,-0.952,-0.9375,-0.8991,-0.9073,-0.9036,-0.8896,-0.8638,-0.7988,0.0,0.0,0.0,0.0,0.0,0.0,0.0,-1.5505,-1.6257,-1.7468,-1.8623,-1.9714,-2.0686,-2.1495,-2.2364,-2.3334,-2.3563,-2.3776,-2.4156,-2.4202,-2.3795,-2.2627,-2.2677,-2.2536,-2.1794,-2.2567,-2.3331,-2.4001,-2.28,-2.2284,-2.2855,-2.0687,-1.954,-1.9764,-1.954,-1.9424,-1.9424,-1.9424,-1.9424,-1.9424,-1.9424,-1.9424,-1.9424,-1.9424,-1.9105,-1.8664,-1.8784,-1.8397,-1.7669,-1.7609,-1.7582,-1.7582,-1.7582,-1.7582,-1.7582,-1.7582,-1.7582,-1.7582,-1.7582,-1.7582,-1.7582,-1.7582,-1.7474,-1.7286,-1.7286,-1.7027,-1.6734,-1.644,-1.6319,-1.6206,-1.5905,-1.5658,-1.5464,-1.5411,-1.5037,-1.4656,-1.4543,-1.4335,-1.4155,-1.4095,-1.4088,-1.4008,-1.3726,-1.3686,-1.3507,-1.2884,-1.2784,-1.2677,-1.2338,-1.2305,-1.2211,-1.2013,-1.169,-1.1369,-1.1022,-1.0814,-1.0553,-1.0221,-1.02,-1.0094,-0.9889,-0.9883,-0.9883,-0.9883,-0.9705,-0.9551,-0.936,-0.9248,-0.918,-0.9179,-0.9179,-0.863,-1.413,-1.4057,-1.4598,-1.5258,-1.5735,-1.6572,0.0,-1.9036,-1.9173,-2.0393,-2.1319,-2.1916,-2.2053,-2.2748,-2.3334,-2.3471,-2.3849,-2.4156,-2.4192,-2.4202,-2.3795,-2.2627,-2.3388,-2.3555,-2.2477,-2.2792,-2.3022,-2.3159,-2.1713,-2.1297,-2.2435,-2.0509,-1.9873,-2.0945,-1.9931,-1.9424,-1.9424,-1.9424,-1.9424,-1.9424,-1.9424,-1.9424,-1.9424,-1.9424,-1.939,-1.9245,-1.8751,-1.833,-1.7916,-1.7695,-1.7582,-1.7582,-1.7582,-1.7582,-1.7582,-1.7582,-1.7582,-1.7582,-1.7582,-1.7582,-1.7582,-1.7582,-1.7562,-1.7535,-1.7535,-1.738,-1.7092,-1.674,-1.6473,-1.6206,-1.5905,-1.5758,-1.5718,-1.5458,-1.5344,-1.5157,-1.4636,-1.4496,-1.4396,-1.4135,-1.4088,-1.4075,-1.4041,-1.4041,-1.3741,-1.2918,-1.2784,-1.2677,-1.2338,-1.2305,-1.2291,-1.2258,-1.1997,-1.1597,-1.1042,-1.0962,-1.0854,-1.0559,-1.0546,-1.0526,-1.0499,-1.0492,-1.0492,-1.0492,-1.0492,-1.0273,-0.992,-0.9888,-0.9749,-0.9468,-0.9468,-0.8736,-1.6752,-1.6661,-1.6718,-1.7312,-1.8109,-1.8962,-1.971,-2.0296,-2.0924,-2.1667,-2.2419,-2.2986,-2.2986,-2.351,-2.3895,0.0,-2.4091,-2.4202,-2.4202,-2.395,-2.3394,-2.2283,-2.2943,-2.2939,-2.1667,-2.2257,-2.2801,-2.3014,-2.2609,-2.2383,-2.2418,-2.1161,-2.0385,-2.0162,-1.9649,-1.9424,-1.9424,-1.9424,-1.9424,-1.9424,-1.9424,-1.9424,-1.9424,-1.9424,-1.9178,-1.8844,-1.8597,-1.8223,-1.7776,-1.7816,-1.7736,-1.7582,-1.7582,-1.7582,-1.7582,-1.7582,-1.7582,-1.7582,-1.7582,-1.7582,-1.7582,-1.7582,-1.7582,-1.7582,-1.7582,-1.7434,-1.7139,-1.6787,-1.65,-1.6206,-1.5905,-1.5784,-1.5751,-1.5678,-1.5518,-1.5331,-1.5084,-1.4763,-1.4482,-1.4362,-1.4202,-1.4088,-1.4088,-1.4088,-1.3841,-1.3126,-1.3019,-1.2846,-1.2365,-1.2305,-1.2238,-1.2064,-1.198,-1.1739,-1.1283,-1.1089,-1.0942,-1.0854,-1.0687,-1.0667,-1.0841,-1.068,-1.0673,-1.0841,-1.0456,-1.0174,-0.9983,-0.9492,-0.9168,-0.9041,-0.9181,-0.8497,-1.8219,-1.8412,-1.855,-1.8914,-2.0044,-2.09,-2.0616,-2.1403,-2.2236,-2.2419,-2.3004,-2.3462,-2.3352,-2.362,-2.3859,-2.3969,-2.3987,-2.4073,-2.4183,-2.3804,-2.3199,-2.2442,-2.2655,-2.2538,-2.1695,-2.2314,-2.2828,-2.2946,-2.2959,-2.2737,-2.2267,-2.1189,-2.0351,-1.9931,-1.9591,-1.9424,-1.9424,-1.9424,-1.9424,-1.9424,-1.9424,-1.9424,-1.9424,-1.9424,-1.9132,-1.8731,-1.8644,-1.8317,-1.7842,-1.7969,-1.7849,-1.7582,-1.7582,-1.7582,-1.7582,-1.7582,-1.7582,-1.7582,-1.7582,-1.7582,-1.7582,-1.7582,-1.7582,-1.7582,-1.7582,-1.7435,-1.7259,-1.6914,-1.662,-1.6326,-1.6025,-1.5892,-1.5784,-1.5784,-1.5665,-1.5491,-1.5418,-1.4997,-1.4623,-1.4536,-1.4282,-1.4088,-1.4088,-1.4088,-1.3915,-1.3407,-1.326,-1.2986,-1.2385,-1.2305,-1.2225,-1.2047,-1.2027,-1.187,-1.157,-1.1356,-1.1162,-1.1002,-1.0827,-1.0807,-1.0982,-1.0821,-1.0847,-1.1109,-1.0574,-1.0276,-1.0243,-0.9332,-0.8874,-0.8811,-0.8772,-0.8212,-1.7523,-1.8385,-1.9366,-1.9747,-2.1046,-2.2217,-2.2208,-2.2849,-2.3334,-2.2968,-2.3215,-2.338,-2.2995,-2.2931,-2.3068,-2.3453,-2.3508,-2.3703,-2.4146,-2.3804,-2.3499,-2.3441,-2.3151,-2.3021,0.0,-2.3468,-2.3233,-2.2568,-2.1789,-2.1507,-2.1902,-2.003,-1.9628,-2.111,-1.9989,-1.9424,-1.9424,-1.9424,-1.9424,-1.9424,-1.9424,-1.9424,-1.9424,-1.9424,-1.9417,-1.9325,-1.9038,-1.8738,-1.8444,-1.8109,-1.7862,-1.7582,-1.7582,-1.7582,-1.7582,-1.7582,-1.7582,-1.7582,-1.7582,-1.7582,-1.7582,-1.7582,-1.7582,-1.7582,-1.7582,-1.7575,-1.7508,-1.7266,-1.6921,-1.6627,-1.6333,-1.6046,-1.5784,-1.5784,-1.5771,-1.5738,-1.5458,-1.5164,-1.4908,-1.4576,-1.4282,-1.4088,-1.4088,-1.4088,-1.3981,-1.3633,-1.3353,-1.2986,-1.2385,-1.2305,-1.2298,-1.2291,-1.2285,-1.2171,-1.1913,-1.1886,-1.1631,-1.1029,-1.0982,-1.0982,-1.0995,-1.0982,-1.1116,-1.1375,-1.1163,-1.0985,-1.0861,-0.9881,-0.9289,-0.9079,-0.8312,-0.7964,-1.885,-1.9797,-2.0668,-2.1346,-2.2291,-2.3087,-2.3087,-2.3297,-2.3453,-2.3325,-2.2968,-2.2648,-2.2519,-2.2492,-2.262,-2.3041,-2.3325,-2.3636,-2.4146,-2.3804,-2.3398,-2.3133,-2.2986,0.0,0.0,0.0,0.0,-2.2551,-2.2502,-2.1966,-2.0762,-2.0342,-2.0061,-2.004,-1.9597,-1.9424,-1.9424,-1.9424,-1.9424,-1.9424,-1.9424,-1.9424,-1.9424,-1.9424,-1.9259,-1.9078,-1.9172,-1.8831,-1.8203,-1.8303,-1.8043,-1.7582,-1.7582,-1.7582,-1.7582,-1.7582,-1.7582,-1.7582,-1.7582,-1.7582,-1.7582,-1.7582,-1.7582,-1.7582,-1.7582,-1.7501,-1.7326,-1.7233,-1.6851,-1.6393,-1.6299,-1.6052,-1.5784,-1.5784,-1.5784,-1.5758,-1.5705,-1.5304,-1.4981,-1.4836,-1.4422,-1.4088,-1.4088,-1.4088,-1.3921,-1.3393,-1.31,-1.2797,-1.2351,-1.2305,-1.2305,-1.2305,-1.2305,-1.2265,-1.2164,-1.202,-1.1819,-1.1625,-1.139,-1.1369,-1.1598,-1.1383,-1.1101,-1.0739,-1.0358,-0.9817,-0.912,-0.827,-0.7834,-0.7766,-0.7686,-0.7376,-2.0021,-2.0934,-2.1741,-2.251,-2.3215,-2.3721,-2.3526,-2.3499,-2.337,-2.294,-2.2318,-2.176,-2.1476,-2.1302,-2.1431,-2.2135,-2.2584,-2.3087,-2.384,-2.3712,-2.3398,-2.3151,-2.2995,-2.2959,0.0,0.0,0.0,-2.1988,-2.2179,-2.1522,-1.9633,-1.975,-1.9787,-1.941,-1.9424,-1.9424,-1.9424,-1.9424,-1.9424,-1.9424,-1.9424,-1.9424,-1.9424,-1.9424,-1.9265,-1.9092,-1.9285,-1.8925,-1.8223,-1.841,-1.813,-1.7582,-1.7582,-1.7582,-1.7582,-1.7582,-1.7582,-1.7582,-1.7582,-1.7582,-1.7582,-1.7582,-1.7582,-1.7582,-1.7582,-1.7507,-1.7353,-1.7353,-1.7012,-1.661,-1.6453,-1.6206,-1.5965,-1.5804,-1.5784,-1.5784,-1.5784,-1.5451,-1.5129,-1.5028,-1.4569,-1.4208,-1.4108,-1.4088,-1.3921,-1.344,-1.3106,-1.2804,-1.2351,-1.2305,-1.2305,-1.2305,-1.2305,-1.2305,-1.2305,-1.2131,-1.202,-1.1913,-1.169,-1.167,-1.1899,-1.1361,-1.0893,-1.0536,-0.9807,-0.9119,-0.8469,-0.7649,-0.7226,-0.723,-0.7122,-0.6949,-2.0952,-2.1768,-2.2529,-2.3325,-2.3849,-2.4073,-2.3581,-2.3435,-2.3041,-2.187,-2.1291,-2.0714,-1.9875,-1.9503,-1.9659,-2.0851,-2.1412,-2.2144,-2.3361,-2.3526,-2.3517,0.0,0.0,0.0,0.0,0.0,0.0,-2.1116,0.0,-2.0196,-1.8547,-1.8484,-1.8751,-1.9383,-1.9417,-1.9424,-1.9424,-1.9424,-1.9424,-1.9424,-1.9424,-1.9424,-1.9424,-1.9352,-1.9345,-1.9345,-1.939,-1.8998,-1.847,-1.847,-1.8123,-1.7582,-1.7582,-1.7582,-1.7582,-1.7582,-1.7582,-1.7582,-1.7582,-1.7582,-1.7582,-1.7582,-1.7582,-1.7582,-1.7582,-1.7582,-1.7582,-1.7582,-1.7427,-1.7132,-1.678,-1.6486,-1.6199,-1.5899,-1.5784,-1.5784,-1.5784,-1.5605,-1.5311,-1.5082,-1.4736,-1.4429,-1.4135,-1.4088,-1.3988,-1.3646,-1.3367,-1.3013,-1.2405,-1.2311,-1.2305,-1.2305,-1.2305,-1.2305,-1.2305,-1.2305,-1.2184,-1.1946,-1.1855,-1.1855,-1.1855,-1.0863,-1.0427,-1.0628,-0.9518,-0.8922,-0.8851,-0.7902,-0.7446,-0.7407,-0.6644,-0.6721,-2.1796,-2.2565,-2.3306,-2.3868,-2.3849,-2.3675,-2.3517,-2.2556,-2.1557,-2.0909,-1.9756,-1.8641,-1.7825,-1.833,-1.9164,-2.004,-2.1284,0.0,-2.3822,-2.3996,0.0,-2.3535,0.0,-2.3767,-2.3517,-2.3822,0.0,0.0,-2.1344,-2.0098,-1.8245,-1.837,-1.8657,-1.9025,-1.9252,-1.9424,-1.9424,-1.9424,-1.9424,-1.9424,-1.9424,-1.9424,-1.9417,-1.9138,-1.9038,-1.9025,-1.8811,-1.8504,-1.8109,-1.8109,-1.7929,-1.7582,-1.7582,-1.7582,-1.7582,-1.7582,-1.7582,-1.7582,-1.7582,-1.7582,-1.7582,-1.7582,-1.7582,-1.7582,-1.7582,-1.7582,-1.7582,-1.7582,-1.7427,-1.7132,-1.678,-1.6486,-1.6199,-1.5899,-1.5784,-1.5784,-1.5784,-1.5605,-1.5378,-1.5297,-1.487,-1.4429,-1.4135,-1.4088,-1.3988,-1.3646,-1.354,-1.3313,-1.275,-1.2438,-1.2305,-1.2305,-1.2305,-1.2305,-1.2305,-1.2305,-1.2271,-1.2198,-1.1475,-1.1064,-1.1064,-1.0101,-0.9273,-0.8571,-0.8275,-0.7744,-0.6984,-0.6718,-0.6606,-0.6606,-0.6416,-0.6412,-2.2648,-2.3327,-2.3822,-2.3868,-2.3712,-2.3261,-2.2373,-2.1458,-2.0484,-1.9191,-1.8219,-1.7284,-1.6294,-1.7101,-1.8183,-1.8969,-2.0631,-2.2226,-2.3455,-2.3981,-2.4119,0.0,-2.4064,0.0,-2.3831,-2.4073,-2.3746,0.0,-2.1497,-2.026,-1.881,-1.8469,-1.849,-1.8911,-1.9085,-1.9232,-1.9424,-1.9239,-1.9239,-1.9424,-1.9424,-1.9424,-1.9417,-1.9058,-1.8925,-1.8911,0.0,-1.8323,-1.7995,-1.7995,-1.7862,-1.7582,-1.7582,-1.7582,-1.7582,-1.7582,-1.7582,-1.7582,-1.7582,-1.7582,-1.7582,-1.7582,-1.7582,-1.7582,-1.7582,-1.7582,-1.7582,-1.7582,-1.7514,-1.7293,-1.6814,-1.6587,-1.6353,-1.5932,-1.5784,-1.5784,-1.5784,-1.5705,-1.5545,-1.5424,-1.4923,-1.4469,-1.4302,-1.4168,-1.4035,-1.3861,-1.3686,-1.348,-1.3186,-1.2766,-1.2445,-1.2318,-1.2305,-1.2305,-1.2305,-1.2305,-1.215,-1.1781,-1.1248,-1.072,-1.0303,-0.9291,-0.8466,-0.7821,-0.7365,-0.6872,-0.63,-0.63,-0.63,-0.63,-0.63,-0.63,-2.3471,-2.3877,-2.4101,-2.3648,-2.3416,-2.2831,-2.0909,-2.031,-1.9476,-1.7211,-1.6615,-1.6166,-1.5065,-1.5854,-1.6991,-1.7926,-1.9714,-2.1438,-2.2785,-2.3629,-2.4137,-2.4192,-2.4202,-2.4202,-2.4202,-2.4202,-2.3795,-2.2778,-2.1599,-2.0548,-1.9691,-1.8595,-1.8242,-1.8844,-1.8865,-1.8991,-1.9303,-1.8998,-1.9011,-1.9305,-1.9305,-1.9305,-1.9299,-1.9005,-1.8844,-1.8791,0.0,0.0,-1.7935,-1.7935,-1.7822,-1.7582,-1.7582,-1.7582,-1.7582,-1.7582,-1.7582,-1.7582,-1.7582,-1.7582,-1.7582,-1.7582,-1.7582,-1.7582,-1.7582,-1.7582,-1.7582,-1.7582,-1.7582,-1.7448,-1.686,-1.6707,-1.6553,-1.5917,-1.5784,-1.5784,-1.5784,-1.5784,-1.5745,-1.5451,-1.4983,-1.4609,-1.4492,-1.4309,-1.4128,-1.4095,-1.3868,-1.3646,-1.3606,-1.3153,-1.273,-1.2392,-1.2365,-1.2345,-1.2305,-1.2187,-1.1855,-1.1149,-1.0844,-1.0331,-0.9451,-0.8437,-0.7791,-0.7628,-0.6767,-0.63,-0.63,-0.63,-0.63,-0.63,-0.63,-0.63,-2.3932,-2.4146,-2.4101,-2.3648,-2.2986,-2.2181,-2.0824,-1.9219,-1.7614,-1.6193,-1.5102,-1.424,-1.3708,-1.4598,-1.601,-1.7789,-1.9216,-2.0863,-2.3078,-2.3517,-2.3776,-2.4165,-2.4202,-2.4202,-2.4202,-2.4202,0.0,0.0,0.0,-2.0447,-1.936,-1.8485,-1.8149,-1.8557,-1.8564,-1.8591,-1.8644,-1.8591,-1.8711,-1.8998,-1.8998,-1.8998,-1.8991,-1.8698,-1.843,-1.8129,0.0,0.0,-1.7662,-1.7662,-1.7629,-1.7582,-1.7582,-1.7582,-1.7582,-1.7582,-1.7582,-1.7582,-1.7582,-1.7582,-1.7582,-1.7582,-1.7582,-1.7582,-1.7582,-1.7582,-1.7582,-1.7582,-1.7582,-1.7448,-1.686,-1.6707,-1.6553,-1.5917,-1.5784,-1.5784,-1.5784,-1.5784,-1.5745,-1.5451,-1.5311,-1.509,-1.4603,-1.4476,-1.4362,-1.4122,-1.4041,-1.3921,-1.3633,-1.3347,-1.3013,-1.2737,-1.2703,-1.2603,-1.2325,-1.1706,-1.126,-1.1111,-0.9561,-0.8578,-0.8513,-0.7289,-0.6663,-0.6709,-0.6436,-0.63,-0.63,-0.63,-0.63,-0.63,-0.63,-0.63,-2.4091,-2.4202,-2.4055,-2.3343,-2.273,-2.1742,-1.9701,-1.8192,-1.6661,-1.4818,-1.3983,-1.3387,-1.2799,-1.3992,-1.5487,-1.667,-1.8054,-1.9719,-2.1916,-2.2419,-2.2858,-2.373,-2.4073,-2.4202,-2.4202,-2.4202,-2.4202,0.0,0.0,-2.068,-2.0107,-1.8769,-1.8049,-1.8237,-1.8257,-1.8337,-1.849,-1.8337,-1.8484,-1.8925,-1.8925,-1.8925,-1.8911,-1.8624,-1.833,-1.7975,-1.7716,0.0,-1.7582,-1.7582,-1.7582,-1.7582,-1.7582,-1.7582,-1.7582,-1.7582,-1.7582,-1.7582,-1.7582,-1.7582,-1.7582,-1.7582,-1.7582,-1.7582,-1.7582,-1.7582,-1.7582,-1.7582,-1.7475,-1.7306,-1.682,-1.6593,-1.6373,-1.5932,-1.5784,-1.5784,-1.5784,-1.5784,-1.5744,-1.5651,-1.5504,-1.5304,-1.5023,-1.4723,-1.4476,-1.4335,-1.4182,-1.4035,-1.3895,-1.3754,-1.3494,-1.3079,-1.2878,-1.2593,-1.2068,-1.1548,-1.0944,-1.0144,-0.9094,-0.8312,-0.7846,-0.7086,-0.664,-0.659,-0.6525,-0.6488,-0.6488,-0.6488,-0.6488,-0.6488,-0.6488,-0.6488,-2.4091,-2.4202,-2.4009,-2.3105,-2.2465,-2.1346,-1.8576,-1.7229,-1.5881,-1.3626,-1.3094,-1.2891,-1.233,-1.3534,-1.4818,-1.557,-1.6844,-1.8495,-2.0677,-2.1376,-2.2144,-2.3352,-2.3904,0.0,-2.4202,-2.4202,0.0,0.0,0.0,0.0,-2.0218,-1.8759,-1.7889,-1.7923,-1.7936,-1.8063,-1.8297,-1.8063,-1.8155,-1.8738,-1.8738,-1.8738,-1.8724,-1.8497,-1.823,-1.7876,-1.7689,0.0,0.0,-1.7582,-1.7582,-1.7582,-1.7582,-1.7582,-1.7582,-1.7582,-1.7582,-1.7582,-1.7582,-1.7582,-1.7582,-1.7582,-1.7582,-1.7582,-1.7582,-1.7582,-1.7582,-1.7582,-1.7427,-1.7132,-1.678,-1.6486,-1.6199,-1.5899,-1.5784,-1.5784,-1.5784,-1.5784,-1.5784,-1.5784,-1.5645,-1.5471,-1.5404,-1.501,-1.4663,-1.4536,-1.4322,-1.4155,-1.4095,-1.4088,-1.3915,-1.3447,-1.2962,-1.2452,-1.1862,-1.127,-1.0446,-0.9263,-0.8832,-0.8279,-0.7458,-0.7168,-0.6919,-0.6749,-0.6719,-0.6702,-0.6702,-0.6702,-0.6702,-0.6702,-0.6702,-0.6702,-2.4091,-2.4202,-2.4009,-2.3105,-2.2034,-2.0576,-1.8119,-1.6367,-1.4781,-1.3102,-1.2459,-1.2303,-1.2588,-1.279,-1.3534,-1.5418,-1.6138,-1.7404,-2.0191,-2.1202,-2.2144,-2.3352,-2.3904,0.0,-2.4202,-2.4202,0.0,0.0,0.0,0.0,-1.7957,-1.7714,-1.7622,-1.7622,-1.7622,-1.7635,-1.7662,-1.7642,-1.7796,-1.8075,-1.8075,-1.8075,-1.8075,-1.8042,-1.7923,-1.7622,0.0,0.0,0.0,-1.7582,-1.7582,-1.7582,-1.7582,-1.7582,-1.7582,-1.7582,-1.7582,-1.7582,-1.7582,-1.7582,-1.7582,-1.7582,-1.7582,-1.7582,-1.7582,-1.7582,-1.7582,-1.7582,-1.7427,-1.7132,-1.678,-1.6486,-1.6199,-1.5899,-1.5784,-1.5784,-1.5784,-1.5784,-1.5784,-1.5784,-1.5758,-1.5705,-1.5444,-1.5351,-1.513,-1.4603,-1.4496,-1.4389,-1.4122,-1.4088,-1.4068,-1.4015,-1.3026,-1.219,-1.1812,-1.0312,-0.9335,-0.9195,-0.8341,-0.7761,-0.7573,-0.7268,-0.7014,-0.6905,-0.677,-0.6702,-0.6702,-0.6702,-0.6702,-0.6702,-0.6702,-0.6702,-2.3547,-2.3785,-2.3648,-2.305,-2.1797,-2.0182,-1.799,-1.6257,-1.4634,-1.3029,-1.2376,-1.2147,-1.2303,-1.2533,-1.3111,-1.4425,-1.4744,-1.567,-1.8018,-1.9045,-2.0149,-2.1824,-2.2878,-2.362,0.0,0.0,-2.3438,0.0,0.0,0.0,-1.7701,-1.7762,-1.7776,-1.7589,-1.7582,-1.7582,-1.7582,-1.7582,-1.7736,-1.7995,-1.7995,-1.7995,-1.7995,-1.7995,-1.7876,-1.7582,0.0,0.0,0.0,-1.7582,-1.7582,-1.7582,-1.7582,-1.7582,-1.7582,-1.7582,-1.7582,-1.7582,-1.7582,-1.7582,-1.7582,-1.7582,-1.7582,-1.7582,-1.7582,-1.7582,-1.7582,-1.7582,-1.7241,-1.6854,-1.6734,-1.6353,-1.5979,-1.5811,-1.5784,-1.5784,-1.5784,-1.5784,-1.5784,-1.5784,-1.5784,-1.5792,-1.5678,-1.5511,-1.5317,-1.5084,-1.4743,-1.4476,-1.4362,-1.4195,-1.387,-1.3307,-1.2685,-1.2082,-1.1545,-1.0028,-0.8968,-0.8623,-0.7955,-0.7559,-0.7538,-0.7256,-0.708,-0.7011,-0.6953,-0.692,-0.692,-0.692,-0.692,-0.692,-0.692,-0.692,-2.2666,-2.3142,-2.3197,-2.2675,-2.1321,-1.9632,-1.7605,-1.59,-1.4313,-1.2827,-1.2294,-1.2101,-1.2101,-1.233,-1.2744,-1.3433,-1.3755,-1.4588,-1.6624,-1.7715,-1.8999,-2.0888,-2.1943,-2.2867,0.0,-2.3453,-2.2568,0.0,0.0,0.0,-1.7655,-1.7822,-1.7903,-1.7595,-1.7582,-1.7582,-1.7582,-1.7582,-1.7695,-1.7856,-1.7856,-1.7856,-1.7856,-1.7856,-1.7789,-1.7582,0.0,0.0,0.0,-1.7582,-1.7582,-1.7582,-1.7582,-1.7582,-1.7582,-1.7582,-1.7582,-1.7582,-1.7582,-1.7582,-1.7582,-1.7582,-1.7582,-1.7582,-1.7582,-1.7582,-1.7582,-1.7582,-1.711,-1.6567,-1.6444,-1.6091,-1.573,-1.5778,-1.5784,-1.5784,-1.5737,-1.5778,-1.5784,-1.5737,-1.5778,-1.5784,-1.5784,-1.5658,-1.5491,-1.5411,-1.497,-1.4623,-1.4529,-1.4005,-1.344,-1.279,-1.2024,-1.1404,-1.0923,-0.9628,-0.8664,-0.8233,-0.7856,-0.7595,-0.7507,-0.7323,-0.7187,-0.7095,-0.7187,-0.7187,-0.7095,-0.7187,-0.7187,-0.7095,-0.7095,-0.7095,-2.1485,-2.23,-2.2721,-2.1906,-2.0479,-1.8788,-1.6789,-1.5065,-1.358,-1.2358,-1.2101,-1.2101,-1.2101,-1.2101,-1.2239,-1.2634,-1.3378,-1.4588,-1.6624,-1.7944,-1.9301,-2.0915,-2.144,-2.2025,-2.284,-2.1726,-2.0936,0.0,0.0,0.0,-1.7602,-1.7822,-1.7903,-1.7595,-1.7582,-1.7582,-1.7582,-1.7582,-1.7582,-1.7589,-1.7589,-1.7589,-1.7589,-1.7589,-1.7589,0.0,0.0,0.0,0.0,-1.7582,-1.7582,-1.7582,-1.7582,-1.7582,-1.7582,-1.7582,-1.7582,-1.7582,-1.7582,-1.7582,-1.7582,-1.7582,-1.7582,-1.7582,-1.7582,-1.7582,-1.7582,-1.7582,-1.6962,-1.6238,-1.5896,-1.5642,-1.554,-1.5737,-1.5784,-1.5737,-1.554,-1.5642,-1.573,-1.554,-1.5642,-1.5784,-1.5784,-1.5778,-1.5732,-1.5438,-1.515,-1.485,-1.4556,-1.3434,-1.2705,-1.2705,-1.102,-0.9941,-0.9903,-0.8851,-0.8197,-0.8201,-0.8028,-0.7768,-0.7507,-0.7507,-0.737,-0.7095,-0.737,-0.737,-0.7095,-0.737,-0.737,-0.7095,-0.7095,-0.7095,-1.9522,-2.0053,-2.0287,-1.9756,-1.866,-1.7284,-1.5817,-1.4653,-1.3562,-1.2349,-1.2101,-1.2101,-1.2101,-1.2101,-1.2505,-1.3727,-1.4139,-1.4919,-1.6661,-1.8183,-1.9512,-2.0576,-2.2291,-2.3492,0.0,0.0,0.0,0.0,0.0,0.0,-1.7602,-1.7822,-1.7903,-1.7595,-1.7582,-1.7582,-1.7582,-1.7582,-1.7582,-1.7582,-1.7582,-1.7582,-1.7582,-1.7582,0.0,0.0,0.0,0.0,0.0,-1.7582,-1.7582,-1.7582,-1.7582,-1.7582,-1.7582,-1.7582,-1.7582,-1.7582,-1.7582,-1.7582,-1.7582,-1.7582,-1.7582,-1.7582,-1.7582,-1.7582,-1.7489,-1.7088,-1.6503,-1.5977,-1.5905,-1.5698,-1.554,-1.5588,-1.5683,-1.573,-1.554,-1.5642,-1.573,-1.554,-1.554,-1.5588,-1.5588,-1.5588,-1.5609,-1.5658,-1.5444,-1.5157,-1.4863,-1.3762,-1.2638,-1.1817,-1.0636,-0.9903,-0.9903,-0.8855,-0.8201,-0.8201,-0.8028,-0.7768,-0.7507,-0.7507,-0.737,-0.7095,-0.7187,-0.7187,-0.7095,-0.7187,-0.7187,-0.7095,-0.7095,-0.7095,-1.7578,-1.832,-1.876,-1.8357,-1.7339,-1.6166,-1.512,-1.4121,-1.3194,-1.2285,-1.2101,-1.2101,-1.2101,-1.2101,-1.2432,-1.3424,-1.3855,-1.4616,-1.6221,-1.7834,-1.9384,-2.0763,-2.2593,0.0,0.0,-2.2355,0.0,0.0,0.0,0.0,0.0,-1.7762,-1.7782,-1.7589,-1.7582,-1.7582,-1.7582,-1.7582,-1.7582,-1.7582,-1.7582,-1.7582,-1.7582,-1.7582,0.0,0.0,0.0,0.0,0.0,-1.7582,-1.7582,-1.7582,-1.7582,-1.7582,-1.7582,-1.7582,-1.7529,-1.743,-1.743,-1.743,-1.743,-1.743,-1.743,-1.743,-1.7318,-1.7371,-1.7318,-1.6821,-1.6407,-1.6024,-1.5937,-1.5703,-1.5486,-1.5382,-1.5547,-1.5635,-1.5404,-1.5547,-1.5635,-1.554,-1.5493,-1.5493,-1.5493,-1.554,-1.5635,-1.5683,-1.5531,-1.5285,-1.5007,-1.3636,-1.2377,-1.1519,-1.0311,-0.9602,-0.9602,-0.8673,-0.8028,-0.794,-0.7716,-0.7544,-0.737,-0.7367,-0.7279,-0.7095,-0.7334,-0.7451,-0.7358,-0.7451,-0.7467,-0.7408,-0.7408,-0.7408,0.0,-1.6883,-1.7688,-1.7303,-1.6349,-1.5322,-1.4561,-1.3488,0.0,-1.2183,-1.2101,-1.2119,-1.2174,-1.2138,-1.2156,-1.233,-1.2974,-1.3992,-1.5634,-1.7312,-1.9216,-2.1586,-2.2529,0.0,-2.2995,-2.2667,0.0,0.0,0.0,0.0,0.0,-1.7582,-1.7582,-1.7582,-1.7582,-1.7582,-1.7582,-1.7582,-1.7582,-1.7582,-1.7582,-1.7582,-1.7582,-1.7582,0.0,0.0,0.0,0.0,0.0,-1.7582,-1.7582,-1.7582,-1.7582,-1.7582,-1.7582,-1.7582,-1.7378,-1.7179,-1.7179,-1.7173,-1.7179,-1.7179,-1.7179,-1.712,-1.6789,-1.6902,-1.7068,-1.6749,-1.6426,-1.617,-1.5939,-1.568,-1.5401,-1.5147,-1.5309,-1.5404,-1.5124,-1.5315,-1.5493,-1.5493,-1.5445,-1.5445,-1.5493,-1.5642,-1.5689,-1.554,-1.5458,-1.5325,-1.5061,-1.3337,-1.2038,-1.1763,-1.02,-0.9189,-0.9189,-0.8426,-0.7886,-0.7609,-0.7337,-0.72,-0.72,-0.72,-0.716,-0.7173,-0.7813,-0.8029,-0.784,-0.8029,-0.8042,-0.7934,-0.7923,-0.7923,-1.3442,0.0,-1.4781,-1.4378,-1.4066,-1.3727,0.0,-1.29,-1.2579,-1.2183,-1.2101,-1.2294,-1.2892,-1.2498,-1.2707,-1.4543,-1.4744,-1.5349,-1.7284,-1.9436,-2.1557,-2.3373,-2.3806,-2.3868,-2.3868,0.0,0.0,0.0,0.0,-1.8715,0.0,-1.7582,-1.7582,-1.7582,-1.7582,-1.7582,-1.7582,-1.7582,-1.7582,-1.7582,-1.7582,-1.7582,-1.7582,-1.7582,0.0,0.0,0.0,0.0,-1.7582,-1.7582,-1.7582,-1.7582,-1.7582,-1.7483,-1.7279,-1.7279,-1.7113,-1.6842,-1.712,-1.7008,-1.6842,-1.6842,-1.6842,-1.6736,-1.6477,-1.643,-1.6524,-1.6408,-1.5927,-1.5422,-1.5582,-1.5238,-1.4919,-1.5048,-1.5131,-1.5172,-1.5131,-1.5131,-1.5172,-1.5172,-1.5022,-1.5022,-1.5445,-1.5356,-1.5363,-1.5683,-1.5724,-1.5598,-1.5332,-1.4251,-1.3436,-1.315,-1.1385,-1.019,-1.0051,-0.9288,-0.8726,-0.8497,-0.8309,-0.8178,-0.8178,-0.7952,-0.792,-0.8083,-0.8266,-0.8285,-0.8238,-0.8285,-0.8312,-0.8271,-0.8102,-0.8155,-1.2202,-1.3157,-1.4121,-1.3901,-1.3708,-1.3534,-1.3304,-1.2817,-1.2358,-1.2147,-1.2101,-1.2294,-1.2919,-1.2827,-1.3148,-1.4616,-1.5148,-1.6211,-1.8576,-2.0671,-2.2474,-2.373,-2.4082,-2.4202,0.0,0.0,0.0,0.0,0.0,-1.928,0.0,-1.7582,-1.7582,-1.7582,-1.7582,-1.7582,-1.7582,-1.7582,-1.7582,-1.7582,-1.7582,-1.7582,-1.7582,-1.7582,-1.7582,0.0,0.0,0.0,-1.7582,-1.7582,-1.7582,-1.7582,-1.7483,-1.7331,-1.7173,-1.7008,-1.6796,-1.653,-1.6696,-1.6696,-1.653,-1.653,-1.653,-1.6477,-1.6211,-1.6111,-1.6164,-1.6271,-1.5922,-1.5469,-1.548,-1.5183,-1.4843,-1.4767,-1.4838,-1.4939,-1.4939,-1.5035,-1.5083,-1.5083,-1.5077,-1.5118,-1.5309,-1.5315,-1.5356,-1.5635,-1.5642,-1.563,-1.5471,-1.4694,-1.402,-1.3782,-1.2297,-1.1355,-1.1213,-1.0796,-0.9981,-0.8576,-0.8444,-0.841,-0.8333,-0.8268,-0.8381,-0.8685,-0.8693,-0.874,-0.8879,-0.8879,-0.9071,-0.9397,-0.9301,-0.9581,-1.1825,-1.3066,-1.4359,-1.4112,-1.3919,-1.3801,-1.3736,-1.2928,-1.2193,-1.2193,-1.2193,-1.2349,-1.2873,-1.3241,-1.3671,-1.4249,-1.5359,-1.7101,-1.9783,-2.1385,-2.2648,-2.348,-2.3941,0.0,0.0,0.0,0.0,0.0,0.0,-2.0012,0.0,-1.7687,-1.7582,-1.7582,-1.7582,-1.7582,-1.7582,-1.7582,-1.7582,-1.7582,-1.7582,-1.7582,-1.7582,-1.7582,-1.7582,0.0,0.0,0.0,-1.7582,-1.7582,-1.7582,-1.7536,-1.7331,-1.7173,-1.7014,-1.6789,-1.6524,-1.6217,-1.6217,-1.6271,-1.6271,-1.6271,-1.6217,-1.6217,-1.5945,-1.5891,-1.5945,-1.6164,-1.6026,-1.5762,-1.5573,-1.5276,-1.4937,-1.4509,-1.452,-1.464,-1.4688,-1.4838,-1.4987,-1.5035,-1.5166,-1.5261,-1.5131,-1.5267,-1.5445,-1.5493,-1.554,-1.554,-1.554,-1.4968,-1.4442,-1.419,-1.3216,-1.263,-1.263,-1.2436,-1.1316,-0.893,-0.8765,-0.8598,-0.823,-0.8473,-0.8815,-0.934,-0.9155,-0.9348,-0.9918,-0.9725,-1.0113,-1.0925,-1.0886,-1.14,-1.2755,-1.3488,-1.3681,-1.2287,-1.2672,-1.3286,-1.2955,-1.2735,-1.2597,-1.2597,-1.2597,-1.2937,-1.4029,-1.4277,-1.479,-1.6211,-1.7458,-1.8999,0.0,0.0,-2.2758,-2.3972,0.0,-2.4202,0.0,0.0,0.0,0.0,0.0,0.0,0.0,-1.8094,-1.7582,-1.7582,-1.7582,-1.7582,-1.7582,-1.7582,-1.7582,-1.7582,-1.7582,-1.7582,-1.7582,-1.7582,-1.7582,0.0,0.0,-1.7582,-1.7582,-1.7582,-1.7483,-1.7279,-1.7483,-1.7113,-1.6483,-1.663,-1.6365,-1.5945,-1.5945,-1.6111,-1.6271,-1.6051,-1.5945,-1.5945,-1.5891,-1.5891,-1.5891,-1.5945,-1.5757,-1.5539,-1.5497,-1.5127,-1.4801,-1.4943,-1.4655,-1.4442,-1.464,-1.4544,-1.449,-1.4742,-1.4586,-1.464,-1.5035,-1.5131,-1.522,-1.5452,-1.5635,-1.5737,-1.5737,-1.5635,-1.554,-1.5493,-1.458,-1.4004,-1.4004,-1.3167,-1.2406,-1.1859,-1.0849,-0.9819,-0.8898,-0.9207,-0.9894,-1.0835,-0.9968,-1.0409,-1.219,-1.1322,-1.14,-1.2374,-1.2267,-1.2378,-1.1651,-1.2294,-1.2753,-1.2018,-1.3231,-1.4533,-1.437,-1.3965,-1.3662,-1.3662,-1.3662,-1.3901,-1.468,-1.5194,-1.6083,-1.7908,0.0,-2.0411,-2.1531,-2.241,-2.3189,0.0,0.0,0.0,0.0,0.0,0.0,0.0,0.0,0.0,0.0,0.0,-1.8199,-1.7635,-1.7582,-1.7582,-1.7582,-1.7582,-1.7582,-1.7582,-1.7582,-1.7582,-1.7582,-1.7582,-1.7582,-1.7582,0.0,-1.7582,-1.7582,-1.7582,-1.7536,-1.7378,-1.7213,-1.6895,-1.6477,-1.6311,-1.6099,-1.5891,-1.5891,-1.5998,-1.6051,-1.5945,-1.5891,-1.5891,-1.5891,-1.5891,-1.5891,-1.5891,-1.5698,-1.5499,-1.5499,-1.5215,-1.4926,-1.507,-1.4819,-1.457,-1.4674,-1.46,-1.4496,-1.449,-1.464,-1.479,-1.5083,-1.5083,-1.522,-1.5594,-1.5635,-1.5683,-1.5778,-1.5784,-1.5784,-1.5784,-1.5302,-1.4968,-1.4968,-1.4478,-1.3741,-1.2666,-1.1972,-1.1439,-1.1028,-1.1176,-1.1517,-1.1999,-1.1521,-1.176,-1.2678,-1.2242,-1.2538,-1.3559,-1.3486,-1.3778,-1.0943,-1.1467,-1.2174,-1.245,-1.3856,-1.5249,-1.5725,-1.5221,-1.4735,-1.501,-1.5074,-1.5166,-1.5469,-1.634,-1.7578,-1.9301,-2.0521,-2.1385,-2.1906,-2.2849,0.0,0.0,0.0,0.0,0.0,0.0,0.0,0.0,0.0,0.0,0.0,0.0,-1.9072,-1.7996,-1.7996,-1.7838,-1.7582,-1.7582,-1.7582,-1.7582,-1.7582,-1.7582,-1.7582,-1.7582,-1.7582,-1.7582,-1.7582,-1.7582,-1.7582,-1.7582,-1.7529,-1.7371,-1.6948,-1.6736,-1.6524,-1.6045,-1.5891,-1.5891,-1.5891,-1.5891,-1.5891,-1.5891,-1.5891,-1.5891,-1.5891,-1.5891,-1.5891,-1.5891,-1.5747,-1.559,-1.559,-1.5396,-1.5197,-1.5197,-1.4998,-1.4793,-1.4733,-1.4698,-1.4624,-1.4358,-1.4688,-1.5035,-1.5035,-1.5124,-1.5315,-1.5689,-1.5635,-1.5635,-1.5784,-1.5784,-1.5784,-1.5784,-1.5642,-1.5588,-1.5588,-1.5588,-1.4956,-1.3505,-1.3132,-1.2872,-1.2721,-1.2678,-1.2829,-1.3071,-1.2829,-1.292,-1.3409,-1.3167,-1.3607,-1.4634,-1.4634,-1.5064,-1.2229,-1.2312,-1.2376,-1.3497,-1.3607,-1.3956,-1.5845,-1.5643,-1.5377,-1.6505,-1.6734,-1.6743,-1.6771,-1.8036,-1.9384,-2.0283,-2.1092,-2.1925,-2.2712,0.0,0.0,0.0,0.0,0.0,0.0,0.0,0.0,0.0,0.0,0.0,0.0,0.0,0.0,-1.9124,-1.9072,-1.861,-1.7635,-1.7582,-1.7582,-1.7582,-1.7582,-1.7582,-1.7582,-1.7582,-1.7582,-1.7582,-1.7582,-1.7582,-1.7582,-1.7582,-1.7265,-1.6783,-1.7067,-1.6802,-1.6271,-1.5998,-1.5891,-1.5891,-1.5891,-1.5891,-1.5891,-1.5891,-1.5891,-1.5891,-1.5891,-1.5891,-1.5891,-1.5891,-1.5879,-1.5861,-1.5861,-1.5668,-1.5469,-1.5469,-1.527,-1.501,-1.4769,-1.4702,-1.4612,-1.4346,-1.4544,-1.4736,-1.4736,-1.5118,-1.5493,-1.554,-1.5683,-1.5784,-1.5784,-1.5784,-1.5784,-1.5784,-1.5778,-1.5784,-1.5784,-1.5784,-1.573,-1.5588,-1.4704,-1.3734,-1.2732,-1.2678,-1.3167,-1.4148,-1.3216,-1.365,-1.5588,-1.4627,-1.4675,-1.5689,-1.5689,-1.573,-1.1136,-1.1825,-1.2643,-1.3341,-1.3974,-1.4818,-1.634,-1.6835,-1.7248,-1.8201,-1.8394,-1.8394,-1.8394,-1.9109,-1.9829,-2.0429,-2.1586,-2.2556,-2.2867,0.0,0.0,0.0,0.0,0.0,0.0,0.0,0.0,0.0,0.0,0.0,0.0,0.0,0.0,-2.0313,-2.0261,-2.0055,-1.965,-1.8975,-1.861,-1.861,-1.7943,-1.7582,-1.7582,-1.7582,-1.7582,-1.7582,-1.7582,-1.7582,-1.7582,-1.743,-1.7226,-1.7014,-1.6749,-1.6377,-1.6051,-1.5945,-1.5891,-1.5891,-1.5891,-1.5891,-1.5891,-1.5891,-1.5891,-1.5891,-1.5891,-1.5891,-1.5891,-1.5891,-1.5891,-1.5891,-1.5891,-1.5813,-1.5741,-1.5741,-1.5541,-1.5324,-1.5228,-1.5216,-1.5121,-1.4845,-1.4991,-1.5155,-1.5204,-1.5309,-1.5452,-1.5642,-1.5737,-1.5784,-1.5784,-1.5784,-1.5784,-1.5784,-1.5784,-1.5784,-1.5784,-1.5784,-1.5784,-1.5784,-1.5445,-1.5057,-1.4615,-1.4615,-1.4813,-1.5207,-1.4813,-1.5003,-1.5784,-1.5397,-1.5445,-1.5784,-1.5784,-1.5784,-1.0787,-1.166,-1.2827,-1.3369,-1.4387,-1.567,-1.7138,-1.7816,-1.8458,-1.9632,-1.9668,-1.954,-1.9659,-1.9884,0.0,0.0,-2.1925,-2.2904,0.0,0.0,0.0,0.0,0.0,0.0,0.0,0.0,0.0,0.0,0.0,0.0,0.0,0.0,0.0,0.0,-2.1395,-2.1242,-2.0885,-2.0107,-1.9746,-1.9746,-1.861,-1.7943,-1.7582,-1.7582,-1.7582,-1.7582,-1.7582,-1.7582,-1.7582,-1.7378,-1.7219,-1.6955,-1.6371,-1.6051,-1.5891,-1.5891,-1.5891,-1.5891,-1.5891,-1.5891,-1.5891,-1.5891,-1.5891,-1.5891,-1.5891,-1.5891,-1.5891,-1.5891,-1.5891,-1.5891,-1.5891,-1.5891,-1.5891,-1.5891,-1.5753,-1.5654,-1.5621,-1.556,-1.5498,-1.5376,-1.5482,-1.5593,-1.5716,-1.5774,-1.5816,-1.6057,-1.6057,-1.6072,-1.5979,-1.5972,-1.5932,-1.5791,-1.5784,-1.5784,-1.5784,-1.5784,-1.5784,-1.5784,-1.5784,-1.5784,-1.5784,-1.5784,-1.5784,-1.5784,-1.5784,-1.5784,-1.5784,-1.5784,-1.5784,-1.5784,-1.5784,-1.5784,-1.159,-1.2092,-1.29,-1.3718,-1.4808,-1.6248,-1.8265,-1.8383,-1.8705,-2.0704,-2.0484,-2.0021,-2.0415,-2.0521,0.0,-2.1044,0.0,0.0,0.0,0.0,0.0,0.0,0.0,0.0,0.0,0.0,0.0,0.0,0.0,0.0,0.0,0.0,0.0,0.0,-2.2526,-2.2013,-2.0936,-2.0936,-2.0936,-2.0885,-1.9746,-1.8662,-1.7635,-1.7582,-1.7582,-1.7582,-1.7582,-1.7582,-1.7582,-1.7582,-1.7265,-1.6624,-1.6099,-1.5891,-1.5891,-1.5891,-1.5891,-1.5891,-1.5891,-1.5891,-1.5891,-1.5891,-1.5891,-1.5891,-1.5891,-1.5891,-1.5891,-1.5891,-1.5891,-1.5891,-1.5891,-1.5891,-1.5891,-1.5891,-1.5891,-1.5925,-1.5879,-1.5713,-1.5634,-1.5923,-1.5973,-1.6017,-1.6268,-1.6513,-1.6707,-1.6707,-1.6707,-1.66,-1.6362,-1.6321,-1.6152,-1.5865,-1.5784,-1.5784,-1.5784,-1.5784,-1.5784,-1.5784,-1.5784,-1.5784,-1.5784,-1.5784,-1.5784,-1.5784,-1.5784,-1.5784,-1.5784,-1.5784,-1.5784,-1.5784,-1.5784,-1.5784,-1.1182,-1.2285,-1.3681,-1.4194,-1.6083,-1.8119,-1.9262,-1.9436,-1.9765,-2.1202,-2.1126,-2.0796,-2.0906,-2.0934,0.0,0.0,0.0,0.0,0.0,0.0,0.0,0.0,0.0,0.0,0.0,0.0,0.0,0.0,0.0,0.0,0.0,0.0,0.0,0.0,-2.3696,-2.3538,-2.3229,-2.2417,-2.2013,-2.2013,-2.0928,-1.9797,-1.8715,-1.7943,-1.7582,-1.7582,-1.7582,-1.7582,-1.7582,-1.7153,-1.663,-1.6099,-1.5945,-1.5891,-1.5891,-1.5891,-1.5891,-1.5891,-1.5891,-1.5891,-1.5891,-1.5891,-1.5891,-1.5891,-1.5891,-1.5891,-1.5891,-1.5891,-1.5891,-1.5891,-1.5891,-1.5891,-1.5891,-1.5891,-1.5891,-1.5921,-1.5901,-1.6141,-1.6323,-1.6253,-1.6665,-1.6988,-1.6629,-1.677,-1.686,-1.6727,-1.6707,-1.6627,-1.64,-1.6132,-1.5925,-1.5791,-1.5784,-1.5784,-1.5784,-1.5784,-1.5784,-1.5784,-1.5784,-1.5784,-1.5784,-1.5784,-1.5784,-1.5784,-1.5784,-1.5784,-1.5784,-1.5784,-1.5784,-1.5784,-1.5784,-1.5784,-1.2064,-1.3332,-1.4818,-1.5716,-1.7339,-1.9008,-2.0145,-2.0488,-2.0808,-2.154,-2.1401,-2.1163,-2.1328,-2.1218,0.0,0.0,0.0,0.0,0.0,0.0,0.0,0.0,0.0,0.0,0.0,0.0,0.0,0.0,0.0,0.0,0.0,0.0,0.0,0.0,-2.3675,-2.3758,-2.3904,-2.3256,-2.298,-2.3138,-2.2064,-2.1191,-2.0467,-1.9383,-1.8923,-1.893,-1.8826,-1.8513,-1.8048,-1.7463,-1.6783,-1.6051,-1.5945,-1.5891,-1.5891,-1.5891,-1.5891,-1.5891,-1.5891,-1.5891,-1.5891,-1.5891,-1.5891,-1.5891,-1.5891,-1.5891,-1.5891,-1.5891,-1.5891,-1.5945,-1.6051,-1.6051,-1.6051,-1.5945,-1.5998,-1.6105,-1.6205,-1.6471,-1.6732,-1.6775,-1.7147,-1.737,-1.7114,-1.7154,-1.7194,-1.7074,-1.6921,-1.6747,-1.6553,-1.6119,-1.5784,-1.5784,-1.5784,-1.5784,-1.5784,-1.5784,-1.5784,-1.5784,-1.5784,-1.5784,-1.5784,-1.5784,-1.5784,-1.5784,-1.5784,-1.5784,-1.5784,-1.5784,-1.5784,-1.5784,-1.5784,-1.5784,-1.3599,-1.4683,-1.6028,-1.7624,-1.8504,-1.932,-2.0824,-2.1421,-2.1696,-2.1696,-2.1385,-2.1282,-2.1623,-2.142,0.0,0.0,0.0,0.0,0.0,0.0,0.0,0.0,0.0,0.0,0.0,0.0,0.0,0.0,0.0,0.0,0.0,0.0,0.0,-2.2904,-2.2904,-2.3078,-2.3435,-2.3444,-2.3675,0.0,-2.3067,-2.2576,-2.2525,-2.143,-2.0885,-2.0834,-2.0585,-1.9857,-1.8826,-1.8349,-1.7516,-1.653,-1.6311,-1.6205,-1.6205,-1.6205,-1.6205,-1.6205,-1.6099,-1.6051,-1.6045,-1.5945,-1.5891,-1.5891,-1.5891,-1.5891,-1.5891,-1.5891,-1.5891,-1.5945,-1.6217,-1.6324,-1.6217,-1.6051,-1.614,-1.6346,-1.6624,-1.6658,-1.6863,-1.747,-1.7384,-1.7331,-1.7582,-1.7582,-1.7582,-1.7582,-1.7281,-1.6987,-1.6807,-1.6226,-1.5784,-1.5784,-1.5784,-1.5784,-1.5784,-1.5784,-1.5784,-1.5784,-1.5784,-1.5784,-1.5784,-1.5784,-1.5784,-1.5784,-1.5784,-1.5784,-1.5784,-1.5784,-1.5784,-1.5784,-1.5784,-1.5784,-1.2903,-1.4063,-1.5615,-1.7229,-1.9127,-2.0769,-2.1403,-2.1632,-2.1696,-2.1696,-2.1623,-2.1586,-2.1678,-2.1623,0.0,0.0,0.0,0.0,0.0,0.0,0.0,0.0,0.0,0.0,0.0,0.0,0.0,0.0,0.0,0.0,0.0,0.0,0.0,-2.2904,-2.2904,-2.295,-2.3032,-2.3032,-2.3078,0.0,-2.3229,-2.3277,-2.3237,-2.1619,-2.0783,-2.0585,-2.0534,-2.0115,-1.9428,-1.9524,-1.9169,-1.8551,-1.8499,-1.8499,-1.8499,-1.8499,-1.8499,-1.8394,-1.7523,-1.7213,-1.7107,-1.6205,-1.5891,-1.5891,-1.5891,-1.5891,-1.5891,-1.5891,-1.5891,-1.5945,-1.6217,-1.6324,-1.6324,-1.6471,-1.6262,-1.6064,-1.6327,-1.6413,-1.658,-1.718,-1.7437,-1.7529,-1.7582,-1.7582,-1.7582,-1.7582,-1.7508,-1.7442,-1.7402,-1.648,-1.5784,-1.5784,-1.5784,-1.5784,-1.5784,-1.5784,-1.5784,-1.5784,-1.5784,-1.5784,-1.5784,-1.5784,-1.5784,-1.5784,-1.5784,-1.5784,-1.5784,-1.5784,-1.5784,-1.5784,-1.5784,-1.5784,-1.409,-1.5477,-1.7184,-1.9597,-2.1259,-2.2483,-2.293,-2.3028,-2.3028,-2.3028,-2.2344,-2.182,-2.229,0.0,0.0,0.0,0.0,0.0,0.0,0.0,0.0,0.0,0.0,0.0,0.0,0.0,0.0,0.0,0.0,0.0,0.0,-2.2428,-2.2327,-2.2327,-2.2327,-2.2419,-2.2602,-2.2611,-2.2712,-2.2904,-2.3114,-2.3268,-2.3314,-2.2754,-2.2266,-2.1861,-2.1861,-2.1344,-2.04,-2.0408,-1.9945,-1.9176,-1.9176,-1.9176,-1.9176,-1.9176,-1.9176,-1.9124,-1.8558,-1.8356,-1.8199,-1.7047,-1.6736,-1.663,-1.6045,-1.5998,-1.6105,-1.6105,-1.6158,-1.6365,-1.6643,-1.6755,-1.6749,-1.6902,-1.6746,-1.6577,-1.6723,-1.6839,-1.7036,-1.7351,-1.7483,-1.7582,-1.7582,-1.7582,-1.7582,-1.7582,-1.7582,-1.7375,-1.6814,-1.6206,-1.5784,-1.5784,-1.5784,-1.5784,-1.5784,-1.5784,-1.5784,-1.5784,-1.5784,-1.5784,-1.5784,-1.5784,-1.5784,-1.5784,-1.5784,-1.5784,-1.5784,-1.5784,-1.5784,-1.5784,-1.5927,-1.5981,-1.5147,-1.7007,-1.9099,-2.2203,-2.335,-2.3856,-2.4385,-2.4498,-2.4498,-2.4498,-2.3246,-2.2422,0.0,0.0,0.0,0.0,0.0,0.0,0.0,0.0,0.0,0.0,0.0,0.0,0.0,0.0,0.0,0.0,0.0,0.0,-2.2181,-2.187,-2.1696,-2.1696,-2.1696,-2.1851,-2.2172,-2.2181,-2.2346,-2.2693,-2.2767,-2.2862,-2.2964,-2.3639,-2.3718,-2.3347,-2.3347,-2.2627,-2.1497,-2.1344,-2.068,-1.9797,-1.9797,-1.9797,-1.9797,-1.9797,-1.9797,-1.9746,-1.9539,-1.9487,-1.9332,-1.8251,-1.7891,-1.7681,-1.6783,-1.663,-1.6789,-1.6842,-1.6895,-1.6995,-1.7378,-1.749,-1.7483,-1.7536,-1.7694,-1.7747,-1.7279,-1.7272,-1.7449,-1.7569,-1.7582,-1.7582,-1.7582,-1.7582,-1.7515,-1.7315,-1.7281,-1.6927,-1.5952,-1.5784,-1.5784,-1.5784,-1.5784,-1.5784,-1.5784,-1.5784,-1.5784,-1.5784,-1.5784,-1.5784,-1.5784,-1.5784,-1.5784,-1.5784,-1.5832,-1.5879,-1.5879,-1.5927,-1.5927,-1.5927,-1.617,-1.6299,-1.3379,-1.6122,-1.9267,-2.1837,-2.3093,-2.3856,-2.4385,-2.4498,-2.4498,0.0,-2.4284,-2.4145,0.0,0.0,0.0,0.0,0.0,0.0,0.0,0.0,0.0,0.0,0.0,0.0,0.0,0.0,0.0,0.0,0.0,0.0,-2.1769,-2.1723,-2.1696,-2.1696,-2.1696,-2.1723,-2.1769,-2.1769,-2.1797,-2.1851,-2.2199,-2.2342,-2.2342,-2.2643,-2.2903,-2.3046,-2.3046,-2.2795,-2.2434,-2.2636,-2.2485,-2.2131,-2.2131,-2.2131,-2.2131,-2.2131,-2.2131,-2.1979,-2.1038,-2.0672,-2.0467,-1.9332,-1.8968,-1.8968,-1.8812,-1.876,-1.8864,-1.9117,-1.8499,-1.793,-1.8461,-1.8565,-1.8617,-1.8871,-1.9694,-1.9797,-1.7523,-1.6853,-1.682,-1.7463,-1.7582,-1.7582,-1.7582,-1.7582,-1.7235,-1.6219,-1.6066,-1.5957,-1.5804,-1.5784,-1.5784,-1.5784,-1.5784,-1.5784,-1.5784,-1.5784,-1.5784,-1.5784,-1.5784,-1.5784,-1.5784,-1.5784,-1.5784,-1.5784,-1.6028,-1.617,-1.617,-1.64,-1.6487,-1.6487,-1.6541,-1.6681,-1.5265,-1.7583,-1.9933,-2.2714,-2.3689,-2.4259,-2.5381,-2.5623,-2.57,-2.5975,-2.5988,0.0,0.0,0.0,0.0,0.0,0.0,0.0,0.0,0.0,0.0,0.0,0.0,0.0,0.0,0.0,0.0,0.0,0.0,-2.2457,-2.2457,-2.1989,-2.1696,-2.1696,-2.1696,-2.1696,-2.1696,-2.1696,-2.1696,-2.1696,-2.1953,-2.2004,-2.1857,-2.207,-2.2123,-2.2114,-2.2487,-2.2484,-2.2302,-2.2608,-2.2695,-2.2594,-2.2594,-2.2594,-2.2594,-2.2594,-2.2594,-2.2544,-2.203,-2.1869,-2.1666,-2.0526,-2.0158,-2.0004,-1.9383,-1.9272,-1.948,-1.9731,-1.9635,-1.9495,-1.9857,-1.996,-1.9908,-1.9598,-2.0218,-2.0577,-1.9435,-1.8112,-1.7225,-1.7549,-1.7582,-1.7582,-1.7582,-1.7582,-1.7408,-1.6887,-1.6814,-1.6814,-1.6814,-1.6239,-1.5784,-1.5784,-1.5784,-1.5784,-1.5784,-1.5784,-1.5784,-1.5784,-1.5784,-1.5784,-1.5784,-1.5784,-1.5784,-1.5784,-1.6116,-1.6163,-1.5981,-1.6298,-1.6534,-1.6723,-1.6723,-1.6892,-1.6025,-1.7905,-1.9608,-2.2513,-2.3626,-2.4361,-2.5761,-2.6306,-2.6616,0.0,0.0,0.0,0.0,0.0,0.0,0.0,0.0,0.0,0.0,0.0,0.0,0.0,0.0,0.0,0.0,0.0,0.0,0.0,0.0,-2.3444,-2.3444,-2.2809,-2.2432,-2.2432,-2.2167,-2.2167,-2.2432,-2.2432,-2.2299,-2.2078,-2.2151,-2.198,-2.1559,-2.1555,-2.1538,-2.1517,-2.1974,-2.2037,-2.1876,-2.2302,-2.2457,-2.2465,-2.256,-2.2594,-2.2594,-2.2594,-2.2594,-2.2594,-2.2594,-2.2594,-2.2443,-2.1607,-2.1353,-2.1191,-2.0313,-2.0254,-2.0503,-2.0708,-2.0826,-2.1046,-2.1599,-2.1497,-2.1191,-2.0637,-2.114,-2.1599,-2.1038,-2.0055,-1.8916,-1.7838,-1.7582,-1.7582,-1.7582,-1.7582,-1.7582,-1.7582,-1.7582,-1.7582,-1.7582,-1.7796,-1.7938,-1.7938,-1.7938,-1.7383,-1.5899,-1.5784,-1.5784,-1.5784,-1.6112,-1.6139,-1.5791,-1.6071,-1.6084,-1.5791,-1.6949,-1.7185,-1.6567,-1.6897,-1.7178,-1.7412,-1.7091,-1.7087,-1.3374,-1.528,-1.7378,-1.9964,-2.202,-2.3705,-2.4763,0.0,-2.6513,-2.6536,0.0,0.0,0.0,0.0,0.0,0.0,0.0,0.0,0.0,0.0,0.0,0.0,0.0,0.0,0.0,0.0,0.0,0.0,0.0,-2.4413,-2.4413,-2.437,-2.437,-2.437,-2.3487,-2.3444,-2.437,-2.437,-2.393,-2.3008,-2.3028,-2.2485,-2.1383,-2.1149,-2.1275,-2.167,-2.1538,-2.1439,-2.1465,-2.1867,-2.203,-2.2064,-2.2465,-2.2594,-2.2594,-2.2594,-2.2594,-2.2594,-2.2594,-2.2594,-2.2594,-2.2544,-2.2493,-2.2493,-2.2443,-2.2594,-2.2846,-2.2904,-2.2493,-2.2325,-2.3696,-2.3238,-2.2426,-2.2375,-2.3238,-2.3438,-2.1344,-2.2467,-2.261,-1.8401,-1.7582,-1.7582,-1.7582,-1.7582,-1.7582,-1.7582,-1.7582,-1.7582,-1.7582,-2.1212,-2.3768,-2.3768,-2.3768,-2.1612,-1.6245,-1.5784,-1.5784,-1.5784,-1.6874,-1.6987,-1.5831,-1.6901,-1.6967,-1.5804,-1.9115,-2.0115,-1.865,-1.898,-1.9163,-1.9117,-1.7878,-1.7293,-1.3179,-1.4603,-1.6163,-1.8375,-1.9968,-2.1388,-2.2696,-2.4039,-2.5096,-2.5406,0.0,0.0,0.0,0.0,0.0,0.0,0.0,0.0,0.0,0.0,0.0,0.0,0.0,0.0,0.0,0.0,0.0,0.0,0.0,0.0,-2.5326,-2.4787,-2.4498,-2.4498,-2.4188,-2.4145,-2.4498,-2.4498,-2.4327,-2.4016,-2.4016,-2.3541,-2.2668,-2.257,-2.2394,-2.2148,-2.2087,-2.1915,-2.1728,-2.1648,-2.1764,-2.2013,-2.2141,-2.2388,-2.2594,-2.2594,-2.2594,-2.2594,-2.2594,-2.2594,-2.2594,-2.2594,-2.2594,-2.2644,-2.2795,-2.2896,-2.3046,-2.3356,-2.3247,-2.3247,-2.4003,-2.3895,-2.3596,-2.3596,-2.3895,-2.3994,-2.3179,-2.3637,-2.3737,-2.2148,-2.1844,-2.1844,-2.1844,-2.1844,-2.0861,-1.8048,-1.7582,-1.7582,-1.7582,-2.1481,-2.4202,-2.4202,-2.4202,-2.3354,-2.1349,-2.1209,-2.1209,-2.1209,-2.1603,-2.1653,-2.1226,-2.1612,-2.1645,-2.1218,-2.31,-2.2742,-2.0095,-2.038,-2.058,-2.0708,-1.9635,-1.8707,-1.2364,-1.3707,-1.5315,-1.7137,-1.8276,-1.9447,-2.1436,-2.2834,-2.3879,-2.4533,0.0,0.0,0.0,0.0,0.0,0.0,0.0,0.0,0.0,0.0,0.0,0.0,0.0,0.0,0.0,0.0,0.0,0.0,0.0,0.0,-2.6268,-2.5574,-2.4943,-2.4451,-2.4901,-2.5029,-2.4693,-2.5029,-2.5103,-2.4914,-2.4797,-2.4317,-2.3521,-2.3434,-2.3226,-2.2843,-2.2702,-2.2422,-2.2044,-2.199,-2.2076,-2.2332,-2.2465,-2.2748,-2.3084,-2.2845,-2.2833,-2.2946,-2.2695,-2.2594,-2.2594,-2.2594,-2.2594,-2.2644,-2.2896,-2.3046,-2.3197,-2.3447,-2.3646,-2.3854,-2.4152,-2.4202,-2.4202,-2.4202,-2.4202,-2.4202,-2.4202,-2.4202,-2.4202,-2.4202,-2.4202,-2.4202,-2.4202,-2.4202,-2.322,-2.0254,-1.9842,-1.9842,-1.9842,-2.24,-2.4202,-2.4202,-2.4202,-2.4202,-2.4202,-2.4202,-2.4202,-2.4202,-2.4202,-2.4202,-2.4202,-2.4498,-2.4548,-2.4202,-2.5196,-2.4648,-2.2456,-2.2336,-2.2172,-2.2058,-2.203,-2.16,0.0,0.0,0.0,-1.614,-1.691,0.0,-2.1034,0.0,-2.2846,0.0,0.0,0.0,0.0,0.0,0.0,0.0,0.0,0.0,0.0,0.0,0.0,0.0,0.0,0.0,0.0,0.0,0.0,0.0,0.0,-2.7179,-2.719,-2.6737,-2.5854,-2.4399,-2.5718,-2.6029,-2.512,-2.604,-2.6278,-2.5808,-2.5432,-2.4754,-2.3877,-2.3607,-2.3627,-2.3841,-2.3367,-2.2877,-2.2476,-2.2848,-2.2993,-2.304,-2.3354,-2.3758,-2.4107,-2.3308,-2.3327,-2.3619,-2.2887,-2.2695,-2.2695,-2.2644,-2.2644,-2.2695,-2.2946,-2.3197,-2.3397,-2.3397,-2.3805,-2.4202,-2.4202,-2.4202,-2.4202,-2.4202,-2.4202,-2.4202,-2.4202,-2.4202,-2.4202,-2.4202,-2.4202,-2.4202,-2.4202,-2.4202,-2.4202,-2.4202,-2.4202,-2.4202,-2.4202,-2.4202,-2.4202,-2.4202,-2.4202,-2.4202,-2.4202,-2.4202,-2.4202,-2.4202,-2.4202,-2.4202,-2.4202,-2.5196,-2.5245,-2.4251,-2.5196,-2.5693,-2.5693,-2.4826,-2.3978,-2.3208,-2.4904,-2.5693,-1.1831,0.0,0.0,0.0,0.0,0.0,0.0,0.0,0.0,0.0,0.0,0.0,0.0,0.0,0.0,0.0,0.0,0.0,0.0,0.0,0.0,0.0,0.0,0.0,0.0,0.0,0.0,0.0,-2.6668,-2.6841,-2.7167,-2.6737,-2.6142,-2.5356,-2.5725,-2.5805,-2.5559,-2.6199,-2.6451,-2.6295,-2.6546,-2.6332,-2.5757,-2.5673,-2.5337,-2.4818,-2.468,-2.4337,-2.3831,-2.2934,-2.2763,-2.3011,-2.3079,-2.3381,-2.373,-2.3822,-2.3951,-2.41,-2.4202,-2.4541,-2.4737,-2.3926,-2.3818,-2.3908,-2.3646,-2.3497,-2.3497,-2.3854,-2.4102,-2.4202,-2.4202,-2.4202,-2.4202,-2.4202,-2.4202,-2.4202,-2.4202,-2.4202,-2.4202,-2.4202,-2.4202,-2.4202,-2.4202,-2.4202,-2.4202,-2.4202,-2.4202,-2.4202,-2.4202,-2.4202,-2.4202,-2.4202,-2.4202,-2.4202,-2.4202,-2.4202,-2.4202,-2.4202,-2.4202,-2.4202,-2.4202,-2.5196,-2.5586,-2.5294,-2.5538,-2.5693,-2.5693,-2.544,-2.5206,-2.4982,-2.5469,-2.5693,-1.2624,-1.3176,-1.4029,-1.4454,0.0,0.0,0.0,-1.7496,0.0,0.0,0.0,0.0,0.0,0.0,0.0,0.0,0.0,0.0,0.0,0.0,0.0,0.0,0.0,0.0,0.0,0.0,0.0,-2.6152,-2.6152,-2.6186,-2.6216,-2.6186,-2.5819,-2.5096,-2.5279,-2.5383,-2.5383,-2.5527,-2.5817,-2.6152,-2.608,-2.6075,-2.6196,-2.6021,-2.5666,-2.52,-2.52,-2.4946,-2.4454,-2.3604,-2.3403,-2.3639,-2.3639,-2.3859,-2.418,-2.4127,-2.4342,-2.4736,-2.4871,-2.5266,-2.5654,-2.5217,-2.5158,-2.5256,-2.508,-2.4933,-2.4747,-2.4341,-2.4202,-2.4202,-2.4202,-2.4202,-2.4202,-2.4202,-2.4202,-2.4202,-2.4202,-2.4202,-2.4202,-2.4202,-2.4202,-2.4202,-2.4202,-2.4202,-2.4202,-2.4202,-2.4202,-2.4202,-2.4202,-2.4202,-2.4202,-2.4202,-2.4202,-2.4202,-2.4202,-2.4202,-2.4202,-2.4202,-2.4202,-2.4202,-2.4202,-2.5196,-2.5693,-2.5693,-2.5693,-2.5693,-2.5693,-2.5693,-2.5693,-2.5693,-2.5693,-2.5693,-1.3507,-1.3889,-1.4763,-1.5613,-1.4832,0.0,-1.7622,-1.7737,-1.7775,0.0,0.0,0.0,0.0,0.0,0.0,0.0,0.0,0.0,0.0,0.0,0.0,0.0,0.0,0.0,0.0,-2.5589,-2.5624,-2.5624,-2.5681,-2.5486,-2.4946,-2.536,-2.5187,-2.4223,-2.4613,-2.4832,-2.4832,-2.4563,-2.4861,-2.5585,-2.4871,-2.5001,-2.5862,-2.5396,-2.5198,-2.5285,-2.5285,-2.4999,-2.4497,-2.4625,-2.4625,-2.4583,-2.4497,-2.4831,-2.5194,-2.4454,-2.475,-2.5485,-2.531,-2.5587,-2.6068,-2.6386,-2.6529,-2.6625,-2.6788,-2.6836,-2.6464,-2.4864,-2.4489,-2.4489,-2.4251,-2.4202,-2.4202,-2.4202,-2.4202,-2.4202,-2.4202,-2.4202,-2.4202,-2.4202,-2.4202,-2.4202,-2.4202,-2.4202,-2.4202,-2.4202,-2.4202,-2.4202,-2.4202,-2.4202,-2.4202,-2.4202,-2.4202,-2.4202,-2.4202,-2.4202,-2.4202,-2.4202,-2.4202,-2.4251,-2.435,-2.5245,-2.5693,-2.5693,-2.5693,-2.5693,-2.5693,-2.5693,-2.5693,-2.5693,-2.5693,-2.5693,-1.5591,-1.5464,-1.5556,-1.5315,0.0,0.0,-1.4752,-1.5441,-1.6417,0.0,0.0,0.0,0.0,0.0,0.0,0.0,0.0,0.0,0.0,0.0,0.0,0.0,0.0,0.0,0.0,-2.4843,-2.5073,-2.5073,-2.5463,-2.5486,-2.4946,-2.5015,-2.4797,-2.4212,-2.4292,-2.4338,-2.4338,-2.4642,-2.4894,-2.5073,-2.5306,-2.5773,-2.6342,-2.5902,-2.5683,-2.577,-2.577,-2.5264,-2.454,-2.5306,-2.538,-2.5031,-2.4658,-2.5019,-2.5743,-2.5591,-2.5888,-2.6384,-2.6666,-2.7384,-2.7982,-2.7285,-2.7437,-2.784,-2.7274,-2.6979,-2.6645,-2.6022,-2.6205,-2.6244,-2.4627,-2.4202,-2.4202,-2.4202,-2.4202,-2.4202,-2.4202,-2.4202,-2.4202,-2.4202,-2.4202,-2.4202,-2.4202,-2.4202,-2.4202,-2.4202,-2.4202,-2.4202,-2.4202,-2.4202,-2.4202,-2.4202,-2.4202,-2.4202,-2.4202,-2.4202,-2.4202,-2.4202,-2.4202,-2.4548,-2.5391,-2.5596,-2.5693,-2.5693,-2.5693,-2.5693,-2.5693,-2.5693,-2.5693,-2.5693,-2.5693,-2.5693,-1.6586,-1.6243,-1.6256,-1.6244,0.0,0.0,0.0,-1.5543,-1.5776,-1.725,0.0,0.0,0.0,0.0,0.0,0.0,0.0,0.0,0.0,0.0,0.0,0.0,0.0,0.0,0.0,-2.4269,-2.4556,-2.4556,-2.4797,-2.4832,-2.4568,-2.4556,-2.4331,-2.3909,-2.4091,-2.4116,-2.3897,-2.4135,-2.436,-2.4556,-2.4633,-2.5043,-2.5746,-2.5294,-2.5381,-2.5906,-2.5633,-2.5433,-2.5221,-2.5728,-2.5884,-2.5779,-2.5115,-2.5295,-2.5886,-2.5648,-2.6012,-2.6682,-2.7391,-2.8098,-2.8701,-2.871,-2.8945,-2.9176,-2.8795,-2.8272,-2.7709,-2.7484,-2.7342,-2.6904,-2.5538,-2.5441,-2.5431,-2.444,-2.5722,-2.7179,-2.7179,-2.7179,-2.7179,-2.7179,-2.5577,-2.4202,-2.4202,-2.4202,-2.4202,-2.4202,-2.4202,-2.4202,-2.4202,-2.4202,-2.4202,-2.4202,-2.4202,-2.4202,-2.4202,-2.4202,-2.4202,-2.4202,-2.4202,-2.4449,-2.4941,-2.544,-2.5693,-2.5693,-2.5693,-2.5693,-2.5693,-2.5693,-2.5693,-2.5693,-2.5693,-2.5693,0.0,0.0,0.0,0.0,0.0,-1.6159,0.0,0.0,0.0,-1.7555,0.0,0.0,0.0,0.0,0.0,0.0,0.0,0.0,0.0,0.0,0.0,0.0,0.0,0.0,0.0,-2.3431,-2.3775,-2.4166,-2.3925,-2.389,-2.4177,-2.42,-2.4043,-2.3714,-2.4043,-2.4043,-2.3714,-2.3629,-2.3787,-2.42,-2.3787,-2.4146,-2.5127,-2.4719,-2.5059,-2.5979,-2.5622,-2.5622,-2.5895,-2.6063,-2.6302,-2.6445,-2.5622,-2.5675,-2.6104,-2.5622,-2.5998,-2.6873,-2.7741,-2.8331,-2.8835,-2.975,-3.0125,-3.0216,-3.0216,-2.9612,-2.9002,-2.9002,-2.8376,-2.7662,-2.7115,-2.7389,-2.7379,-2.5722,-2.7851,-3.0216,-3.0216,-3.0216,-3.0216,-3.0216,-2.7568,-2.5343,-2.5343,-2.5343,-2.5343,-2.5343,-2.4677,-2.4202,-2.4202,-2.4202,-2.4202,-2.4202,-2.4202,-2.4202,-2.4202,-2.4202,-2.4202,-2.4202,-2.4202,-2.4202,-2.4202,-2.5196,-2.5693,-2.5693,-2.5693,-2.5693,-2.5693,-2.5693,-2.5693,-2.5693,-2.5693,-2.5693,0.0,0.0,0.0,0.0,-1.8162,0.0,0.0,0.0,-1.7066,-1.5976,0.0,0.0,0.0,0.0,0.0,0.0,0.0,0.0,0.0,0.0,0.0,0.0,0.0,0.0,0.0,0.0,-2.2282,-2.4062,-2.2949,-2.2777,-2.412,-2.42,-2.4189,-2.4116,-2.4164,-2.4189,-2.4127,-2.3787,-2.3787,-2.42,-2.3787,-2.4307,-2.5588,-2.5138,-2.5478,-2.6445,-2.6362,-2.6166,-2.5948,-2.6727,-2.6839,-2.6445,-2.601,-2.6313,-2.7015,-2.6539,-2.6667,-2.7201,-2.7822,-2.8302,-2.8811,-2.941,-2.9852,-3.0216,-3.0216,-3.0125,-3.0023,-3.0023,-2.9932,-2.984,-2.9795,-2.9795,-2.9783,-2.9555,-2.9886,-3.0216,-3.0216,-3.0216,-3.0216,-3.0216,-2.9829,-2.9509,-2.9509,-2.9509,-2.9509,-2.9509,-2.6474,-2.4202,-2.4202,-2.4202,-2.4202,-2.4202,-2.4202,-2.4202,-2.4202,-2.4202,-2.4202,-2.4202,-2.4202,-2.4202,-2.4202,-2.5196,-2.5693,-2.5693,-2.5693,-2.5693,-2.5693,-2.5693,-2.5693,-2.5693,-2.5693,-2.5693,0.0,0.0,0.0,0.0,0.0,0.0,-1.6975,0.0,-1.6666,0.0,0.0,0.0,0.0,0.0,0.0,0.0,0.0,0.0,0.0,0.0,0.0,0.0,0.0,0.0,0.0,0.0,0.0,0.0,0.0,-2.2157,-2.3648,-2.3728,-2.3782,-2.3849,-2.408,-2.408,-2.3861,-2.3934,-2.4043,-2.42,-2.4043,-2.4419,-2.5305,-2.5088,-2.5547,-2.6487,-2.6487,-2.6539,-2.6685,-2.7067,-2.7097,-2.688,-2.6727,-2.6891,-2.7138,-2.6663,-2.6798,-2.7328,-2.8143,-2.8528,-2.8829,-2.9658,-3.0034,-3.0216,-3.0216,-3.0216,-3.0216,-3.0216,-3.0216,-3.0216,-3.0216,-3.0216,-3.0216,-3.0216,-3.0216,-3.0216,-3.0216,-3.0216,-3.0216,-3.0216,-3.0216,-3.0216,-3.0216,-3.0216,-3.0216,-3.0216,-2.8749,-2.7662,-2.7662,-2.7662,-2.7662,-2.7662,-2.7662,-2.7662,-2.7662,-2.7662,-2.6665,-2.435,-2.4202,-2.4449,-2.5049,-2.5489,-2.5693,-2.5693,-2.5693,-2.5693,-2.5693,-2.5693,-2.5693,-2.5693,-2.5693,-2.5693,-2.0644,0.0,0.0,0.0,0.0,0.0,0.0,0.0,0.0,0.0,0.0,0.0,0.0,0.0,0.0,0.0,0.0,0.0,0.0,0.0,0.0,0.0,0.0,0.0,0.0,0.0,0.0,0.0,0.0,0.0,-2.3098,-2.3327,-2.3426,-2.3537,-2.3975,-2.4043,-2.3787,-2.3934,-2.408,-2.42,-2.408,-2.4456,-2.5177,-2.5177,-2.5757,-2.6704,-2.6704,-2.688,-2.719,-2.719,-2.719,-2.719,-2.719,-2.719,-2.7149,-2.6839,-2.7012,-2.7552,-2.8402,-2.8884,-2.9228,-2.9975,-3.0216,-3.0216,-3.0216,-3.0216,-3.0216,-3.0216,-3.0216,-3.0216,-3.0216,-3.0216,-3.0216,-3.0216,-3.0216,-3.0216,-3.0216,-3.0216,-3.0216,-3.0216,-3.0216,-3.0216,-3.0216,-3.0216,-3.0216,-3.0216,-3.0216,-3.0216,-3.0216,-3.0216,-3.0216,-3.0216,-3.0216,-3.0216,-3.0216,-3.0216,-2.8934,-2.6051,-2.5858,-2.6157,-2.6897,-2.722,-2.7363,-2.7363,-2.6245,-2.6245,-2.7363,-2.7363,-2.7363,-2.7315,-2.6197,-2.6014,0.0,0.0,0.0,-1.8894,0.0,0.0,0.0,0.0,-1.8666,0.0,0.0,0.0,0.0,0.0,-1.7002,-1.572,-1.4956,0.0,0.0,0.0,0.0,0.0,0.0,0.0,0.0,0.0,0.0,0.0,0.0,0.0,-2.2604,-2.3132,-2.3419,-2.3395,-2.3912,-2.4189,-2.4189,-2.3824,-2.3824,-2.42,-2.3824,-2.4344,-2.5677,-2.5677,-2.6227,-2.719,-2.719,-2.719,-2.719,-2.719,-2.719,-2.719,-2.719,-2.719,-2.719,-2.719,-2.7541,-2.8023,-2.8528,-2.9343,-3.017,-3.0204,-3.0216,-3.0216,-3.0216,-3.0216,-3.0216,-3.0216,-3.0216,-3.0216,-3.0216,-3.0216,-3.0216,-3.0216,-3.0216,-3.0216,-3.0216,-3.0216,-3.0216,-3.0216,-3.0216,-3.0216,-3.0216,-3.0216,-3.0216,-3.0216,-3.0216,-3.0216,-3.0216,-3.0216,-3.0216,-3.0216,-3.0216,-3.0216,-3.0216,-3.0216,-3.0114,-3.0034,-3.0023,-3.0023,-3.0034,-3.0982,-3.1528,-3.1528,-2.7683,-2.7636,-3.1528,-3.1528,-3.1528,-3.1427,-2.7494,-2.6754,0.0,0.0,-2.4092,-2.0938,0.0,0.0,0.0,0.0,0.0,0.0,0.0,0.0,0.0,0.0,-1.7556,-1.6541,-1.5489,-1.4426,0.0,0.0,0.0,0.0,0.0,0.0,0.0,0.0,0.0,0.0,-1.9183,0.0,0.0,-2.2662,-2.3098,-2.3396,-2.3936,-2.42,-2.42,-2.408,-2.408,-2.42,-2.4043,-2.4617,-2.5716,-2.5716,-2.6267,-2.719,-2.719,-2.719,-2.719,-2.719,-2.719,-2.719,-2.719,-2.719,-2.719,-2.719,-2.7293,-2.7598,-2.8413,-2.9366,-3.0216,-3.0216,-3.0216,-3.0216,-3.0216,-3.0216,-3.0216,-3.0216,-3.0216,-3.0216,-3.0216,-3.0216,-3.0216,-3.0216,-3.0216,-3.0216,-3.0216,-3.0216,-3.0216,-3.0216,-3.0216,-3.0216,-3.0216,-3.0216,-3.0216,-3.0216,-3.0216,-3.0216,-3.0216,-3.0216,-3.0216,-3.0216,-3.0216,-3.0216,-3.0216,-3.0216,-3.0216,-3.0216,-3.0216,-3.0216,-3.0216,-3.0532,-3.1026,-3.1705,-2.9726,-2.9371,-3.0713,-3.1395,-3.1705,-3.1661,-3.0317,-3.0034,-2.4811,-2.525,0.0,-2.2457,-2.2089,0.0,-1.888,0.0,0.0,0.0,0.0,0.0,0.0,0.0,-1.8058,-1.7612,-1.6012,-1.4287,0.0,-1.2463,0.0,0.0,0.0,0.0,0.0,0.0,-1.6509,-1.8339,0.0,0.0,0.0,0.0,-2.2834,-2.3121,-2.3833,-2.42,-2.42,-2.42,-2.42,-2.42,-2.42,-2.4625,-2.544,-2.5624,-2.6175,-2.6967,-2.711,-2.719,-2.719,-2.719,-2.719,-2.719,-2.719,-2.719,-2.719,-2.719,-2.719,-2.7362,-2.8574,-2.9412,-2.9986,-3.0158,-3.0216,-3.0216,-3.0216,-3.0216,-3.0216,-3.0216,-3.0216,-3.0216,-3.0216,-3.0216,-3.0216,-3.0216,-3.0216,-3.0216,-3.0216,-3.0216,-3.0216,-3.0216,-3.0216,-3.0216,-3.0216,-3.0216,-3.0216,-3.0216,-3.0216,-3.0216,-3.0216,-3.0216,-3.0216,-3.0216,-3.0216,-3.0216,-3.0216,-3.0216,-3.0216,-3.0216,-3.0216,-3.0216,-3.0216,-3.0216,-3.0487,-3.116,-3.0532,-3.0216,-3.0216,-3.0847,-3.116,-3.116,-3.116,-3.135]},{"header":{"parameterUnit":"m.s-1","parameterCategory":1,"la1":30.6,"la2":29.2853,"lo1":-89.7004,"lo2":-87.6739,"dy":0.0162,"dx":0.0183,"nx":112,"ny":82,"refTime":"2026-05-07T00:00:00:Z","depth":0,"parameterNumber":3,"parameterNumberName":"V-component_of_WINDS"},"data":[0.0,0.0,0.0,0.0,0.0,0.0,0.0,0.0,0.0,0.0,0.0,0.0,0.0,0.0,0.0,0.0,0.0,0.0,0.0,0.0,0.0,0.0,0.0,0.0,0.0,0.0,0.0,0.0,0.0,0.0,0.0,0.0,0.0,0.0,0.0,0.0,0.0,0.0,0.0,0.0,0.0,0.0,0.0,0.0,0.0,0.0,0.0,0.0,0.0,0.0,0.0,0.0,0.0,0.0,0.0,0.0,0.0,0.0,0.0,0.0,0.0,0.0,0.0,0.0,0.0,0.0,0.0,0.0,0.0,0.0,0.0,0.0,0.0,0.0,0.0,0.0,0.0,0.0,0.0,0.0,0.0,0.0,0.0,0.0,0.0,0.0,0.0,0.0,0.0,0.0,0.0,2.1782,2.5099,2.6578,2.5184,2.5247,2.34,1.8746,0.0,0.0,0.0,0.0,0.0,0.0,0.0,0.0,0.0,0.0,0.0,0.0,0.0,0.0,0.0,0.0,0.0,0.0,0.0,0.0,0.0,0.0,0.0,0.0,0.0,0.0,0.0,0.0,0.0,0.0,0.0,0.0,0.0,0.0,0.0,0.0,0.0,0.0,0.0,0.0,0.0,0.0,0.0,0.0,0.0,0.0,0.0,0.0,0.0,0.0,0.0,0.0,0.0,0.0,0.0,0.0,0.0,0.0,0.0,0.0,0.0,0.0,0.0,0.0,0.0,0.0,0.0,0.0,0.0,0.0,0.0,0.0,0.0,0.0,0.0,0.0,0.0,0.0,0.0,0.0,0.0,0.0,0.0,0.0,0.0,0.0,0.0,0.0,0.0,0.0,0.0,0.0,0.0,0.0,0.0,0.0,0.0,0.0,0.0,0.0,0.0,0.0,0.0,0.0,1.9835,2.4669,2.6486,2.6785,2.537,2.5526,2.3726,1.9037,0.0,0.0,0.0,0.0,0.0,0.0,0.0,0.0,0.0,0.0,0.0,0.0,0.0,0.0,0.0,0.0,0.0,0.0,0.0,0.0,0.0,0.0,0.0,0.0,0.0,0.0,0.0,0.0,0.0,0.0,0.0,0.0,0.0,0.0,0.0,0.0,0.0,0.0,0.0,0.0,0.0,0.0,0.0,0.0,0.0,0.0,0.0,0.0,0.0,0.0,0.0,0.0,0.0,0.0,0.0,0.0,0.0,0.0,0.0,0.0,0.0,0.0,0.0,0.0,0.0,0.0,0.0,0.0,0.0,0.0,0.0,0.0,0.0,0.0,0.0,0.0,0.0,0.0,0.0,0.0,0.0,0.0,0.0,0.0,0.0,0.0,0.0,0.0,0.0,0.0,0.0,0.0,0.0,0.0,0.0,0.0,0.0,0.0,0.0,0.0,0.0,0.0,0.0,1.9048,2.1296,2.5468,2.6855,2.6921,2.5439,2.5737,2.3972,1.9219,1.7902,0.0,0.0,0.0,0.0,0.0,0.0,0.0,0.0,0.0,0.0,0.0,0.0,0.0,0.0,0.0,0.0,0.0,0.0,0.0,0.0,0.0,0.0,0.0,0.0,0.0,0.0,0.0,0.0,0.0,0.0,0.0,0.0,0.0,0.0,0.0,0.0,0.0,0.0,0.0,0.0,0.0,0.0,0.0,0.0,0.0,0.0,0.0,0.0,0.0,0.0,0.0,0.0,0.0,0.0,0.0,0.0,0.0,0.0,0.0,0.0,0.0,0.0,0.0,0.0,0.0,0.0,0.0,0.0,0.0,0.0,0.0,0.0,0.0,0.0,0.0,0.0,0.0,0.0,0.0,0.0,0.0,0.0,0.0,0.0,0.0,0.0,0.0,0.0,0.0,0.0,0.0,0.0,0.0,0.0,0.0,0.0,0.0,0.0,0.0,0.0,0.0,0.0,2.1626,2.3124,2.5892,2.6909,2.6873,2.5512,2.5422,2.3627,1.9349,1.7355,0.0,0.0,0.0,0.0,0.0,0.0,0.0,0.0,0.0,0.0,0.0,0.0,0.0,0.0,0.0,0.0,0.0,0.0,0.0,0.0,0.0,0.0,0.0,0.0,0.0,0.0,0.0,0.0,0.0,0.0,0.0,0.0,0.0,0.0,0.0,0.0,0.0,0.0,0.0,0.0,0.0,0.0,0.0,0.0,0.0,0.0,0.0,0.0,0.0,0.0,0.0,0.0,0.0,0.0,0.0,0.0,0.0,0.0,0.0,0.0,0.0,0.0,0.0,0.0,0.0,0.0,0.0,0.0,0.0,0.0,0.0,0.0,0.0,0.0,0.0,0.0,0.0,0.0,0.0,0.0,0.0,0.0,0.0,0.0,0.0,0.0,0.0,0.0,0.0,0.0,0.0,0.0,0.0,0.0,0.0,0.0,0.0,0.0,0.0,0.0,0.0,0.0,2.2671,2.5048,2.6829,2.6927,2.653,2.5748,2.4176,2.2108,1.9457,1.6376,0.0,0.0,0.0,0.0,0.0,0.0,0.0,0.0,0.0,0.0,0.0,0.0,0.0,0.0,0.0,0.0,0.0,0.0,0.0,0.0,0.0,0.0,0.0,0.0,0.0,0.0,0.0,0.0,0.0,0.0,0.0,0.0,0.0,0.0,0.0,0.0,0.0,0.0,0.0,0.0,0.0,0.0,0.0,0.0,0.0,0.0,0.0,0.0,0.0,0.0,0.0,0.0,0.0,0.0,0.0,0.0,0.0,0.0,0.0,0.0,0.0,0.0,0.0,0.0,0.0,0.0,0.0,0.0,0.0,0.0,0.0,0.0,0.0,0.0,0.0,0.0,0.0,0.0,0.0,0.0,0.0,0.0,0.0,0.0,0.0,0.0,0.0,0.0,0.0,0.0,0.0,0.0,0.0,0.0,0.0,0.0,0.0,0.0,0.0,0.0,0.0,0.0,2.201,2.4342,0.0,2.7035,2.66,2.6057,2.4611,2.2483,1.9499,0.0,0.0,0.0,0.0,0.0,0.0,0.0,0.0,0.0,0.0,0.0,0.0,0.0,0.0,0.0,0.0,0.0,0.0,0.0,0.0,0.0,0.0,0.0,0.0,0.0,0.0,0.0,0.0,0.0,0.0,0.0,0.0,0.0,0.0,0.0,0.0,0.0,0.0,0.0,0.0,0.0,0.0,0.0,0.0,0.0,0.0,0.0,0.0,0.0,0.0,0.0,0.0,0.0,0.0,0.0,0.0,0.0,0.0,0.0,0.0,0.0,0.0,0.0,0.0,0.0,0.0,0.0,0.0,0.0,0.0,0.0,0.0,0.0,0.0,0.0,0.0,0.0,0.0,0.0,0.0,0.0,0.0,0.0,0.0,0.0,0.0,0.0,0.0,0.0,0.0,0.0,0.0,0.0,0.0,0.0,0.0,0.0,0.0,0.0,0.0,0.0,0.0,1.9804,2.2082,2.4479,0.0,2.7022,2.6503,2.62,2.4243,2.1951,1.9462,0.0,0.0,0.0,0.0,0.0,0.0,0.0,0.0,0.0,0.0,0.0,0.0,0.0,0.0,0.0,0.0,0.0,0.0,0.0,0.0,0.0,0.0,0.0,0.0,0.0,0.0,0.0,0.0,0.0,0.0,0.0,0.0,0.0,0.0,0.0,0.0,0.0,0.0,0.0,0.0,0.0,0.0,0.0,0.0,0.0,0.0,0.0,0.0,0.0,0.0,0.0,0.0,0.0,0.0,0.0,0.0,0.0,0.0,0.0,0.0,0.0,0.0,0.0,0.0,0.0,0.0,0.0,0.0,0.0,0.0,0.0,0.0,0.0,0.0,0.0,0.0,0.0,0.0,0.0,0.0,0.0,0.0,0.0,0.0,0.0,0.0,0.0,0.0,0.0,0.0,0.0,0.0,0.0,0.0,0.0,0.0,0.0,0.0,0.0,0.0,0.0,0.0,1.9995,2.3228,2.5922,2.7526,2.6803,2.6175,2.6121,2.2674,2.0162,0.0,0.0,0.0,0.0,0.0,0.0,0.0,0.0,0.0,0.0,0.0,0.0,0.0,0.0,0.0,0.0,0.0,0.0,0.0,0.0,0.0,0.0,0.0,0.0,0.0,0.0,0.0,0.0,0.0,0.0,0.0,0.0,0.0,0.0,0.0,0.0,0.0,0.0,0.0,0.0,0.0,0.0,0.0,0.0,0.0,0.0,0.0,0.0,0.0,0.0,0.0,0.0,0.0,0.0,0.0,0.0,0.0,0.0,0.0,0.0,0.0,0.0,0.0,0.0,0.0,0.0,0.0,0.0,0.0,0.0,0.0,0.0,0.0,0.0,0.0,0.0,0.0,0.0,0.0,0.0,0.0,0.0,0.0,0.0,0.0,0.0,0.0,0.0,0.0,0.0,0.0,0.0,0.0,0.0,0.0,0.0,0.0,0.0,0.0,0.0,0.0,0.0,0.0,2.0008,2.3293,2.6041,2.779,2.6912,2.6275,2.6436,2.3354,2.0821,1.9389,0.0,0.0,0.0,0.0,0.0,0.0,0.0,0.0,0.0,0.0,0.0,0.0,0.0,0.0,0.0,0.0,0.0,0.0,0.0,0.0,0.0,0.0,0.0,0.0,0.0,0.0,0.0,0.0,0.0,0.0,0.0,0.0,0.0,0.0,0.0,0.0,0.0,0.0,0.0,0.0,0.0,0.0,0.0,0.0,0.0,0.0,0.0,0.0,0.0,0.0,0.0,0.0,0.0,0.0,0.0,0.0,0.0,0.0,0.0,0.0,0.0,0.0,0.0,0.0,0.0,0.0,0.0,0.0,0.0,0.0,0.0,0.0,0.0,0.0,0.0,0.0,0.0,0.0,0.0,0.0,0.0,0.0,0.0,0.0,0.0,0.0,0.0,0.0,0.0,0.0,0.0,0.0,0.0,0.0,0.0,0.0,0.0,0.0,0.0,0.0,0.0,0.0,2.0238,2.3613,2.6384,2.8102,2.714,2.6421,2.6591,2.3639,2.1078,1.9407,0.0,0.0,0.0,0.0,0.0,0.0,0.0,0.0,0.0,0.0,0.0,0.0,0.0,0.0,0.0,0.0,0.0,0.0,0.0,0.0,0.0,0.0,0.0,0.0,0.0,0.0,0.0,0.0,0.0,0.0,0.0,0.0,0.0,0.0,0.0,0.0,0.0,0.0,0.0,0.0,0.0,0.0,0.0,0.0,0.0,0.0,0.0,0.0,0.0,0.0,0.0,0.0,0.0,0.0,0.0,0.0,0.0,0.0,0.0,0.0,0.0,0.0,0.0,0.0,0.0,0.0,0.0,0.0,0.0,0.0,0.0,0.0,0.0,0.0,0.0,0.0,0.0,0.0,0.0,0.0,0.0,0.0,0.0,0.0,0.0,0.0,0.0,0.0,0.0,0.0,0.0,0.0,0.0,0.0,0.0,0.0,0.0,0.0,0.0,0.0,0.0,0.0,2.0601,2.4046,2.6825,2.8438,2.7403,2.6602,2.6602,2.3712,2.1206,1.9517,0.0,0.0,0.0,0.0,0.0,0.0,0.0,0.0,0.0,0.0,0.0,0.0,0.0,0.0,0.0,0.0,0.0,0.0,0.0,0.0,0.0,0.0,0.0,0.0,0.0,0.0,0.0,0.0,0.0,0.0,0.0,0.0,0.0,0.0,0.0,0.0,0.0,0.0,0.0,0.0,0.0,0.0,0.0,0.0,0.0,0.0,0.0,0.0,0.0,0.0,0.0,0.0,0.0,0.0,0.0,0.0,0.0,0.0,0.0,0.0,2.412,0.0,0.0,0.0,0.0,0.0,0.0,0.0,0.0,0.0,0.0,0.0,0.0,0.0,0.0,0.0,0.0,0.0,0.0,0.0,0.0,0.0,0.0,0.0,0.0,0.0,0.0,0.0,0.0,0.0,0.0,0.0,0.0,0.0,0.0,0.0,0.0,0.0,0.0,0.0,0.0,0.0,2.0749,2.4086,2.6825,2.8438,2.7403,2.6602,2.6602,2.4217,2.2034,2.0346,1.7825,0.0,0.0,0.0,0.0,0.0,0.0,0.0,0.0,0.0,0.0,0.0,0.0,0.0,0.0,0.0,0.0,0.0,0.0,0.0,0.0,0.0,0.0,0.0,0.0,0.0,0.0,0.0,0.0,0.0,0.0,0.0,0.0,0.0,0.0,0.0,0.0,0.0,0.0,0.0,0.0,0.0,0.0,0.0,0.0,0.0,0.0,0.0,0.0,0.0,0.0,0.0,0.0,0.0,0.0,0.0,0.0,0.0,0.0,0.0,0.0,2.5524,0.0,0.0,0.0,0.0,0.0,0.0,0.0,0.0,0.0,0.0,0.0,0.0,0.0,0.0,0.0,0.0,0.0,0.0,0.0,0.0,0.0,0.0,0.0,0.0,0.0,0.0,0.0,0.0,0.0,0.0,0.0,0.0,0.0,0.0,0.0,0.0,0.0,0.0,0.0,0.0,2.1649,2.4572,2.7004,2.8627,2.7819,2.7016,2.662,2.474,2.2887,2.1235,1.8823,0.0,0.0,0.0,0.0,0.0,0.0,0.0,0.0,0.0,0.0,0.0,0.0,0.0,0.0,0.0,0.0,0.0,0.0,0.0,0.0,0.0,0.0,0.0,0.0,0.0,0.0,0.0,0.0,0.0,0.0,0.0,0.0,0.0,0.0,0.0,0.0,0.0,0.0,0.0,0.0,0.0,0.0,0.0,0.0,0.0,0.0,0.0,0.0,0.0,0.0,0.0,0.0,0.0,3.3609,3.405,3.4638,3.4751,3.5134,3.5487,3.1762,2.9954,2.9456,0.0,0.0,0.0,0.0,0.0,0.0,0.0,0.0,0.0,0.0,0.0,0.0,0.0,0.0,0.0,0.0,0.0,0.0,0.0,0.0,0.0,0.0,0.0,0.0,0.0,2.7643,2.7489,0.0,0.0,0.0,0.0,0.0,0.0,0.0,0.0,0.0,0.0,0.0,0.0,2.2813,2.5328,2.7372,2.884,2.8282,2.7475,2.6667,2.5254,2.3722,2.2106,1.995,1.8309,0.0,0.0,0.0,0.0,0.0,0.0,0.0,0.0,0.0,0.0,0.0,0.0,0.0,0.0,0.0,0.0,0.0,0.0,0.0,0.0,0.0,0.0,0.0,0.0,0.0,0.0,0.0,0.0,0.0,0.0,0.0,0.0,2.1055,2.2615,0.0,0.0,0.0,0.0,0.0,0.0,0.0,0.0,0.0,0.0,0.0,0.0,0.0,0.0,3.4274,3.6237,3.7308,3.7513,3.8828,3.9471,3.9556,3.958,3.9631,3.9723,3.9581,0.0,3.2134,3.1039,0.0,0.0,0.0,0.0,0.0,0.0,0.0,0.0,0.0,0.0,0.0,0.0,0.0,0.0,0.0,0.0,0.0,0.0,0.0,0.0,0.0,0.0,3.0656,3.0351,3.0451,3.0326,0.0,2.5968,2.2828,2.0934,0.0,0.0,0.0,0.0,0.0,0.0,0.0,0.0,2.3804,2.6153,2.7989,2.8895,2.8282,2.7475,2.6667,2.5778,2.4566,2.2933,2.1877,2.0619,1.9058,1.7447,0.0,0.0,0.0,0.0,0.0,0.0,0.0,0.0,0.0,0.0,0.0,0.0,0.0,0.0,0.0,0.0,0.0,0.0,0.0,0.0,0.0,0.0,0.0,0.0,0.0,0.0,0.0,0.0,0.0,2.1294,2.3684,2.5083,2.5466,2.5273,0.0,0.0,0.0,0.0,0.0,0.0,0.0,0.0,0.0,3.5459,3.6101,3.7173,3.8763,3.9686,4.0373,4.0834,4.1484,4.1809,4.1809,4.1867,4.1892,4.1917,4.2227,4.0677,3.777,3.576,3.3002,2.9968,0.0,0.0,0.0,0.0,0.0,2.8456,2.9325,0.0,0.0,0.0,0.0,0.0,0.0,0.0,0.0,0.0,0.0,0.0,0.0,0.0,0.0,3.348,3.3443,3.3067,3.2368,3.0369,2.7813,0.0,2.3359,2.1825,1.9285,0.0,0.0,0.0,0.0,2.3731,2.5346,2.6869,2.8117,2.8913,2.8675,2.8154,2.7346,2.6539,2.5585,2.441,2.3162,2.2152,2.1418,1.9363,1.7546,0.0,0.0,0.0,0.0,0.0,0.0,0.0,0.0,0.0,0.0,0.0,0.0,0.0,0.0,0.0,0.0,0.0,0.0,0.0,0.0,0.0,0.0,0.0,0.0,0.0,0.0,0.0,0.0,2.426,2.6468,2.7521,2.8782,2.8954,0.0,0.0,0.0,0.0,0.0,0.0,3.4203,3.5239,3.6896,3.9388,3.9766,4.082,4.2704,4.2628,4.2989,4.3777,4.3545,4.3537,4.3657,4.3759,4.3867,4.3999,4.4195,4.3779,4.2737,3.9705,3.69,3.4405,3.3368,3.2203,3.1215,3.183,3.2231,3.2581,3.375,3.431,3.433,3.3176,0.0,3.1171,2.9068,0.0,0.0,0.0,0.0,3.053,3.3151,0.0,3.4484,3.559,3.5594,3.5169,3.4578,3.3642,3.183,0.0,2.7034,2.5668,2.2584,0.0,0.0,0.0,0.0,2.5328,2.6741,2.7603,2.8338,2.8932,2.9005,2.8675,2.786,2.7053,2.6264,2.5448,2.408,2.3208,2.3006,2.1235,1.9675,1.8427,0.0,0.0,0.0,0.0,0.0,0.0,0.0,0.0,0.0,0.0,0.0,0.0,0.0,0.0,0.0,0.0,0.0,0.0,0.0,0.0,0.0,0.0,0.0,0.0,0.0,0.0,0.0,0.0,0.0,3.0183,3.2056,0.0,0.0,0.0,0.0,3.3697,3.5077,3.6608,3.8215,3.9756,4.0963,4.1785,4.3258,4.4389,4.5225,4.5225,4.5621,4.6397,4.5612,4.5545,4.6032,4.6032,4.6288,4.6715,4.7048,4.6586,4.5347,4.2083,3.9608,3.7745,3.655,3.5416,3.4497,3.4844,3.5425,3.6046,3.6115,3.6671,3.7292,3.7206,3.5956,3.4393,3.3868,3.2688,0.0,0.0,3.3731,3.456,3.5813,3.6146,3.6178,3.6252,3.6252,3.6211,3.6174,3.489,3.2999,0.0,2.9989,2.9182,2.6712,0.0,2.608,2.5283,2.5915,2.6778,2.7622,2.8436,2.8968,2.9005,2.9005,2.8675,2.786,2.7053,2.6264,2.5448,2.4622,2.3804,2.3024,2.2878,2.1694,1.9297,1.7612,0.0,0.0,0.0,0.0,0.0,0.0,0.0,0.0,0.0,0.0,0.0,0.0,0.0,0.0,0.0,0.0,0.0,0.0,0.0,0.0,0.0,0.0,0.0,0.0,0.0,0.0,0.0,0.0,3.4599,3.6397,0.0,3.541,3.6436,3.7154,3.7008,3.8813,4.0416,4.1498,4.2534,4.3672,4.4923,4.5492,4.613,4.6862,4.6879,4.7017,4.732,4.7017,4.6971,4.715,4.6664,4.6714,4.7142,4.6791,4.658,4.6413,4.5242,4.4099,4.2982,4.2253,4.1158,3.9984,4.0102,4.0331,4.0472,3.9953,3.9951,4.0061,3.9301,3.842,3.7593,3.7185,3.6674,3.6428,3.7375,3.743,3.7464,3.838,3.823,3.7845,3.7845,3.7441,3.707,3.707,3.6207,3.5,3.3555,3.2027,3.0375,2.8473,2.8998,2.9237,2.7915,2.8833,2.9604,2.9365,2.9586,2.9574,2.906,2.9005,2.8877,2.8601,2.7354,2.6484,2.619,2.4924,2.4061,2.3786,2.2776,2.1812,2.0931,1.8775,1.6878,0.0,0.0,0.0,0.0,0.0,0.0,0.0,0.0,0.0,0.0,0.0,0.0,0.0,0.0,0.0,0.0,0.0,0.0,0.0,0.0,0.0,0.0,0.0,0.0,0.0,0.0,3.6011,3.7499,3.9531,4.0214,3.8659,3.9951,4.0791,4.0549,4.193,4.3241,4.4294,4.4829,4.5665,4.6941,4.6975,4.731,4.8051,4.781,4.781,4.8051,4.7996,4.8047,4.8207,4.7619,4.7607,4.8015,4.7252,4.7093,4.7356,4.7356,4.7087,4.6567,4.5649,4.4853,4.4106,4.3658,4.3469,4.3397,4.2874,4.2494,4.2137,4.1211,4.0539,4.0,3.9623,3.9515,3.9625,4.0157,3.9918,3.957,3.9827,3.9496,3.9038,3.8762,3.8285,3.7915,3.7915,3.7272,3.645,3.5591,3.3917,3.21,3.0491,3.1109,3.1347,3.0008,3.0723,3.1121,3.0301,3.021,2.9886,2.9097,2.9005,2.9005,2.9005,2.7537,2.6602,2.6602,2.5089,2.419,2.419,2.2923,2.2088,2.1812,1.9363,1.7307,1.5698,0.0,0.0,0.0,0.0,0.0,0.0,0.0,0.0,0.0,0.0,0.0,0.0,0.0,0.0,0.0,0.0,0.0,0.0,0.0,0.0,0.0,0.0,0.0,3.1913,3.5677,3.8505,3.8744,4.1343,4.2574,4.1198,4.2447,4.3638,4.4363,4.4414,4.5044,4.6562,4.6648,4.6993,4.7762,4.7779,4.8124,4.8866,4.8159,4.8159,4.8894,4.8688,4.8826,4.927,4.8964,4.911,4.9572,4.8672,4.8287,4.8306,4.8306,4.8306,4.8137,4.6431,4.6187,4.6579,4.5227,4.4714,4.4678,4.4678,4.4139,4.3414,4.3076,4.2394,4.1633,4.1289,4.1168,4.1168,4.1168,4.115,4.0948,4.0139,3.9918,3.9698,3.8891,3.8707,3.8707,3.8707,3.8098,3.729,3.645,3.561,3.4527,3.2913,3.2638,3.2375,3.1586,3.147,0.0,3.0375,3.0246,2.9934,2.9115,2.9005,2.9005,2.9005,2.7537,2.6602,2.6602,2.5089,2.419,2.419,2.3437,2.2611,2.1776,1.9399,1.7381,1.5772,0.0,0.0,0.0,0.0,0.0,0.0,0.0,0.0,0.0,0.0,0.0,0.0,0.0,0.0,0.0,0.0,0.0,0.0,0.0,0.0,0.0,3.3231,3.609,3.6624,3.917,4.1426,4.2578,4.4432,4.544,4.5079,4.5906,4.6562,4.6751,4.6769,4.6958,4.7389,4.7396,4.7909,4.9055,4.9072,4.9653,5.0822,5.0627,5.0627,5.0822,5.0764,5.0809,5.0905,4.9657,4.937,4.981,4.8413,4.7995,4.8306,4.8306,4.8306,4.825,4.776,4.7709,4.7809,4.7432,4.6896,4.6422,4.6422,4.5894,4.5093,4.4419,4.4035,4.3723,4.3041,4.2837,4.2837,4.2837,4.2415,4.1791,4.0983,4.0341,3.9698,3.8891,3.8707,3.8707,3.8707,3.8524,3.7955,3.656,3.6101,3.5422,3.3752,3.3476,3.3403,3.3164,3.3128,0.0,3.2032,3.1421,3.076,2.9971,2.9354,2.9005,2.9005,2.7537,2.6602,2.6602,2.5089,2.419,2.419,2.3437,2.2327,2.0896,2.0199,1.9058,0.0,0.0,0.0,0.0,0.0,0.0,0.0,0.0,0.0,0.0,0.0,0.0,0.0,0.0,0.0,0.0,0.0,0.0,0.0,0.0,0.0,0.0,3.6581,3.941,4.0791,4.2137,4.3414,4.4613,4.5561,4.6234,4.6579,4.6993,4.7389,4.7672,4.7902,4.8159,4.8472,4.8714,4.9337,5.0407,5.0424,5.0809,5.1601,5.1601,5.1601,5.1601,5.1842,5.1939,5.1886,5.0844,5.0369,0.0,4.9354,4.8713,4.8343,4.8691,4.8636,0.0,0.0,0.0,0.0,0.0,4.8012,4.759,4.759,4.7076,4.6342,4.5847,4.5241,4.4617,4.414,4.3754,4.3515,4.3515,4.3149,4.2616,4.1809,4.102,4.0194,3.9386,3.8946,3.8707,3.8707,3.8707,3.8322,3.7052,0.0,0.0,3.4596,3.4027,3.3807,3.3807,3.3807,3.3513,3.2693,3.2192,3.1476,3.032,2.9776,2.9372,2.9023,2.7831,0.0,0.0,0.0,2.4392,2.3731,2.3244,0.0,0.0,0.0,0.0,0.0,0.0,0.0,0.0,1.8667,1.9013,0.0,0.0,0.0,0.0,0.0,0.0,0.0,0.0,0.0,0.0,0.0,0.0,0.0,0.0,0.0,0.0,3.9687,4.1999,4.4018,4.438,4.4665,4.5311,4.5483,4.5811,4.6544,4.6805,4.7195,4.7869,4.8505,4.9134,4.9776,0.0,0.0,0.0,0.0,5.1719,5.1793,5.1775,5.1775,5.1793,5.225,5.2495,5.2481,5.2136,5.161,5.093,5.0747,4.9829,4.8508,4.9169,4.8985,4.8306,4.8306,4.8306,4.8306,4.8306,4.8306,0.0,0.0,0.0,0.0,4.7131,4.6122,4.4948,4.4856,4.4268,4.3626,4.3626,4.357,4.3296,4.2506,4.1772,4.102,4.0102,3.935,3.8817,3.8726,3.8707,3.8469,3.7658,3.7492,3.7015,3.5426,3.4472,3.3899,3.3807,3.3807,3.3532,3.2821,3.2656,3.2051,3.0632,0.0,0.0,2.9207,2.8319,2.7798,2.7798,2.6384,2.4897,2.3465,2.341,2.3033,2.2216,2.229,2.2298,2.2221,2.3075,2.3534,2.3548,2.1291,2.0642,0.0,0.0,0.0,0.0,0.0,0.0,0.0,0.0,0.0,0.0,0.0,0.0,0.0,0.0,0.0,3.8163,4.1343,4.3793,4.4242,4.482,4.5225,4.538,4.5966,4.6441,4.6596,4.8083,4.9082,4.9222,5.0326,5.1058,5.1218,5.1319,0.0,5.2226,5.2244,5.2454,5.289,5.289,5.289,5.289,0.0,0.0,5.3002,5.232,5.1903,5.1701,5.04,4.9665,4.9317,4.8765,4.8453,4.8306,4.8306,4.8306,4.8306,4.8306,4.8306,4.8306,4.8306,4.8214,4.7957,4.7314,4.6892,4.6507,4.5865,4.5112,0.0,4.447,4.3993,4.3296,4.2506,4.2176,4.1699,4.0249,3.9772,3.9478,3.8836,3.8707,3.8469,3.7658,3.7492,3.7199,3.6211,3.5334,3.4546,3.3899,3.3807,3.3733,3.3587,3.2999,3.2472,3.2161,3.098,3.0136,2.9989,2.8631,2.7798,2.7798,2.6906,2.6227,2.5923,2.5905,2.5529,2.4713,2.5346,2.5368,2.4783,2.5614,2.6078,2.6135,2.4397,2.4139,0.0,0.0,0.0,0.0,0.0,0.0,0.0,0.0,0.0,0.0,0.0,3.2938,3.4852,0.0,3.9704,4.1222,4.3051,4.4432,4.4803,4.5156,4.5502,4.5752,4.6169,4.6637,4.7241,4.7986,4.8758,4.953,5.048,5.1173,5.1583,5.2108,5.2522,5.2783,5.2806,5.2934,5.3185,5.3185,5.3185,5.3185,5.3185,5.3185,5.3206,5.2784,5.216,5.1371,5.0987,5.0106,4.8912,4.8489,4.8306,4.8306,4.8306,4.8306,4.8306,4.8306,4.8306,4.8306,4.8306,4.8306,4.8233,4.7828,4.7424,4.7021,4.6617,4.5938,4.5223,4.4801,4.4415,4.392,4.3112,4.2598,4.2103,4.1295,4.0487,3.979,3.9386,3.8982,3.8579,3.8175,3.8102,3.786,3.7052,3.6541,3.5826,3.4582,3.4399,3.4266,3.3844,3.3458,3.3041,3.2638,3.1531,3.0632,3.0228,2.909,2.8227,2.7835,2.742,2.7016,2.662,2.6602,2.641,2.6007,2.6423,2.6475,2.6113,2.6539,2.7005,2.7483,2.6684,2.6437,0.0,0.0,0.0,0.0,0.0,0.0,0.0,2.9161,3.0575,3.2852,3.5025,3.7077,3.8905,4.0532,4.2171,4.4,4.4432,4.4716,4.5311,4.5397,4.5589,4.6137,4.6112,4.6463,4.7548,4.7446,4.7836,4.9074,5.003,5.0795,5.1333,5.2518,5.3143,5.3039,5.3143,5.3185,5.3185,5.3185,5.3185,5.3185,5.3185,5.3185,5.3185,5.3185,5.2491,5.1279,5.161,5.0545,4.8545,4.8379,4.8306,4.8306,4.8306,4.8306,4.8306,4.8306,4.8306,4.8306,4.8306,4.8306,4.8306,4.8306,4.7846,4.7333,4.7333,4.6783,4.5975,4.5168,4.4837,4.4525,4.3699,4.302,4.2488,4.2341,4.1313,4.0267,3.9955,3.9386,3.8891,3.8726,3.8707,3.8487,3.7841,3.7731,3.711,3.5279,3.5004,3.4711,3.3899,3.3807,3.355,3.2894,3.2118,3.1237,3.0283,2.961,2.8895,2.8081,2.8026,2.7732,2.7079,2.706,2.706,2.706,2.7124,2.7159,2.7184,2.7243,2.7636,2.8356,2.8356,2.8119,2.6575,2.6437,2.7454,2.8696,2.9592,3.1249,0.0,3.5801,3.6059,3.8353,4.0095,4.1326,4.1585,4.2896,4.4,4.4259,4.4854,4.5311,4.538,4.5397,4.5589,4.6137,4.5778,4.5736,4.634,4.6991,4.7465,4.7616,4.9788,5.0942,5.0537,5.2231,5.2977,5.2499,5.2955,5.3185,5.3185,5.3185,5.3185,5.3185,5.3185,5.3185,5.3185,5.3185,5.3093,5.2876,5.1518,5.0362,4.939,4.8618,4.8306,4.8306,4.8306,4.8306,4.8306,4.8306,4.8306,4.8306,4.8306,4.8306,4.8306,4.8306,4.8251,4.8177,4.8177,4.759,4.6801,4.5993,4.5259,4.4525,4.3699,4.3441,4.3185,4.247,4.2158,4.1644,4.0212,3.9827,3.9551,3.8836,3.8707,3.867,3.8579,3.8579,3.7753,3.5371,3.5004,3.4711,3.3899,3.3807,3.377,3.3678,3.2963,3.1861,3.0338,3.0118,2.9721,2.8913,2.8877,2.8822,2.8748,2.873,2.873,2.873,2.873,2.8809,2.8912,2.8923,2.9032,2.9248,2.9248,2.9373,3.1507,3.1334,3.1525,3.2559,3.4059,3.5663,3.7167,3.8272,3.9353,4.075,4.2275,4.3345,4.3345,4.4216,4.4941,0.0,4.519,4.5397,4.5397,4.5044,4.4939,4.5435,4.4667,4.4779,4.6466,4.6663,4.6878,4.7317,4.8763,4.9833,5.0352,5.1886,5.2761,5.2868,5.3082,5.3185,5.3185,5.3185,5.3185,5.3185,5.3185,5.3185,5.3185,5.3185,5.2692,5.1775,5.1096,5.0068,4.8838,4.8948,4.8728,4.8306,4.8306,4.8306,4.8306,4.8306,4.8306,4.8306,4.8306,4.8306,4.8306,4.8306,4.8306,4.8306,4.8306,4.7736,4.6929,4.6122,4.5333,4.4525,4.3699,4.3515,4.3423,4.3075,4.2635,4.2121,4.1442,4.0561,3.979,3.946,3.9019,3.8707,3.8707,3.8707,3.8028,3.6064,3.5771,3.5293,3.3972,3.3807,3.3623,3.3146,3.2803,3.2142,3.0999,3.0467,3.0063,2.9721,2.9262,2.9207,2.9684,2.9244,2.9225,2.9684,2.9324,2.9134,2.92,2.9876,3.0222,3.028,3.0748,3.1167,3.4266,3.4628,3.4887,3.5666,3.7698,3.941,3.8876,4.0359,4.193,4.2275,4.3379,4.4242,4.4035,4.4423,4.4872,4.5079,4.5113,4.5156,4.5363,4.4768,4.4446,4.4768,4.387,4.3996,4.6,4.5877,4.6038,4.6916,4.7864,4.8898,5.0013,5.1473,5.2502,5.2955,5.3103,5.3185,5.3185,5.3185,5.3185,5.3185,5.3185,5.3185,5.3185,5.3185,5.2564,5.1463,5.1224,5.0325,4.9022,4.937,4.904,4.8306,4.8306,4.8306,4.8306,4.8306,4.8306,4.8306,4.8306,4.8306,4.8306,4.8306,4.8306,4.8306,4.8306,4.7902,4.7259,4.6471,4.5663,4.4856,4.403,4.3663,4.3515,4.3515,4.3039,4.2561,4.2359,4.1203,4.0175,3.9937,3.9239,3.8707,3.8707,3.8707,3.823,3.6835,3.6431,3.5679,3.4027,3.3807,3.3587,3.2986,3.2931,3.2614,3.1788,3.1201,3.0668,3.0228,2.9647,2.9592,3.0173,2.9629,2.9702,3.0522,3.007,2.9843,2.9854,3.0764,3.1204,3.1242,3.1902,3.2333,3.2955,3.4576,3.6422,3.7236,3.9687,4.1895,4.1878,4.3086,4.4,4.331,4.3776,4.4087,4.3362,4.3241,4.35,4.4225,4.4328,4.4578,4.5294,4.4768,4.4311,4.4319,4.3655,4.3525,0.0,4.4371,4.4869,4.6144,4.74,4.8448,4.9192,5.1013,5.2151,5.2412,5.2934,5.3185,5.3185,5.3185,5.3185,5.3185,5.3185,5.3185,5.3185,5.3185,5.3167,5.3096,5.2307,5.1481,5.0674,4.9922,4.9077,4.8306,4.8306,4.8306,4.8306,4.8306,4.8306,4.8306,4.8306,4.8306,4.8306,4.8306,4.8306,4.8306,4.8306,4.8288,4.8104,4.7278,4.6489,4.5681,4.4874,4.4085,4.3515,4.3515,4.3478,4.324,4.247,4.1662,4.082,4.0047,3.9239,3.8707,3.8707,3.8707,3.8414,3.7584,3.6813,3.5679,3.4027,3.3807,3.3788,3.377,3.3752,3.344,3.2619,3.2546,3.1849,3.0301,3.0173,3.0173,3.021,3.0173,3.054,3.136,3.1415,3.1457,3.1542,3.1821,3.1999,3.2059,3.2287,3.2395,3.5545,3.7232,3.887,4.0146,4.2033,4.3534,4.3534,4.3931,4.4225,4.3983,4.331,4.2706,4.2465,4.2413,4.2654,4.3448,4.3983,4.457,4.5294,4.4768,4.4121,4.3621,4.3345,0.0,0.0,0.0,0.0,4.6109,4.7044,4.8199,4.9663,5.0826,5.1923,5.2893,5.3121,5.3185,5.3185,5.3185,5.3185,5.3185,5.3185,5.3185,5.3185,5.3185,5.2913,5.2417,5.2674,5.1738,5.0013,5.0288,4.9572,4.8306,4.8306,4.8306,4.8306,4.8306,4.8306,4.8306,4.8306,4.8306,4.8306,4.8306,4.8306,4.8306,4.8306,4.792,4.7443,4.7186,4.614,4.5039,4.4782,4.4103,4.3515,4.3515,4.3515,4.3441,4.3149,4.2047,4.1022,4.0763,3.9625,3.8707,3.8707,3.8707,3.8248,3.6923,3.5991,3.5041,3.3935,3.3807,3.3807,3.3807,3.3807,3.3697,3.3421,3.2913,3.2362,3.183,3.1292,3.1237,3.1757,3.1274,3.1458,3.2449,3.1998,3.1862,3.2068,3.2862,3.327,3.3306,3.3965,3.4334,3.7754,3.937,4.0888,4.2447,4.3776,4.4613,4.4363,4.4311,4.4069,4.3258,4.2085,4.1032,4.0498,4.017,4.0411,4.174,4.2585,4.3534,4.4837,4.4596,4.4121,4.3655,4.3362,4.3293,0.0,0.0,0.0,4.6358,4.6894,4.8057,5.0162,5.0787,5.1715,5.3148,5.3185,5.3185,5.3185,5.3185,5.3185,5.3185,5.3185,5.3185,5.3185,5.3185,5.2931,5.2454,5.2986,5.1995,5.0068,5.0582,4.9811,4.8306,4.8306,4.8306,4.8306,4.8306,4.8306,4.8306,4.8306,4.8306,4.8306,4.8306,4.8306,4.8306,4.8306,4.7938,4.7516,4.7516,4.6581,4.548,4.5204,4.4525,4.3864,4.357,4.3515,4.3515,4.3515,4.2451,4.1425,4.115,4.0029,3.9038,3.8762,3.8707,3.8248,3.6927,3.6009,3.5059,3.3935,3.3807,3.3807,3.3807,3.3807,3.3807,3.3807,3.333,3.2913,3.2619,3.2118,3.2063,3.2583,3.2195,3.2439,3.3417,3.3109,3.3022,3.3194,3.3974,3.4366,3.4385,3.5005,3.5339,3.9405,4.094,4.2482,4.3983,4.4854,4.5156,4.4466,4.419,4.3448,4.124,4.0043,3.8957,3.7478,3.668,3.6973,3.9215,4.0377,4.1757,4.4052,4.4363,4.4345,0.0,0.0,0.0,0.0,0.0,0.0,4.674,0.0,4.8015,5.0615,5.0784,5.1518,5.3075,5.3167,5.3185,5.3185,5.3185,5.3185,5.3185,5.3185,5.3185,5.3185,5.317,5.3151,5.3151,5.3093,5.2197,5.0747,5.0747,4.9793,4.8306,4.8306,4.8306,4.8306,4.8306,4.8306,4.8306,4.8306,4.8306,4.8306,4.8306,4.8306,4.8306,4.8306,4.8306,4.8306,4.8306,4.7718,4.6911,4.6104,4.5296,4.4507,4.3681,4.3515,4.3515,4.3515,4.2873,4.2066,4.1297,4.0487,3.9643,3.8836,3.8707,3.8432,3.7621,3.685,3.5752,3.4082,3.3825,3.3807,3.3807,3.3807,3.3807,3.3807,3.3807,3.3476,3.2711,3.2682,3.2682,3.2682,3.2943,3.3452,3.4228,3.4614,3.4812,3.4851,3.5098,3.5218,3.5226,3.5417,3.5403,4.0991,4.2551,4.3949,4.4889,4.4854,4.4527,4.4345,4.2534,4.0543,3.9428,3.7254,3.5059,3.3524,3.4473,3.6042,3.7789,4.0135,0.0,4.4803,4.513,0.0,4.438,0.0,4.4699,4.4345,4.4803,0.0,0.0,4.6701,4.7781,4.979,5.0472,5.1261,5.227,5.2894,5.3185,5.3185,5.3185,5.3185,5.3185,5.3185,5.3185,5.3167,5.2582,5.2307,5.227,5.1683,5.0839,4.9922,4.9922,4.926,4.8306,4.8306,4.8306,4.8306,4.8306,4.8306,4.8306,4.8306,4.8306,4.8306,4.8306,4.8306,4.8306,4.8306,4.8306,4.8306,4.8306,4.7718,4.6911,4.6104,4.5296,4.4507,4.3681,4.3515,4.3515,4.3515,4.2873,4.2249,4.2029,4.0855,3.9643,3.8836,3.8707,3.8432,3.7621,3.7327,3.6578,3.4912,3.4174,3.3807,3.3807,3.3807,3.3807,3.3807,3.3807,3.3715,3.3513,3.3685,3.3802,3.3802,3.4102,3.4458,3.486,3.4972,3.5113,3.5312,3.5383,3.5424,3.5424,3.5479,3.546,4.2706,4.3871,4.4803,4.4889,4.4596,4.3862,4.2189,4.0463,3.8525,3.6094,3.4266,3.2507,3.0644,3.2162,3.4197,3.577,3.8801,4.1802,4.4113,4.4983,4.5242,0.0,4.5139,0.0,4.482,4.5156,4.5615,0.0,4.6631,4.7585,4.9161,4.9894,5.0802,5.1958,5.2435,5.2839,5.3185,5.2858,5.2858,5.3185,5.3185,5.3185,5.3167,5.2362,5.1995,5.1958,0.0,5.0343,4.961,4.961,4.9077,4.8306,4.8306,4.8306,4.8306,4.8306,4.8306,4.8306,4.8306,4.8306,4.8306,4.8306,4.8306,4.8306,4.8306,4.8306,4.8306,4.8306,4.7957,4.7351,4.6195,4.5571,4.4929,4.3773,4.3515,4.3515,4.3515,4.3149,4.2708,4.2378,4.1001,3.9753,3.9294,3.8927,3.856,3.8083,3.7731,3.7162,3.6229,3.5073,3.4192,3.3844,3.3807,3.3807,3.3807,3.3807,3.3842,3.3972,3.4111,3.426,3.4368,3.4675,3.4926,3.5096,3.5215,3.5354,3.55,3.55,3.55,3.55,3.55,3.55,4.4259,4.4906,4.5207,4.4475,4.4156,4.3051,3.9428,3.8198,3.6628,3.2369,3.1248,3.0403,2.8334,2.9817,3.1955,3.3803,3.7077,4.0319,4.2965,4.444,4.5276,4.538,4.5397,4.5397,4.5397,4.5397,4.5589,4.6062,4.6584,4.7398,4.8583,4.9243,5.029,5.1775,5.183,5.2179,5.2855,5.2197,5.2234,5.3041,5.3041,5.3041,5.3023,5.2215,5.1775,5.1628,0.0,0.0,4.9445,4.9445,4.8967,4.8306,4.8306,4.8306,4.8306,4.8306,4.8306,4.8306,4.8306,4.8306,4.8306,4.8306,4.8306,4.8306,4.8306,4.8306,4.8306,4.8306,4.8306,4.7939,4.6324,4.5902,4.548,4.3882,4.3515,4.3515,4.3515,4.3515,4.3259,4.2451,4.1167,4.0139,3.9953,3.9313,3.8817,3.8726,3.8102,3.7621,3.7511,3.6138,3.4857,3.4045,3.3972,3.3917,3.3807,3.3829,3.3947,3.4185,3.4262,3.4461,3.4814,3.4973,3.5143,3.5318,3.5434,3.55,3.55,3.55,3.55,3.55,3.55,3.55,4.501,4.5294,4.5207,4.4475,4.3345,4.1716,3.9163,3.6146,3.3128,3.0455,2.8403,2.6782,2.5781,2.7454,3.011,3.3544,3.6236,3.9341,4.3517,4.4345,4.4716,4.5328,4.5397,4.5397,4.5397,4.5397,0.0,0.0,0.0,4.7165,4.7769,4.895,5.0033,5.0986,5.1004,5.1077,5.1224,5.1077,5.1408,5.2197,5.2197,5.2197,5.2179,5.1371,5.0637,4.9978,0.0,0.0,4.8526,4.8526,4.8434,4.8306,4.8306,4.8306,4.8306,4.8306,4.8306,4.8306,4.8306,4.8306,4.8306,4.8306,4.8306,4.8306,4.8306,4.8306,4.8306,4.8306,4.8306,4.7939,4.6324,4.5902,4.548,4.3882,4.3515,4.3515,4.3515,4.3515,4.3259,4.2451,4.2066,4.146,4.012,3.9772,3.946,3.8799,3.8579,3.8248,3.7584,3.667,3.5752,3.4876,3.4784,3.4509,3.3862,3.3998,3.4148,3.4197,3.4622,3.522,3.5979,3.5629,3.5732,3.6418,3.5813,3.55,3.55,3.55,3.55,3.55,3.55,3.55,4.519,4.5397,4.5121,4.4018,4.2861,4.0998,3.715,3.4214,3.1334,2.7868,2.6299,2.5178,2.4008,2.6316,2.9127,3.1351,3.3955,3.7185,4.1326,4.2275,4.3103,4.463,4.5156,4.5397,4.5397,4.5397,4.5397,0.0,0.0,4.6999,4.7226,4.8737,4.9757,5.0105,5.016,5.038,5.0802,5.038,5.0784,5.1995,5.1995,5.1995,5.1958,5.1169,5.0362,4.9555,4.8673,0.0,4.8306,4.8306,4.8306,4.8306,4.8306,4.8306,4.8306,4.8306,4.8306,4.8306,4.8306,4.8306,4.8306,4.8306,4.8306,4.8306,4.8306,4.8306,4.8306,4.8306,4.8012,4.7388,4.6214,4.559,4.4984,4.3773,4.3515,4.3515,4.3515,4.3515,4.3404,4.3002,4.2598,4.2047,4.1277,4.0451,3.9772,3.9386,3.8964,3.856,3.8175,3.779,3.7074,3.5811,3.5261,3.5073,3.5299,3.502,3.5111,3.5818,3.6139,3.6547,3.7109,3.6884,3.6947,3.7373,3.7007,3.6796,3.6796,3.6796,3.6796,3.6796,3.6796,3.6796,4.519,4.5397,4.5035,4.3569,4.2361,4.0146,3.5028,3.2403,2.9868,2.5626,2.4626,2.4181,2.3129,2.5387,2.7868,2.9282,3.1679,3.4783,3.8888,4.0308,4.1757,4.4035,4.4958,0.0,4.5397,4.5397,0.0,0.0,0.0,0.0,4.72,4.8553,4.9317,4.9242,4.9279,4.9627,5.027,4.9627,5.0051,5.1481,5.1481,5.1481,5.1444,5.082,5.0086,4.928,4.86,0.0,0.0,4.8306,4.8306,4.8306,4.8306,4.8306,4.8306,4.8306,4.8306,4.8306,4.8306,4.8306,4.8306,4.8306,4.8306,4.8306,4.8306,4.8306,4.8306,4.8306,4.7718,4.6911,4.6104,4.5296,4.4507,4.3681,4.3515,4.3515,4.3515,4.3515,4.3515,4.3515,4.2983,4.2506,4.2323,4.124,4.0286,3.9937,3.935,3.8891,3.8726,3.8707,3.823,3.6945,3.6103,3.591,3.6643,3.6155,3.628,3.7325,3.7509,3.7735,3.8145,3.7982,3.8028,3.8277,3.8104,3.8007,3.8007,3.8007,3.8007,3.8007,3.8007,3.8007,4.519,4.5397,4.5035,4.3569,4.155,3.8698,3.4076,3.0782,2.7799,2.4577,2.3371,2.3078,2.3612,2.3991,2.5387,2.892,3.0351,3.2819,3.7974,3.998,4.1757,4.4035,4.4958,0.0,4.5397,4.5397,0.0,0.0,0.0,0.0,4.8189,4.8341,4.8416,4.8416,4.8416,4.8453,4.8526,4.8471,4.8893,4.9831,4.9831,4.9831,4.9831,4.9739,4.9242,4.8416,0.0,0.0,0.0,4.8306,4.8306,4.8306,4.8306,4.8306,4.8306,4.8306,4.8306,4.8306,4.8306,4.8306,4.8306,4.8306,4.8306,4.8306,4.8306,4.8306,4.8306,4.8306,4.7718,4.6911,4.6104,4.5296,4.4507,4.3681,4.3515,4.3515,4.3515,4.3515,4.3515,4.3515,4.3441,4.3149,4.2433,4.2176,4.157,4.012,3.9827,3.9533,3.8799,3.8707,3.8652,3.8505,3.7964,3.7379,3.6762,3.7028,3.7267,3.7402,3.7622,3.8144,3.8958,3.8281,3.8308,3.9161,3.8392,3.8007,3.8007,3.8007,3.8007,3.8007,3.8007,3.8007,4.4285,4.4734,4.4475,4.3465,4.1101,3.7956,3.3835,3.0575,2.7523,2.4439,2.3216,2.2785,2.3078,2.3509,2.4594,2.7059,2.773,2.9472,3.3886,3.5818,3.7996,4.1153,4.3026,4.4423,0.0,0.0,4.5752,0.0,0.0,0.0,4.8304,4.8802,4.8838,4.8324,4.8306,4.8306,4.8306,4.8306,4.8728,4.961,4.961,4.961,4.961,4.961,4.9114,4.8306,0.0,0.0,0.0,4.8306,4.8306,4.8306,4.8306,4.8306,4.8306,4.8306,4.8306,4.8306,4.8306,4.8306,4.8306,4.8306,4.8306,4.8306,4.8306,4.8306,4.8306,4.8306,4.737,4.6305,4.5975,4.4929,4.3901,4.3588,4.3515,4.3515,4.3515,4.3515,4.3515,4.3515,4.3515,4.3387,4.3075,4.2616,4.2084,4.1442,4.0506,3.9772,3.946,3.9001,3.8765,3.8921,3.8326,3.8029,3.8359,3.8258,3.846,3.9099,3.932,3.9578,3.9939,3.9634,3.9646,4.0015,3.9688,3.9496,3.9496,3.9496,3.9496,3.9496,3.9496,3.9496,4.2741,4.3638,4.3741,4.2758,4.0204,3.6922,3.311,2.9903,2.6919,2.406,2.306,2.2699,2.2699,2.3129,2.3905,2.5198,2.5801,2.7437,3.1265,3.3317,3.5732,3.9284,4.1378,4.312,0.0,4.5415,4.6144,0.0,0.0,0.0,4.8342,4.9133,4.9187,4.8343,4.8306,4.8306,4.8306,4.8306,4.8618,4.9225,4.9225,4.9225,4.9225,4.9225,4.8875,4.8306,0.0,0.0,0.0,4.8306,4.8306,4.8306,4.8306,4.8306,4.8306,4.8306,4.8306,4.8306,4.8306,4.8306,4.8306,4.8306,4.8306,4.8306,4.8306,4.8306,4.8306,4.8306,4.7168,4.5828,4.5332,4.4359,4.3513,4.3496,4.3515,4.3515,4.3532,4.3496,4.3515,4.3532,4.3496,4.3515,4.3515,4.302,4.2561,4.2341,4.113,4.0175,3.9918,3.9277,3.8896,3.9073,3.8723,3.8808,3.9555,3.9347,3.949,4.0241,4.0415,4.0485,4.0502,4.0495,4.05,4.0496,4.05,4.05,4.0496,4.05,4.05,4.0496,4.0496,4.0496,4.0515,4.205,4.2844,4.1309,3.8617,3.5335,3.1576,2.8334,2.5473,2.3181,2.2699,2.2699,2.2699,2.2699,2.2957,2.3698,2.5094,2.7437,3.1265,3.3749,3.6301,3.9336,4.0429,4.1533,4.3069,4.5423,4.6886,0.0,0.0,0.0,4.8361,4.9133,4.9187,4.8343,4.8306,4.8306,4.8306,4.8306,4.8306,4.8324,4.8324,4.8324,4.8324,4.8324,4.8324,0.0,0.0,0.0,0.0,4.8306,4.8306,4.8306,4.8306,4.8306,4.8306,4.8306,4.8306,4.8306,4.8306,4.8306,4.8306,4.8306,4.8306,4.8306,4.8306,4.8306,4.8306,4.8306,4.7243,4.5697,4.3973,4.3566,4.3582,4.3532,4.3515,4.3532,4.3582,4.3566,4.3513,4.3582,4.3566,4.3515,4.3515,4.3496,4.3222,4.2415,4.1625,4.0799,3.9992,3.9435,3.9101,3.9101,3.9568,3.9873,3.9903,4.0129,4.0288,4.0307,4.0362,4.0432,4.0502,4.0502,4.0507,4.0496,4.0507,4.0507,4.0496,4.0507,4.0507,4.0496,4.0496,4.0496,3.6715,3.7715,3.8254,3.7254,3.5094,3.2507,2.9748,2.7558,2.5439,2.3164,2.2699,2.2699,2.2699,2.2699,2.3457,2.5816,2.6592,2.8058,3.1334,3.4197,3.6697,3.8698,4.1923,4.4182,0.0,0.0,0.0,0.0,0.0,0.0,4.8361,4.9133,4.9187,4.8343,4.8306,4.8306,4.8306,4.8306,4.8306,4.8306,4.8306,4.8306,4.8306,4.8306,0.0,0.0,0.0,0.0,0.0,4.8306,4.8306,4.8306,4.8306,4.8306,4.8306,4.8306,4.8306,4.8306,4.8306,4.8306,4.8306,4.8306,4.8306,4.8306,4.8306,4.8306,4.8215,4.7758,4.6929,4.5913,4.4758,4.4023,4.3582,4.3565,4.3531,4.3513,4.3582,4.3566,4.3513,4.3582,4.3582,4.3565,4.3565,4.3565,4.3474,4.3166,4.2433,4.1644,4.0836,4.0251,3.9779,3.9419,3.9693,3.9903,3.9903,4.0148,4.0307,4.0307,4.0362,4.0432,4.0502,4.0502,4.0507,4.0496,4.05,4.05,4.0496,4.05,4.05,4.0496,4.0496,4.0496,3.3059,3.4456,3.5283,3.4525,3.261,3.0403,2.8437,2.6557,2.4749,2.3043,2.2699,2.2699,2.2699,2.2699,2.3319,2.5247,2.6057,2.7489,3.0506,3.3542,3.6456,3.9152,4.2492,0.0,0.0,4.5835,0.0,0.0,0.0,0.0,0.0,4.8802,4.8857,4.8324,4.8306,4.8306,4.8306,4.8306,4.8306,4.8306,4.8306,4.8306,4.8306,4.8306,0.0,0.0,0.0,0.0,0.0,4.8306,4.8306,4.8306,4.8306,4.8306,4.8306,4.8306,4.8325,4.8382,4.8382,4.8382,4.8382,4.8382,4.8382,4.8382,4.8401,4.8382,4.8235,4.75,4.6983,4.6372,4.5161,4.4498,4.4036,4.3741,4.36,4.3548,4.3651,4.36,4.3548,4.3582,4.3599,4.3599,4.3599,4.3582,4.3548,4.3531,4.2817,4.2138,4.1656,4.1201,4.0801,4.0503,4.0787,4.098,4.098,4.0587,4.0362,4.0379,4.0402,4.0455,4.0507,4.0487,4.0503,4.0496,4.0811,4.0949,4.0946,4.0949,4.0787,4.046,4.046,4.046,0.0,3.1836,3.3354,3.2541,3.0748,2.8816,2.7385,2.5367,0.0,2.2854,2.2699,2.2733,2.2836,2.2767,2.2802,2.3129,2.4336,2.6316,2.9403,3.2559,3.6236,4.0705,4.2482,0.0,4.3362,4.5092,0.0,0.0,0.0,0.0,0.0,4.8306,4.8306,4.8306,4.8306,4.8306,4.8306,4.8306,4.8306,4.8306,4.8306,4.8306,4.8306,4.8306,0.0,0.0,0.0,0.0,0.0,4.8306,4.8306,4.8306,4.8306,4.8306,4.8306,4.8306,4.8401,4.8513,4.8513,4.8494,4.8513,4.8513,4.8513,4.8513,4.8587,4.8569,4.8366,4.7629,4.7369,4.6962,4.5326,4.4899,4.4727,4.3989,4.3684,4.3651,4.3769,4.3703,4.3599,4.3599,4.3615,4.3615,4.3599,4.3566,4.3549,4.3582,4.2906,4.2393,4.2384,4.2139,4.198,4.2058,4.2484,4.2774,4.2774,4.1417,4.0569,4.0562,4.0572,4.0577,4.0577,4.0577,4.0604,4.0681,4.1398,4.1794,4.179,4.1794,4.1374,4.0579,4.0522,4.0522,2.5215,0.0,2.7799,2.704,2.6454,2.5816,0.0,2.4198,2.3595,2.2854,2.2699,2.306,2.4247,2.3505,2.3836,2.7351,2.773,2.8868,3.2507,3.665,4.0543,4.3958,4.4656,4.4889,4.4889,0.0,0.0,0.0,0.0,4.7816,0.0,4.8306,4.8306,4.8306,4.8306,4.8306,4.8306,4.8306,4.8306,4.8306,4.8306,4.8306,4.8306,4.8306,0.0,0.0,0.0,0.0,4.8306,4.8306,4.8306,4.8306,4.8306,4.8363,4.8457,4.8457,4.8495,4.8569,4.8513,4.8532,4.8569,4.8569,4.8569,4.8605,4.8715,4.8751,4.8678,4.8511,4.7601,4.6596,4.6069,4.5051,4.4108,4.3857,4.3788,4.3753,4.3788,4.3788,4.3753,4.3753,4.3783,4.3783,4.3615,4.3667,4.3686,4.3531,4.3349,4.3001,4.2411,4.2437,4.2292,4.1706,4.2121,4.2446,4.2479,4.2333,4.1954,4.1303,4.1301,4.1347,4.1347,4.1391,4.1716,4.2321,4.2524,4.262,4.2629,4.262,4.2515,4.2304,4.1681,4.171,2.2888,2.4681,2.6557,2.6143,2.5781,2.5387,2.4956,2.4043,2.3181,2.2785,2.2699,2.306,2.4232,2.406,2.4663,2.7489,2.8489,3.0489,3.5028,3.8979,4.2268,4.463,4.5173,4.5397,0.0,0.0,0.0,0.0,0.0,4.7569,0.0,4.8306,4.8306,4.8306,4.8306,4.8306,4.8306,4.8306,4.8306,4.8306,4.8306,4.8306,4.8306,4.8306,4.8306,0.0,0.0,0.0,4.8306,4.8306,4.8306,4.8306,4.8363,4.8438,4.8494,4.8532,4.8606,4.8697,4.8661,4.8661,4.8697,4.8697,4.8697,4.8715,4.8804,4.8857,4.884,4.8804,4.7932,4.691,4.6433,4.5379,4.436,4.3973,4.3867,4.3853,4.3853,4.382,4.3804,4.3804,4.3786,4.3751,4.3684,4.3703,4.3667,4.3548,4.3566,4.3384,4.2943,4.3132,4.315,4.2735,4.3064,4.3322,4.3359,4.3504,4.3017,4.1686,4.1971,4.2038,4.1655,4.2046,4.2621,4.3417,4.3455,4.3446,4.3398,4.3398,4.3139,4.2609,4.217,4.2127,2.2181,2.4574,2.7006,2.654,2.6178,2.5887,2.5766,2.425,2.2871,2.2871,2.2871,2.3164,2.4146,2.4902,2.5712,2.6799,2.8885,3.2162,3.7305,4.0325,4.2595,4.4276,4.5027,0.0,0.0,0.0,0.0,0.0,0.0,4.7288,0.0,4.8267,4.8306,4.8306,4.8306,4.8306,4.8306,4.8306,4.8306,4.8306,4.8306,4.8306,4.8306,4.8306,4.8306,0.0,0.0,0.0,4.8306,4.8306,4.8306,4.8343,4.8438,4.8494,4.855,4.8587,4.8678,4.8822,4.8822,4.8804,4.8804,4.8804,4.8822,4.8822,4.8891,4.8909,4.8891,4.884,4.8248,4.7451,4.6711,4.5821,4.4967,4.4326,4.4035,4.3913,4.3897,4.3867,4.3837,4.382,4.3734,4.3701,4.3788,4.3719,4.3615,4.3599,4.3582,4.3582,4.3582,4.3781,4.3958,4.3999,4.426,4.4411,4.4411,4.4465,4.3756,4.2011,4.2604,4.2737,4.2094,4.2842,4.357,4.418,4.4258,4.4218,4.4054,4.4096,4.3588,4.2626,4.2475,4.236,2.3988,2.5367,2.5663,2.3108,2.3833,2.4988,2.4301,2.3888,2.3629,2.3629,2.3629,2.4267,2.6385,2.6851,2.7816,3.0489,3.2835,3.5732,0.0,0.0,4.2802,4.4966,0.0,4.5397,0.0,0.0,0.0,0.0,0.0,0.0,0.0,4.8075,4.8306,4.8306,4.8306,4.8306,4.8306,4.8306,4.8306,4.8306,4.8306,4.8306,4.8306,4.8306,4.8306,0.0,0.0,4.8306,4.8306,4.8306,4.8363,4.8457,4.8363,4.8495,4.8733,4.8642,4.8732,4.8891,4.8891,4.8857,4.8804,4.8856,4.8891,4.8891,4.8909,4.8909,4.8909,4.8891,4.8316,4.7647,4.7517,4.6385,4.5217,4.4985,4.4443,4.3958,4.3913,4.3945,4.3942,4.3899,4.391,4.3913,4.382,4.3788,4.3736,4.3634,4.3548,4.3532,4.3532,4.3548,4.3582,4.3599,4.3892,4.4079,4.4079,4.4275,4.3987,4.2943,4.331,4.3615,4.3733,4.4507,4.4859,4.4702,4.4963,4.4863,4.4331,4.4581,4.448,4.4057,4.3316,4.3345,2.1854,2.306,2.3922,2.2543,2.4818,2.7333,2.6956,2.6264,2.5695,2.5695,2.5695,2.6143,2.7609,2.8575,3.0248,3.368,0.0,3.8387,4.0601,4.2258,4.3613,0.0,0.0,0.0,0.0,0.0,0.0,0.0,0.0,0.0,0.0,0.0,4.8035,4.8287,4.8306,4.8306,4.8306,4.8306,4.8306,4.8306,4.8306,4.8306,4.8306,4.8306,4.8306,4.8306,0.0,4.8306,4.8306,4.8306,4.8343,4.8401,4.8439,4.855,4.8715,4.875,4.882,4.8909,4.8909,4.8874,4.8856,4.8891,4.8909,4.8909,4.8909,4.8909,4.8909,4.8909,4.8314,4.7701,4.7701,4.6828,4.5937,4.5869,4.5273,4.4676,4.4663,4.4276,4.3961,4.3942,4.3913,4.3883,4.3804,4.3804,4.3736,4.3583,4.3548,4.3531,4.3496,4.3515,4.3515,4.3515,4.3666,4.3781,4.3781,4.3905,4.3916,4.3811,4.354,4.3643,4.4232,4.4618,4.4733,4.4585,4.4752,4.4669,4.4397,4.4519,4.4457,4.4177,4.377,4.37,2.0527,2.1509,2.2836,2.3353,2.599,2.8678,2.9575,2.8627,2.7713,2.823,2.8351,2.8523,2.9092,3.0731,3.3059,3.6301,3.8594,4.0325,4.1309,4.3086,0.0,0.0,0.0,0.0,0.0,0.0,0.0,0.0,0.0,0.0,0.0,0.0,4.7653,4.8132,4.8132,4.8191,4.8306,4.8306,4.8306,4.8306,4.8306,4.8306,4.8306,4.8306,4.8306,4.8306,4.8306,4.8306,4.8306,4.8306,4.8325,4.8382,4.8532,4.8605,4.8678,4.8838,4.8909,4.8909,4.8909,4.8909,4.8909,4.8909,4.8909,4.8909,4.8909,4.8909,4.8909,4.8909,4.8463,4.798,4.798,4.7386,4.6773,4.6773,4.616,4.5528,4.5342,4.4737,4.4186,4.4026,4.3897,4.382,4.382,4.3769,4.3703,4.3549,4.3548,4.3548,4.3515,4.3515,4.3515,4.3515,4.3566,4.3565,4.3565,4.3565,4.3744,4.4173,4.3633,4.3629,4.4364,4.4397,4.4374,4.4303,4.4374,4.4327,4.4202,4.4275,4.4162,4.3894,4.3894,4.3749,2.294,2.3095,2.3216,2.5318,2.5592,2.6247,2.9799,2.942,2.892,3.1041,3.1472,3.1489,3.1541,3.3921,3.6456,3.8146,3.9773,4.1343,4.2827,0.0,0.0,0.0,0.0,0.0,0.0,0.0,0.0,0.0,0.0,0.0,0.0,0.0,0.0,4.7632,4.7653,4.7856,4.8287,4.8306,4.8306,4.8306,4.8306,4.8306,4.8306,4.8306,4.8306,4.8306,4.8306,4.8306,4.8306,4.8306,4.842,4.8569,4.8532,4.8624,4.8804,4.8874,4.8909,4.8909,4.8909,4.8909,4.8909,4.8909,4.8909,4.8909,4.8909,4.8909,4.8909,4.8909,4.8872,4.8816,4.8816,4.8221,4.7608,4.7608,4.6995,4.6197,4.5454,4.5249,4.4971,4.4153,4.3945,4.3881,4.3881,4.3751,4.3599,4.3582,4.3531,4.3515,4.3515,4.3515,4.3515,4.3515,4.3496,4.3515,4.3515,4.3515,4.3513,4.3565,4.3788,4.4061,4.4402,4.4397,4.4275,4.4033,4.426,4.4129,4.3565,4.3876,4.386,4.3549,4.3549,4.3513,2.0889,2.2181,2.3715,2.5092,2.6281,2.7868,3.0731,3.1662,3.2438,3.4231,3.4594,3.4594,3.4594,3.5939,3.7392,3.8422,4.0705,4.2534,4.312,0.0,0.0,0.0,0.0,0.0,0.0,0.0,0.0,0.0,0.0,0.0,0.0,0.0,0.0,4.7138,4.716,4.7248,4.7439,4.7713,4.7856,4.7856,4.8152,4.8306,4.8306,4.8306,4.8306,4.8306,4.8306,4.8306,4.8306,4.8382,4.8476,4.855,4.8642,4.8769,4.8856,4.8891,4.8909,4.8909,4.8909,4.8909,4.8909,4.8909,4.8909,4.8909,4.8909,4.8909,4.8909,4.8909,4.8909,4.8909,4.8909,4.8667,4.8444,4.8444,4.7831,4.7163,4.6865,4.6314,4.5688,4.4853,4.4804,4.4646,4.3845,4.3684,4.3634,4.3566,4.3532,4.3515,4.3515,4.3515,4.3515,4.3515,4.3515,4.3515,4.3515,4.3515,4.3515,4.3515,4.3615,4.373,4.3839,4.3839,4.3793,4.3699,4.3793,4.3728,4.3515,4.3632,4.3615,4.3515,4.3515,4.3515,2.0234,2.1871,2.406,2.5077,2.7057,2.9472,3.2231,3.3507,3.4714,3.6922,3.6991,3.6749,3.6973,3.7495,0.0,0.0,4.1343,4.3189,0.0,0.0,0.0,0.0,0.0,0.0,0.0,0.0,0.0,0.0,0.0,0.0,0.0,0.0,0.0,0.0,4.6678,4.6747,4.6908,4.7226,4.7378,4.7378,4.7856,4.8152,4.8306,4.8306,4.8306,4.8306,4.8306,4.8306,4.8306,4.8401,4.8457,4.855,4.875,4.8856,4.8909,4.8909,4.8909,4.8909,4.8909,4.8909,4.8909,4.8909,4.8909,4.8909,4.8909,4.8909,4.8909,4.8909,4.8909,4.8909,4.8909,4.8909,4.8909,4.8909,4.8481,4.8,4.7723,4.7188,4.6488,4.5623,4.5608,4.5446,4.4535,4.439,4.4354,4.4267,4.4267,4.4158,4.3901,4.3883,4.3773,4.3533,4.3515,4.3515,4.3515,4.3515,4.3515,4.3515,4.3515,4.3515,4.3515,4.3515,4.3515,4.3515,4.3515,4.3515,4.3515,4.3515,4.3515,4.3515,4.3515,4.3515,2.1798,2.2681,2.4198,2.5732,2.7851,3.0558,3.4352,3.4665,3.518,3.8939,3.8525,3.7754,3.8496,3.8594,0.0,3.9577,0.0,0.0,0.0,0.0,0.0,0.0,0.0,0.0,0.0,0.0,0.0,0.0,0.0,0.0,0.0,0.0,0.0,0.0,4.6186,4.6411,4.6886,4.6886,4.6886,4.6908,4.7378,4.7836,4.8287,4.8306,4.8306,4.8306,4.8306,4.8306,4.8306,4.8306,4.842,4.8623,4.882,4.8909,4.8909,4.8909,4.8909,4.8909,4.8909,4.8909,4.8909,4.8909,4.8909,4.8909,4.8909,4.8909,4.8909,4.8909,4.8909,4.8909,4.8909,4.8909,4.8909,4.8909,4.8909,4.8651,4.7803,4.7652,4.7411,4.6407,4.6224,4.6188,4.61,4.5993,4.5902,4.5902,4.5902,4.5608,4.4801,4.4691,4.4378,4.3589,4.3515,4.3515,4.3515,4.3515,4.3515,4.3515,4.3515,4.3515,4.3515,4.3515,4.3515,4.3515,4.3515,4.3515,4.3515,4.3515,4.3515,4.3515,4.3515,4.3515,2.0975,2.3043,2.5663,2.6695,3.0248,3.4076,3.6322,3.665,3.7271,3.998,3.9733,3.9112,3.9319,3.937,0.0,0.0,0.0,0.0,0.0,0.0,0.0,0.0,0.0,0.0,0.0,0.0,0.0,0.0,0.0,0.0,0.0,0.0,0.0,0.0,4.5641,4.5701,4.5837,4.6217,4.6411,4.6411,4.6868,4.7356,4.7816,4.8152,4.8306,4.8306,4.8306,4.8306,4.8306,4.8439,4.8642,4.882,4.8891,4.8909,4.8909,4.8909,4.8909,4.8909,4.8909,4.8909,4.8909,4.8909,4.8909,4.8909,4.8909,4.8909,4.8909,4.8909,4.8909,4.8909,4.8909,4.8909,4.8909,4.8909,4.8909,4.8817,4.8577,4.8415,4.8086,4.7202,4.7389,4.7316,4.6158,4.6232,4.6324,4.5957,4.5902,4.5681,4.5057,4.4323,4.3754,4.3533,4.3515,4.3515,4.3515,4.3515,4.3515,4.3515,4.3515,4.3515,4.3515,4.3515,4.3515,4.3515,4.3515,4.3515,4.3515,4.3515,4.3515,4.3515,4.3515,4.3515,2.263,2.5008,2.7868,2.9558,3.261,3.5749,3.7887,3.8634,3.9238,4.0618,4.025,3.9802,4.0112,3.9905,0.0,0.0,0.0,0.0,0.0,0.0,0.0,0.0,0.0,0.0,0.0,0.0,0.0,0.0,0.0,0.0,0.0,0.0,0.0,0.0,4.4527,4.4682,4.4958,4.5275,4.5591,4.5905,4.6387,4.6771,4.7071,4.7527,4.7733,4.7752,4.7793,4.7915,4.8113,4.8307,4.8569,4.8856,4.8891,4.8909,4.8909,4.8909,4.8909,4.8909,4.8909,4.8909,4.8909,4.8909,4.8909,4.8909,4.8909,4.8909,4.8909,4.8909,4.8909,4.8891,4.8856,4.8856,4.8856,4.8891,4.8874,4.8839,4.8785,4.8696,4.8421,4.7868,4.8089,4.805,4.7021,4.7131,4.7241,4.6911,4.6489,4.6012,4.548,4.4287,4.3515,4.3515,4.3515,4.3515,4.3515,4.3515,4.3515,4.3515,4.3515,4.3515,4.3515,4.3515,4.3515,4.3515,4.3515,4.3515,4.3515,4.3515,4.3515,4.3515,4.3515,4.3515,2.5375,2.7542,3.0144,3.3233,3.48,3.6335,3.9163,4.0394,4.0912,4.0912,4.0325,4.0026,4.0774,4.0284,0.0,0.0,0.0,0.0,0.0,0.0,0.0,0.0,0.0,0.0,0.0,0.0,0.0,0.0,0.0,0.0,0.0,0.0,0.0,4.3189,4.3189,4.3517,4.419,4.4207,4.4527,0.0,4.5765,4.6032,4.6056,4.6619,4.6908,4.6931,4.7062,4.7353,4.7793,4.7957,4.8288,4.8697,4.875,4.8785,4.8785,4.8785,4.8785,4.8785,4.882,4.8856,4.8838,4.8891,4.8909,4.8909,4.8909,4.8909,4.8909,4.8909,4.8909,4.8891,4.8822,4.8787,4.8822,4.8856,4.8766,4.8676,4.8623,4.855,4.8458,4.8326,4.8419,4.8438,4.8306,4.8306,4.8306,4.8306,4.748,4.6673,4.6177,4.458,4.3515,4.3515,4.3515,4.3515,4.3515,4.3515,4.3515,4.3515,4.3515,4.3515,4.3515,4.3515,4.3515,4.3515,4.3515,4.3515,4.3515,4.3515,4.3515,4.3515,4.3515,4.3515,2.3039,2.5834,2.9368,3.2403,3.5973,3.906,4.0359,4.0791,4.0912,4.0912,4.0774,4.0705,4.0877,4.0774,0.0,0.0,0.0,0.0,0.0,0.0,0.0,0.0,0.0,0.0,0.0,0.0,0.0,0.0,0.0,0.0,0.0,0.0,0.0,4.3189,4.3189,4.3276,4.3431,4.3431,4.3517,0.0,4.4386,4.4714,4.4757,4.623,4.6954,4.7062,4.7084,4.7244,4.7488,4.7428,4.7593,4.7858,4.7879,4.7879,4.7879,4.7879,4.7879,4.7919,4.8307,4.8439,4.8476,4.8785,4.8909,4.8909,4.8909,4.8909,4.8909,4.8909,4.8909,4.8891,4.8822,4.8787,4.8787,4.8696,4.8251,4.8009,4.8621,4.8179,4.7812,4.8347,4.84,4.8325,4.8306,4.8306,4.8306,4.8306,4.8104,4.7921,4.781,4.5278,4.3515,4.3515,4.3515,4.3515,4.3515,4.3515,4.3515,4.3515,4.3515,4.3515,4.3515,4.3515,4.3515,4.3515,4.3515,4.3515,4.3515,4.3515,4.3515,4.3515,4.3515,4.3515,2.3684,2.6472,2.9839,3.3858,3.6914,3.9139,3.9918,4.0087,4.0087,4.0087,4.0517,4.0823,4.0524,0.0,0.0,0.0,0.0,0.0,0.0,0.0,0.0,0.0,0.0,0.0,0.0,0.0,0.0,0.0,0.0,0.0,0.0,4.2292,4.2102,4.2102,4.2102,4.2275,4.262,4.2637,4.2827,4.3189,4.3586,4.3991,4.443,4.5638,4.6291,4.6483,4.6483,4.6701,4.7057,4.7075,4.7273,4.7611,4.7611,4.7611,4.7611,4.7611,4.7611,4.7632,4.7877,4.7975,4.8035,4.8476,4.8605,4.8642,4.8838,4.8874,4.8839,4.8839,4.8821,4.8732,4.8679,4.8661,4.8642,4.8569,4.8292,4.8144,4.8569,4.8218,4.7942,4.8327,4.8363,4.8306,4.8306,4.8306,4.8306,4.8306,4.8306,4.7737,4.6195,4.4525,4.3515,4.3515,4.3515,4.3515,4.3515,4.3515,4.3515,4.3515,4.3515,4.3515,4.3515,4.3515,4.3515,4.3515,4.3515,4.3515,4.3515,4.3515,4.3515,4.3515,4.3463,4.3464,2.4298,2.735,3.0788,3.5619,3.7459,3.8271,3.9023,3.9206,3.9206,3.9206,3.9961,4.0451,0.0,0.0,0.0,0.0,0.0,0.0,0.0,0.0,0.0,0.0,0.0,0.0,0.0,0.0,0.0,0.0,0.0,0.0,4.1826,4.124,4.0912,4.0912,4.0912,4.1205,4.1809,4.1826,4.2137,4.2792,4.293,4.3454,4.4349,4.4811,4.5321,4.5821,4.5821,4.6137,4.6631,4.6701,4.6999,4.7356,4.7356,4.7356,4.7356,4.7356,4.7356,4.7378,4.7464,4.7485,4.7548,4.8015,4.8172,4.8249,4.8569,4.8642,4.8587,4.8569,4.855,4.8495,4.8401,4.8381,4.8363,4.8343,4.8286,4.8267,4.8457,4.8272,4.8105,4.8269,4.8306,4.8306,4.8306,4.8306,4.8122,4.7572,4.748,4.6507,4.3828,4.3515,4.3515,4.3515,4.3515,4.3515,4.3515,4.3515,4.3515,4.3515,4.3515,4.3515,4.3515,4.3515,4.3515,4.3515,4.3497,4.348,4.348,4.3463,4.3463,4.3463,4.3394,4.345,2.0701,2.5739,3.1441,3.5203,3.7136,3.8271,3.9023,3.9206,3.9206,0.0,3.9339,3.9401,0.0,0.0,0.0,0.0,0.0,0.0,0.0,0.0,0.0,0.0,0.0,0.0,0.0,0.0,0.0,0.0,0.0,0.0,4.105,4.0963,4.0912,4.0912,4.0912,4.0963,4.105,4.105,4.1101,4.1205,4.1861,4.2691,4.3614,4.3613,4.4468,4.5972,4.5972,4.6097,4.6253,4.6154,4.6228,4.6398,4.6398,4.6398,4.6398,4.6398,4.6398,4.6471,4.684,4.6981,4.7071,4.7548,4.7695,4.7695,4.7756,4.7777,4.7736,4.7614,4.7879,4.8115,4.7935,4.7895,4.7875,4.7754,4.7399,4.7356,4.8307,4.7758,4.7335,4.8142,4.8306,4.8306,4.8306,4.8306,4.7352,4.4562,4.414,4.3992,4.357,4.3515,4.3515,4.3515,4.3515,4.3515,4.3515,4.3515,4.3515,4.3515,4.3515,4.3515,4.3515,4.3515,4.3515,4.3515,4.3446,4.3394,4.3394,4.3286,4.3232,4.3232,4.3233,4.3597,2.1953,2.5763,2.9621,3.3517,3.4956,3.5796,3.7277,3.7632,3.7745,3.8149,3.8258,0.0,0.0,0.0,0.0,0.0,0.0,0.0,0.0,0.0,0.0,0.0,0.0,0.0,0.0,0.0,0.0,0.0,0.0,4.041,4.041,4.071,4.0912,4.0912,4.0912,4.0912,4.0912,4.0912,4.0912,4.0912,4.1726,4.2382,4.2897,4.3315,4.401,4.4844,4.5226,4.5467,4.56,4.5972,4.6147,4.6196,4.6196,4.6196,4.6196,4.6196,4.6196,4.6221,4.6447,4.6501,4.6596,4.7066,4.7204,4.727,4.7527,4.7551,4.7467,4.7342,4.7403,4.7503,4.7353,4.7309,4.7331,4.746,4.72,4.7044,4.7506,4.765,4.7812,4.8214,4.8306,4.8306,4.8306,4.8306,4.7829,4.6397,4.6195,4.6195,4.6195,4.4617,4.3515,4.3515,4.3515,4.3515,4.3515,4.3515,4.3515,4.3515,4.3515,4.3515,4.3515,4.3515,4.3515,4.3515,4.3393,4.3375,4.3464,4.3304,4.3214,4.3142,4.3142,4.3579,2.2107,2.4701,2.6988,3.0986,3.2519,3.353,3.5458,3.6124,3.655,0.0,0.0,0.0,0.0,0.0,0.0,0.0,0.0,0.0,0.0,0.0,0.0,0.0,0.0,0.0,0.0,0.0,0.0,0.0,0.0,3.98,3.98,4.0212,4.0468,4.0468,4.0614,4.0614,4.0468,4.0468,4.0541,4.0662,4.1333,4.1778,4.2084,4.2765,4.308,4.3156,4.4194,4.4686,4.4852,4.56,4.5916,4.5933,4.6126,4.6196,4.6196,4.6196,4.6196,4.6196,4.6196,4.6196,4.627,4.6602,4.6719,4.6771,4.7138,4.7142,4.7013,4.6923,4.6913,4.6858,4.6584,4.6631,4.6771,4.7039,4.6794,4.6584,4.684,4.7248,4.7715,4.8191,4.8306,4.8306,4.8306,4.8306,4.8306,4.8306,4.8306,4.8306,4.8306,4.5763,4.3983,4.3983,4.3983,4.3848,4.3535,4.3515,4.3515,4.3515,4.4268,4.4342,4.3533,4.4304,4.4341,4.3533,4.3305,4.3212,4.316,4.3032,4.292,4.2826,4.2976,4.3377,1.8408,2.1031,2.3973,2.7478,3.0378,3.2703,3.4083,0.0,3.6408,3.644,0.0,0.0,0.0,0.0,0.0,0.0,0.0,0.0,0.0,0.0,0.0,0.0,0.0,0.0,0.0,0.0,0.0,0.0,0.0,3.9259,3.9259,3.9286,3.9286,3.9286,3.9774,3.98,3.9286,3.9286,3.9532,4.0053,4.0087,4.0461,4.1186,4.1285,4.1198,4.108,4.308,4.3957,4.4009,4.4834,4.5168,4.5238,4.5933,4.6196,4.6196,4.6196,4.6196,4.6196,4.6196,4.6196,4.6196,4.6221,4.6246,4.6246,4.627,4.6196,4.6073,4.6065,4.6246,4.6284,4.5641,4.5854,4.6235,4.6259,4.5854,4.5752,4.6701,4.6193,4.6102,4.7937,4.8306,4.8306,4.8306,4.8306,4.8306,4.8306,4.8306,4.8306,4.8306,4.6547,4.5295,4.5295,4.5295,4.4806,4.3595,4.3515,4.3515,4.3515,4.6361,4.6673,4.3643,4.6434,4.6617,4.357,4.3185,4.2772,4.2259,4.2133,4.205,4.2071,4.2634,4.2937,1.814,2.0099,2.2297,2.5349,2.7547,2.9437,3.1239,3.3087,3.4541,3.4968,0.0,0.0,0.0,0.0,0.0,0.0,0.0,0.0,0.0,0.0,0.0,0.0,0.0,0.0,0.0,0.0,0.0,0.0,0.0,0.0,3.8629,3.9001,3.9206,3.9206,3.9375,3.9401,3.9206,3.9206,3.9312,3.948,3.948,3.9765,4.0269,4.0302,4.04,4.058,4.1323,4.2098,4.2875,4.3898,4.4624,4.5133,4.5396,4.5775,4.6196,4.6196,4.6196,4.6196,4.6196,4.6196,4.6196,4.6196,4.6196,4.6172,4.6097,4.6048,4.5972,4.5838,4.5871,4.5871,4.5502,4.5537,4.5693,4.5693,4.5537,4.5485,4.5862,4.5649,4.5598,4.6304,4.6448,4.6448,4.6448,4.6448,4.6855,4.8113,4.8306,4.8306,4.8306,4.6595,4.5397,4.5397,4.5397,4.5224,4.4759,4.4717,4.4717,4.4717,4.5806,4.5912,4.4752,4.5823,4.5894,4.4735,4.4256,4.3804,4.3341,4.2017,4.1963,4.3052,4.2349,4.2895,1.7018,1.8866,2.1079,2.3641,2.5155,2.6767,2.9571,3.1428,3.2866,3.3767,0.0,0.0,0.0,0.0,0.0,0.0,0.0,0.0,0.0,0.0,0.0,0.0,0.0,0.0,0.0,0.0,0.0,0.0,0.0,0.0,3.8042,3.8184,3.8226,3.8196,3.8253,3.8357,3.8574,3.8357,3.8472,3.892,3.9017,3.9295,3.9732,3.9783,3.9927,4.017,4.0228,4.0764,4.1678,4.2697,4.3443,4.3948,4.4209,4.4766,4.5428,4.5571,4.5795,4.6023,4.6147,4.6196,4.6196,4.6196,4.6196,4.6172,4.6048,4.5972,4.5897,4.577,4.5667,4.5581,4.5423,4.5397,4.5397,4.5397,4.5397,4.5397,4.5397,4.5397,4.5397,4.5397,4.5397,4.5397,4.5397,4.5397,4.5819,4.7142,4.7317,4.7317,4.7317,4.6182,4.5397,4.5397,4.5397,4.5397,4.5397,4.5397,4.5397,4.5397,4.5397,4.5397,4.5397,4.5238,4.5211,4.5397,4.4875,4.4465,4.4192,4.2341,4.1809,4.2486,4.2545,4.3442,0.0,0.0,0.0,2.2266,2.3275,0.0,2.9018,0.0,3.1444,0.0,0.0,0.0,0.0,0.0,0.0,0.0,0.0,0.0,0.0,0.0,0.0,0.0,0.0,0.0,0.0,0.0,0.0,0.0,0.0,3.7494,3.751,3.6801,3.6329,3.6173,3.6306,3.666,3.7242,3.6676,3.7011,3.8262,3.8606,3.9044,3.9542,3.968,3.9714,3.9677,3.9868,4.0128,4.0444,4.122,4.1587,4.1672,4.2458,4.3194,4.3827,4.4301,4.493,4.5615,4.603,4.6147,4.6147,4.6172,4.6172,4.6147,4.6023,4.5897,4.5795,4.5795,4.5607,4.5397,4.5397,4.5397,4.5397,4.5397,4.5397,4.5397,4.5397,4.5397,4.5397,4.5397,4.5397,4.5397,4.5397,4.5397,4.5397,4.5397,4.5397,4.5397,4.5397,4.5397,4.5397,4.5397,4.5397,4.5397,4.5397,4.5397,4.5397,4.5397,4.5397,4.5397,4.5397,4.4875,4.4848,4.5371,4.4875,4.4615,4.4615,4.3108,4.1636,4.0299,4.3244,4.4615,1.6246,0.0,0.0,0.0,0.0,0.0,0.0,0.0,0.0,0.0,0.0,0.0,0.0,0.0,0.0,0.0,0.0,0.0,0.0,0.0,0.0,0.0,0.0,0.0,0.0,0.0,0.0,0.0,3.6706,3.6943,3.7478,3.6801,3.6147,3.5629,3.5653,3.5763,3.5916,3.6226,3.6574,3.695,3.7562,3.8046,3.8367,3.8423,3.8645,3.905,3.9115,3.9329,3.9661,4.0433,4.1066,4.1621,4.1851,4.2398,4.3143,4.376,4.4112,4.4387,4.5042,4.5081,4.4974,4.5477,4.5511,4.5442,4.5667,4.5744,4.5744,4.5581,4.545,4.5397,4.5397,4.5397,4.5397,4.5397,4.5397,4.5397,4.5397,4.5397,4.5397,4.5397,4.5397,4.5397,4.5397,4.5397,4.5397,4.5397,4.5397,4.5397,4.5397,4.5397,4.5397,4.5397,4.5397,4.5397,4.5397,4.5397,4.5397,4.5397,4.5397,4.5397,4.5397,4.4875,4.4654,4.482,4.4682,4.4615,4.4615,4.4175,4.3768,4.3379,4.4225,4.4615,1.7336,1.8094,1.9309,1.9894,0.0,0.0,0.0,2.4081,0.0,0.0,0.0,0.0,0.0,0.0,0.0,0.0,0.0,0.0,0.0,0.0,0.0,0.0,0.0,0.0,0.0,0.0,0.0,3.5995,3.5995,3.6042,3.6166,3.6042,3.5537,3.4541,3.4794,3.4936,3.4936,3.5459,3.5779,3.5995,3.6648,3.7153,3.7498,3.7596,3.8051,3.8805,3.8805,3.8969,3.9325,3.9773,4.0231,4.0636,4.0636,4.1118,4.188,4.2428,4.3025,4.361,4.4072,4.4319,4.4434,4.4684,4.4695,4.464,4.4783,4.4865,4.4991,4.53,4.5397,4.5397,4.5397,4.5397,4.5397,4.5397,4.5397,4.5397,4.5397,4.5397,4.5397,4.5397,4.5397,4.5397,4.5397,4.5397,4.5397,4.5397,4.5397,4.5397,4.5397,4.5397,4.5397,4.5397,4.5397,4.5397,4.5397,4.5397,4.5397,4.5397,4.5397,4.5397,4.5397,4.4875,4.4615,4.4615,4.4615,4.4615,4.4615,4.4615,4.4615,4.4615,4.4615,4.4615,1.8505,1.9073,2.032,2.1489,2.0415,0.0,2.4255,2.4413,2.4409,0.0,0.0,0.0,0.0,0.0,0.0,0.0,0.0,0.0,0.0,0.0,0.0,0.0,0.0,0.0,0.0,3.5221,3.5268,3.5268,3.5347,3.5078,3.4336,3.4905,3.4668,3.334,3.3878,3.4178,3.4178,3.4515,3.4854,3.5296,3.5851,3.6377,3.685,3.7125,3.7801,3.875,3.875,3.8958,3.9299,3.9218,3.9218,3.9245,3.9299,3.9642,4.0222,4.0699,4.1705,4.2836,4.3075,4.3547,4.4034,4.3913,4.3826,4.3768,4.3714,4.3685,4.3934,4.4971,4.522,4.522,4.5371,4.5397,4.5397,4.5397,4.5397,4.5397,4.5397,4.5397,4.5397,4.5397,4.5397,4.5397,4.5397,4.5397,4.5397,4.5397,4.5397,4.5397,4.5397,4.5397,4.5397,4.5397,4.5397,4.5397,4.5397,4.5397,4.5397,4.5397,4.5397,4.5371,4.5318,4.4848,4.4615,4.4615,4.4615,4.4615,4.4615,4.4615,4.4615,4.4615,4.4615,4.4615,2.1215,2.1284,2.141,2.1079,0.0,0.0,2.0304,2.1252,2.2596,0.0,0.0,0.0,0.0,0.0,0.0,0.0,0.0,0.0,0.0,0.0,0.0,0.0,0.0,0.0,0.0,3.4194,3.451,3.451,3.5047,3.5078,3.4336,3.4431,3.413,3.3324,3.3435,3.3498,3.3498,3.4074,3.4422,3.451,3.5233,3.5883,3.6508,3.6821,3.7544,3.8476,3.8476,3.881,3.9272,3.8782,3.8711,3.8914,3.9175,3.9084,3.8893,3.9785,4.0151,4.0435,4.1856,4.2067,4.1977,4.3244,4.338,4.3075,4.3436,4.3597,4.3802,4.4288,4.4157,4.4112,4.5123,4.5397,4.5397,4.5397,4.5397,4.5397,4.5397,4.5397,4.5397,4.5397,4.5397,4.5397,4.5397,4.5397,4.5397,4.5397,4.5397,4.5397,4.5397,4.5397,4.5397,4.5397,4.5397,4.5397,4.5397,4.5397,4.5397,4.5397,4.5397,4.5211,4.4765,4.4671,4.4615,4.4615,4.4615,4.4615,4.4615,4.4615,4.4615,4.4615,4.4615,4.4615,2.2569,2.2408,2.2374,2.2359,0.0,0.0,0.0,2.0862,2.1078,2.2633,0.0,0.0,0.0,0.0,0.0,0.0,0.0,0.0,0.0,0.0,0.0,0.0,0.0,0.0,0.0,3.3403,3.3799,3.3799,3.413,3.4178,3.3814,3.3799,3.372,3.3519,3.3388,3.3346,3.3503,3.3837,3.3916,3.3799,3.4297,3.5109,3.6094,3.646,3.7277,3.8408,3.8544,3.8699,3.8838,3.8504,3.8375,3.8399,3.886,3.8766,3.8468,3.9119,3.9394,3.9651,4.0704,4.1074,4.1276,4.2265,4.2412,4.2253,4.249,4.2816,4.3183,4.335,4.3439,4.3689,4.4569,4.4625,4.4608,4.5247,4.444,4.3495,4.3495,4.3495,4.3495,4.3495,4.4524,4.5397,4.5397,4.5397,4.5397,4.5397,4.5397,4.5397,4.5397,4.5397,4.5397,4.5397,4.5397,4.5397,4.5397,4.5397,4.5397,4.5397,4.5397,4.5264,4.4995,4.4737,4.4615,4.4615,4.4615,4.4615,4.4615,4.4615,4.4615,4.4615,4.4615,4.4615,0.0,0.0,0.0,0.0,0.0,2.1888,0.0,0.0,0.0,2.1873,0.0,0.0,0.0,0.0,0.0,0.0,0.0,0.0,0.0,0.0,0.0,0.0,0.0,0.0,0.0,3.225,3.2724,3.3261,3.2929,3.2882,3.3277,3.3309,3.3398,3.3633,3.3398,3.3398,3.3633,3.3668,3.3581,3.3309,3.3581,3.4404,3.5719,3.605,3.6977,3.8335,3.8528,3.8528,3.8391,3.8278,3.8091,3.7943,3.8528,3.8516,3.825,3.8528,3.8817,3.9191,3.9802,4.0367,4.0895,4.1515,4.1654,4.1588,4.1588,4.1997,4.2396,4.2396,4.2771,4.3213,4.3604,4.341,4.3393,4.444,4.3092,4.1588,4.1588,4.1588,4.1588,4.1588,4.3273,4.468,4.468,4.468,4.468,4.468,4.5096,4.5397,4.5397,4.5397,4.5397,4.5397,4.5397,4.5397,4.5397,4.5397,4.5397,4.5397,4.5397,4.5397,4.5397,4.4875,4.4615,4.4615,4.4615,4.4615,4.4615,4.4615,4.4615,4.4615,4.4615,4.4615,0.0,0.0,0.0,0.0,2.4488,0.0,0.0,0.0,2.1264,1.9684,0.0,0.0,0.0,0.0,0.0,0.0,0.0,0.0,0.0,0.0,0.0,0.0,0.0,0.0,0.0,0.0,3.0598,3.3119,3.1586,3.1349,3.3198,3.3309,3.3293,3.3346,3.3335,3.3293,3.3361,3.3581,3.3581,3.3309,3.3581,3.4314,3.5463,3.5735,3.6641,3.7943,3.8001,3.816,3.8379,3.7817,3.7714,3.7943,3.829,3.8107,3.7612,3.7902,3.7908,3.7959,3.9459,3.9861,3.9929,4.1518,4.1851,4.1588,4.1588,4.1654,4.1704,4.1704,4.1769,4.1835,4.1867,4.1867,4.1851,4.2013,4.1802,4.1588,4.1588,4.1588,4.1588,4.1588,4.1819,4.2045,4.2045,4.2045,4.2045,4.2045,4.3951,4.5397,4.5397,4.5397,4.5397,4.5397,4.5397,4.5397,4.5397,4.5397,4.5397,4.5397,4.5397,4.5397,4.5397,4.4875,4.4615,4.4615,4.4615,4.4615,4.4615,4.4615,4.4615,4.4615,4.4615,4.4615,0.0,0.0,0.0,0.0,0.0,0.0,2.1436,0.0,1.9951,0.0,0.0,0.0,0.0,0.0,0.0,0.0,0.0,0.0,0.0,0.0,0.0,0.0,0.0,0.0,0.0,0.0,0.0,0.0,0.0,3.0496,3.2623,3.2734,3.296,3.3513,3.3372,3.3372,3.3529,3.3477,3.3398,3.3309,3.3398,3.4234,3.5641,3.5746,3.657,3.7915,3.7915,3.7902,3.7847,3.7599,3.7553,3.7685,3.7817,3.77,3.7524,3.7815,3.7743,3.77,3.9183,3.9628,3.9771,4.1293,4.172,4.1588,4.1588,4.1588,4.1588,4.1588,4.1588,4.1588,4.1588,4.1588,4.1588,4.1588,4.1588,4.1588,4.1588,4.1588,4.1588,4.1588,4.1588,4.1588,4.1588,4.1588,4.1588,4.1588,4.2522,4.3213,4.3213,4.3213,4.3213,4.3213,4.3213,4.3213,4.3213,4.3213,4.3835,4.5318,4.5397,4.5264,4.4958,4.4709,4.4615,4.4615,4.4615,4.4615,4.4615,4.4615,4.4615,4.4615,4.4615,4.4615,2.7583,0.0,0.0,0.0,0.0,0.0,0.0,0.0,0.0,0.0,0.0,0.0,0.0,0.0,0.0,0.0,0.0,0.0,0.0,0.0,0.0,0.0,0.0,0.0,0.0,0.0,0.0,0.0,0.0,0.0,3.1864,3.2181,3.2615,3.3304,3.3303,3.3398,3.3581,3.3477,3.3372,3.3309,3.3372,3.4207,3.5708,3.5708,3.6446,3.7786,3.7786,3.7685,3.751,3.751,3.751,3.751,3.751,3.751,3.7539,3.7714,3.7782,3.7923,3.9092,3.9756,4.023,4.1257,4.1588,4.1588,4.1588,4.1588,4.1588,4.1588,4.1588,4.1588,4.1588,4.1588,4.1588,4.1588,4.1588,4.1588,4.1588,4.1588,4.1588,4.1588,4.1588,4.1588,4.1588,4.1588,4.1588,4.1588,4.1588,4.1588,4.1588,4.1588,4.1588,4.1588,4.1588,4.1588,4.1588,4.1588,4.2396,4.4226,4.4339,4.4186,4.3785,4.3562,4.3472,4.3472,4.4224,4.4224,4.3472,4.3472,4.3472,4.3502,4.4253,4.4384,0.0,0.0,0.0,2.5768,0.0,0.0,0.0,0.0,2.0776,0.0,0.0,0.0,0.0,0.0,2.0128,1.8985,1.9272,0.0,0.0,0.0,0.0,0.0,0.0,0.0,0.0,0.0,0.0,0.0,0.0,0.0,3.104,3.1912,3.2307,3.2349,3.2987,3.3293,3.3293,3.3555,3.3555,3.3309,3.3555,3.4287,3.5422,3.5422,3.6181,3.751,3.751,3.751,3.751,3.751,3.751,3.751,3.751,3.751,3.751,3.751,3.7907,3.857,3.9266,4.0388,4.1525,4.1573,4.1588,4.1588,4.1588,4.1588,4.1588,4.1588,4.1588,4.1588,4.1588,4.1588,4.1588,4.1588,4.1588,4.1588,4.1588,4.1588,4.1588,4.1588,4.1588,4.1588,4.1588,4.1588,4.1588,4.1588,4.1588,4.1588,4.1588,4.1588,4.1588,4.1588,4.1588,4.1588,4.1588,4.1588,4.1638,4.172,4.1704,4.1704,4.172,4.1021,4.0627,4.0627,4.3246,4.3276,4.0627,4.0627,4.0627,4.0681,4.3366,4.3873,0.0,0.0,2.9422,2.7164,0.0,0.0,0.0,0.0,0.0,0.0,0.0,0.0,0.0,0.0,2.0063,1.9367,1.9299,1.9014,0.0,0.0,0.0,0.0,0.0,0.0,0.0,0.0,0.0,0.0,2.6404,0.0,0.0,3.1191,3.1792,3.2276,3.2945,3.3309,3.3309,3.3372,3.3372,3.3309,3.3398,3.4116,3.5394,3.5394,3.6153,3.751,3.751,3.751,3.751,3.751,3.751,3.751,3.751,3.751,3.751,3.751,3.7652,3.7986,3.9108,4.0419,4.1588,4.1588,4.1588,4.1588,4.1588,4.1588,4.1588,4.1588,4.1588,4.1588,4.1588,4.1588,4.1588,4.1588,4.1588,4.1588,4.1588,4.1588,4.1588,4.1588,4.1588,4.1588,4.1588,4.1588,4.1588,4.1588,4.1588,4.1588,4.1588,4.1588,4.1588,4.1588,4.1588,4.1588,4.1588,4.1588,4.1588,4.1588,4.1588,4.1588,4.1588,4.1357,4.0987,4.0489,4.1868,4.2142,4.1223,4.073,4.0489,4.0524,4.1442,4.1624,2.9766,2.9958,0.0,2.7981,2.6796,0.0,2.3314,0.0,0.0,0.0,0.0,0.0,0.0,0.0,2.105,2.0712,1.9906,1.8874,0.0,1.8049,0.0,0.0,0.0,0.0,0.0,0.0,2.3633,2.5592,0.0,0.0,0.0,0.0,3.1428,3.1896,3.2803,3.3309,3.3309,3.3309,3.3309,3.3309,3.3309,3.3893,3.5015,3.5268,3.6026,3.7117,3.7399,3.751,3.751,3.751,3.751,3.751,3.751,3.751,3.751,3.751,3.751,3.7747,3.9329,4.0482,4.1272,4.1509,4.1588,4.1588,4.1588,4.1588,4.1588,4.1588,4.1588,4.1588,4.1588,4.1588,4.1588,4.1588,4.1588,4.1588,4.1588,4.1588,4.1588,4.1588,4.1588,4.1588,4.1588,4.1588,4.1588,4.1588,4.1588,4.1588,4.1588,4.1588,4.1588,4.1588,4.1588,4.1588,4.1588,4.1588,4.1588,4.1588,4.1588,4.1588,4.1588,4.1588,4.139,4.0885,4.1357,4.1588,4.1588,4.1122,4.0885,4.0885,4.0885,4.0765]}]]